Wetterdaten: Montag, 02.10.2017
Datum Zeit Temp. A. Pool Temp. Feuchte A. Luftdruck Regen Wind Richtung Richtung Sonnenschein ET UV Solar Taupunkt Windchill Windben Empfang
02.10.2017 00:00 12,4 C 13,3 C 95 % 1021,9 hPa 0,0 l/m 3,0 km/h (1 Bft) S-SW 198 0 min 0,000 mm 0,0 UV-I 0 W/m 11,6 C 12,4 C 4,8 km/h (1 Bft) 97,87 %
02.10.2017 00:02 12,3 C 13,3 C 95 % 1021,8 hPa 0,0 l/m 3,7 km/h (1 Bft) S 173 0 min 0,000 mm 0,0 UV-I 0 W/m 11,5 C 12,3 C 4,8 km/h (1 Bft) 100,00 %
02.10.2017 00:04 12,3 C 13,3 C 95 % 1021,8 hPa 0,0 l/m 3,6 km/h (1 Bft) S 173 0 min 0,000 mm 0,0 UV-I 0 W/m 11,5 C 12,3 C 4,8 km/h (1 Bft) 100,00 %
02.10.2017 00:06 12,3 C 13,3 C 95 % 1021,8 hPa 0,0 l/m 4,3 km/h (1 Bft) O-SO 123 0 min 0,000 mm 0,0 UV-I 0 W/m 11,5 C 12,3 C 6,4 km/h (2 Bft) 98,11 %
02.10.2017 00:08 12,3 C 13,3 C 95 % 1021,7 hPa 0,0 l/m 5,1 km/h (1 Bft) O-SO 111 0 min 0,000 mm 0,0 UV-I 0 W/m 11,5 C 12,3 C 6,4 km/h (2 Bft) 97,56 %
02.10.2017 00:10 12,3 C 13,3 C 95 % 1021,7 hPa 0,0 l/m 4,4 km/h (1 Bft) O-SO 111 0 min 0,000 mm 0,0 UV-I 0 W/m 11,5 C 12,3 C 6,4 km/h (2 Bft) 95,74 %
02.10.2017 00:12 12,3 C 13,3 C 95 % 1021,7 hPa 0,0 l/m 2,9 km/h (1 Bft) O-SO 111 0 min 0,000 mm 0,0 UV-I 0 W/m 11,5 C 12,3 C 4,8 km/h (1 Bft) 97,62 %
02.10.2017 00:14 12,4 C 13,3 C 95 % 1021,7 hPa 0,0 l/m 3,4 km/h (1 Bft) O-SO 111 0 min 0,000 mm 0,0 UV-I 0 W/m 11,6 C 12,4 C 4,8 km/h (1 Bft) 98,00 %
02.10.2017 00:16 12,3 C 13,3 C 95 % 1021,7 hPa 0,0 l/m 2,7 km/h (1 Bft) O-SO 111 0 min 0,000 mm 0,0 UV-I 0 W/m 11,5 C 12,3 C 4,8 km/h (1 Bft) 97,73 %
02.10.2017 00:18 12,3 C 13,3 C 95 % 1021,6 hPa 0,0 l/m 4,3 km/h (1 Bft) O 90 0 min 0,000 mm 0,0 UV-I 0 W/m 11,5 C 12,3 C 6,4 km/h (2 Bft) 98,21 %
02.10.2017 00:20 12,3 C 13,3 C 95 % 1021,7 hPa 0,0 l/m 4,7 km/h (1 Bft) O 99 0 min 0,000 mm 0,0 UV-I 0 W/m 11,5 C 12,3 C 9,7 km/h (2 Bft) 97,62 %
02.10.2017 00:22 12,3 C 13,3 C 95 % 1021,6 hPa 0,0 l/m 4,6 km/h (1 Bft) O 98 0 min 0,000 mm 0,0 UV-I 0 W/m 11,5 C 12,3 C 9,7 km/h (2 Bft) 97,56 %
02.10.2017 00:24 12,3 C 13,3 C 95 % 1021,6 hPa 0,0 l/m 4,9 km/h (1 Bft) O 86 0 min 0,000 mm 0,0 UV-I 0 W/m 11,5 C 12,3 C 9,7 km/h (2 Bft) 98,11 %
02.10.2017 00:26 12,3 C 13,3 C 95 % 1021,6 hPa 0,0 l/m 3,7 km/h (1 Bft) O 101 0 min 0,000 mm 0,0 UV-I 0 W/m 11,5 C 12,3 C 4,8 km/h (1 Bft) 96,23 %
02.10.2017 00:28 12,3 C 13,3 C 95 % 1021,7 hPa 0,0 l/m 2,2 km/h (1 Bft) O 101 0 min 0,000 mm 0,0 UV-I 0 W/m 11,5 C 12,3 C 3,2 km/h (1 Bft) 100,00 %
02.10.2017 00:30 12,2 C 13,3 C 95 % 1021,7 hPa 0,0 l/m 1,6 km/h (1 Bft) O 101 0 min 0,000 mm 0,0 UV-I 0 W/m 11,4 C 12,2 C 3,2 km/h (1 Bft) 95,74 %
02.10.2017 00:32 12,1 C 13,3 C 95 % 1021,6 hPa 0,0 l/m 0,5 km/h (0 Bft) O 101 0 min 0,000 mm 0,0 UV-I 0 W/m 11,3 C 12,1 C 3,2 km/h (1 Bft) 97,56 %
02.10.2017 00:34 12,1 C 13,3 C 95 % 1021,6 hPa 0,0 l/m 0,6 km/h (0 Bft) O 101 0 min 0,000 mm 0,0 UV-I 0 W/m 11,3 C 12,1 C 1,6 km/h (1 Bft) 98,00 %
02.10.2017 00:36 12,1 C 13,3 C 95 % 1021,6 hPa 0,0 l/m 0,3 km/h (0 Bft) O 101 0 min 0,000 mm 0,0 UV-I 0 W/m 11,3 C 12,1 C 1,6 km/h (1 Bft) 97,87 %
02.10.2017 00:38 12,0 C 13,3 C 95 % 1021,5 hPa 0,0 l/m 1,1 km/h (1 Bft) O 101 0 min 0,000 mm 0,0 UV-I 0 W/m 11,2 C 12,0 C 3,2 km/h (1 Bft) 95,74 %
02.10.2017 00:40 11,9 C 13,3 C 95 % 1021,5 hPa 0,0 l/m 0,5 km/h (0 Bft) O 101 0 min 0,000 mm 0,0 UV-I 0 W/m 11,1 C 11,9 C 1,6 km/h (1 Bft) 97,87 %
02.10.2017 00:42 11,8 C 13,3 C 95 % 1021,5 hPa 0,0 l/m 0,0 km/h (0 Bft) O 101 0 min 0,000 mm 0,0 UV-I 0 W/m 11,0 C 11,8 C 0,0 km/h (0 Bft) 100,00 %
02.10.2017 00:44 11,8 C 13,3 C 95 % 1021,6 hPa 0,0 l/m 0,0 km/h (0 Bft) O 101 0 min 0,000 mm 0,0 UV-I 0 W/m 11,0 C 11,8 C 0,0 km/h (0 Bft) 97,87 %
02.10.2017 00:46 11,7 C 13,3 C 95 % 1021,5 hPa 0,0 l/m 0,0 km/h (0 Bft) O 101 0 min 0,000 mm 0,0 UV-I 0 W/m 10,9 C 11,7 C 0,0 km/h (0 Bft) 100,00 %
02.10.2017 00:48 11,7 C 13,3 C 95 % 1021,5 hPa 0,0 l/m 0,0 km/h (0 Bft) O 101 0 min 0,000 mm 0,0 UV-I 0 W/m 10,9 C 11,7 C 0,0 km/h (0 Bft) 97,87 %
02.10.2017 00:50 11,6 C 13,3 C 96 % 1021,5 hPa 0,0 l/m 0,0 km/h (0 Bft) O 101 0 min 0,000 mm 0,0 UV-I 0 W/m 11,0 C 11,6 C 0,0 km/h (0 Bft) 100,00 %
02.10.2017 00:52 11,5 C 13,3 C 95 % 1021,5 hPa 0,0 l/m 0,0 km/h (0 Bft) O 101 0 min 0,000 mm 0,0 UV-I 0 W/m 10,7 C 11,5 C 0,0 km/h (0 Bft) 100,00 %
02.10.2017 00:54 11,3 C 13,3 C 95 % 1021,5 hPa 0,0 l/m 0,0 km/h (0 Bft) O 101 0 min 0,000 mm 0,0 UV-I 0 W/m 10,5 C 11,3 C 0,0 km/h (0 Bft) 97,87 %
02.10.2017 00:56 11,2 C 13,3 C 95 % 1021,5 hPa 0,0 l/m 0,0 km/h (0 Bft) O 101 0 min 0,000 mm 0,0 UV-I 0 W/m 10,4 C 11,2 C 0,0 km/h (0 Bft) 100,00 %
02.10.2017 00:58 11,1 C 13,3 C 95 % 1021,5 hPa 0,0 l/m 0,0 km/h (0 Bft) O 101 0 min 0,000 mm 0,0 UV-I 0 W/m 10,3 C 11,1 C 0,0 km/h (0 Bft) 97,92 %
02.10.2017 01:00 11,1 C 13,3 C 96 % 1021,4 hPa 0,0 l/m 0,0 km/h (0 Bft) O 101 0 min 0,000 mm 0,0 UV-I 0 W/m 10,5 C 11,1 C 0,0 km/h (0 Bft) 100,00 %
02.10.2017 01:02 11,1 C 13,3 C 95 % 1021,4 hPa 0,0 l/m 0,0 km/h (0 Bft) O 101 0 min 0,000 mm 0,0 UV-I 0 W/m 10,3 C 11,1 C 0,0 km/h (0 Bft) 97,87 %
02.10.2017 01:04 11,0 C 13,3 C 96 % 1021,4 hPa 0,0 l/m 0,0 km/h (0 Bft) O 101 0 min 0,000 mm 0,0 UV-I 0 W/m 10,4 C 11,0 C 0,0 km/h (0 Bft) 100,00 %
02.10.2017 01:06 10,9 C 13,3 C 96 % 1021,4 hPa 0,0 l/m 0,6 km/h (0 Bft) O 101 0 min 0,000 mm 0,0 UV-I 0 W/m 10,3 C 10,9 C 3,2 km/h (1 Bft) 100,00 %
02.10.2017 01:08 10,8 C 13,3 C 96 % 1021,4 hPa 0,0 l/m 1,5 km/h (1 Bft) O 101 0 min 0,000 mm 0,0 UV-I 0 W/m 10,2 C 10,8 C 3,2 km/h (1 Bft) 100,00 %
02.10.2017 01:10 10,8 C 13,3 C 96 % 1021,4 hPa 0,0 l/m 1,8 km/h (1 Bft) O 101 0 min 0,000 mm 0,0 UV-I 0 W/m 10,2 C 10,8 C 3,2 km/h (1 Bft) 97,87 %
02.10.2017 01:12 11,0 C 13,3 C 96 % 1021,3 hPa 0,0 l/m 2,2 km/h (1 Bft) O 101 0 min 0,000 mm 0,0 UV-I 0 W/m 10,4 C 11,0 C 3,2 km/h (1 Bft) 97,87 %
02.10.2017 01:14 11,2 C 13,3 C 97 % 1021,3 hPa 0,0 l/m 3,1 km/h (1 Bft) O 101 0 min 0,000 mm 0,0 UV-I 0 W/m 10,7 C 11,2 C 4,8 km/h (1 Bft) 100,00 %
02.10.2017 01:16 11,3 C 13,3 C 97 % 1021,2 hPa 0,0 l/m 3,6 km/h (1 Bft) O 101 0 min 0,000 mm 0,0 UV-I 0 W/m 10,8 C 11,3 C 4,8 km/h (1 Bft) 100,00 %
02.10.2017 01:18 11,4 C 13,3 C 97 % 1021,2 hPa 0,0 l/m 4,1 km/h (1 Bft) O 101 0 min 0,000 mm 0,0 UV-I 0 W/m 10,9 C 11,4 C 4,8 km/h (1 Bft) 97,87 %
02.10.2017 01:20 11,4 C 13,3 C 97 % 1021,3 hPa 0,0 l/m 4,0 km/h (1 Bft) O 101 0 min 0,000 mm 0,0 UV-I 0 W/m 10,9 C 11,4 C 6,4 km/h (2 Bft) 100,00 %
02.10.2017 01:22 11,4 C 13,3 C 97 % 1021,2 hPa 0,0 l/m 3,2 km/h (1 Bft) O 101 0 min 0,000 mm 0,0 UV-I 0 W/m 10,9 C 11,4 C 4,8 km/h (1 Bft) 100,00 %
02.10.2017 01:24 11,4 C 13,3 C 97 % 1021,2 hPa 0,0 l/m 3,1 km/h (1 Bft) O 101 0 min 0,000 mm 0,0 UV-I 0 W/m 10,9 C 11,4 C 4,8 km/h (1 Bft) 97,37 %
02.10.2017 01:26 11,3 C 13,3 C 96 % 1021,3 hPa 0,0 l/m 1,9 km/h (1 Bft) O 101 0 min 0,000 mm 0,0 UV-I 0 W/m 10,7 C 11,3 C 3,2 km/h (1 Bft) 100,00 %
02.10.2017 01:28 11,2 C 13,3 C 96 % 1021,3 hPa 0,0 l/m 1,5 km/h (1 Bft) O 101 0 min 0,000 mm 0,0 UV-I 0 W/m 10,6 C 11,2 C 3,2 km/h (1 Bft) 100,00 %
02.10.2017 01:30 11,2 C 13,3 C 96 % 1021,3 hPa 0,0 l/m 0,6 km/h (0 Bft) O 101 0 min 0,000 mm 0,0 UV-I 0 W/m 10,6 C 11,2 C 1,6 km/h (1 Bft) 98,51 %
02.10.2017 01:32 11,1 C 13,3 C 96 % 1021,3 hPa 0,0 l/m 0,7 km/h (0 Bft) O 101 0 min 0,000 mm 0,0 UV-I 0 W/m 10,5 C 11,1 C 1,6 km/h (1 Bft) 100,00 %
02.10.2017 01:34 11,1 C 13,3 C 96 % 1021,2 hPa 0,0 l/m 1,6 km/h (1 Bft) O 101 0 min 0,000 mm 0,0 UV-I 0 W/m 10,5 C 11,1 C 3,2 km/h (1 Bft) 100,00 %
02.10.2017 01:36 11,1 C 13,3 C 96 % 1021,3 hPa 0,0 l/m 1,3 km/h (1 Bft) O 101 0 min 0,000 mm 0,0 UV-I 0 W/m 10,5 C 11,1 C 1,6 km/h (1 Bft) 100,00 %
02.10.2017 01:38 11,1 C 13,3 C 97 % 1021,3 hPa 0,0 l/m 0,7 km/h (0 Bft) O 101 0 min 0,000 mm 0,0 UV-I 0 W/m 10,6 C 11,1 C 1,6 km/h (1 Bft) 100,00 %
02.10.2017 01:40 11,1 C 13,3 C 97 % 1021,3 hPa 0,0 l/m 0,0 km/h (0 Bft) O 101 0 min 0,000 mm 0,0 UV-I 0 W/m 10,6 C 11,1 C 0,0 km/h (0 Bft) 100,00 %
02.10.2017 01:42 10,8 C 13,3 C 96 % 1021,4 hPa 0,0 l/m 0,0 km/h (0 Bft) O 101 0 min 0,000 mm 0,0 UV-I 0 W/m 10,2 C 10,8 C 0,0 km/h (0 Bft) 97,56 %
02.10.2017 01:44 10,5 C 13,3 C 96 % 1021,3 hPa 0,0 l/m 0,0 km/h (0 Bft) O 101 0 min 0,000 mm 0,0 UV-I 0 W/m 9,9 C 10,5 C 0,0 km/h (0 Bft) 94,29 %
02.10.2017 01:46 10,3 C 13,3 C 96 % 1021,3 hPa 0,0 l/m 0,0 km/h (0 Bft) O 101 0 min 0,000 mm 0,0 UV-I 0 W/m 9,7 C 10,3 C 0,0 km/h (0 Bft) 98,31 %
02.10.2017 01:48 10,3 C 13,3 C 96 % 1021,3 hPa 0,0 l/m 0,0 km/h (0 Bft) O 101 0 min 0,000 mm 0,0 UV-I 0 W/m 9,7 C 10,3 C 0,0 km/h (0 Bft) 98,00 %
02.10.2017 01:50 10,4 C 13,3 C 97 % 1021,4 hPa 0,0 l/m 0,0 km/h (0 Bft) O 101 0 min 0,000 mm 0,0 UV-I 0 W/m 9,9 C 10,4 C 0,0 km/h (0 Bft) 93,62 %
02.10.2017 01:52 10,4 C 13,3 C 97 % 1021,4 hPa 0,0 l/m 0,0 km/h (0 Bft) O 101 0 min 0,000 mm 0,0 UV-I 0 W/m 9,9 C 10,4 C 0,0 km/h (0 Bft) 98,00 %
02.10.2017 01:54 10,6 C 13,3 C 97 % 1021,4 hPa 0,0 l/m 0,0 km/h (0 Bft) O 101 0 min 0,000 mm 0,0 UV-I 0 W/m 10,1 C 10,6 C 0,0 km/h (0 Bft) 97,87 %
02.10.2017 01:56 10,6 C 13,3 C 97 % 1021,4 hPa 0,0 l/m 0,0 km/h (0 Bft) O 101 0 min 0,000 mm 0,0 UV-I 0 W/m 10,1 C 10,6 C 0,0 km/h (0 Bft) 97,37 %
02.10.2017 01:58 10,6 C 13,3 C 97 % 1021,3 hPa 0,0 l/m 0,0 km/h (0 Bft) O 101 0 min 0,000 mm 0,0 UV-I 0 W/m 10,1 C 10,6 C 0,0 km/h (0 Bft) 95,74 %
02.10.2017 02:00 10,6 C 13,3 C 97 % 1021,3 hPa 0,0 l/m 0,0 km/h (0 Bft) O 101 0 min 0,000 mm 0,0 UV-I 0 W/m 10,1 C 10,6 C 0,0 km/h (0 Bft) 98,11 %
02.10.2017 02:02 10,6 C 13,3 C 97 % 1021,3 hPa 0,0 l/m 1,0 km/h (0 Bft) O 101 0 min 0,000 mm 0,0 UV-I 0 W/m 10,1 C 10,6 C 3,2 km/h (1 Bft) 97,87 %
02.10.2017 02:04 10,6 C 13,3 C 97 % 1021,3 hPa 0,0 l/m 0,4 km/h (0 Bft) O 101 0 min 0,000 mm 0,0 UV-I 0 W/m 10,1 C 10,6 C 1,6 km/h (1 Bft) 97,37 %
02.10.2017 02:06 10,7 C 13,3 C 97 % 1021,3 hPa 0,0 l/m 0,0 km/h (0 Bft) O 101 0 min 0,000 mm 0,0 UV-I 0 W/m 10,2 C 10,7 C 0,0 km/h (0 Bft) 98,11 %
02.10.2017 02:08 10,7 C 13,3 C 97 % 1021,3 hPa 0,0 l/m 0,0 km/h (0 Bft) O 101 0 min 0,000 mm 0,0 UV-I 0 W/m 10,2 C 10,7 C 0,0 km/h (0 Bft) 95,74 %
02.10.2017 02:10 10,8 C 13,3 C 97 % 1021,3 hPa 0,0 l/m 0,0 km/h (0 Bft) O 101 0 min 0,000 mm 0,0 UV-I 0 W/m 10,3 C 10,8 C 0,0 km/h (0 Bft) 97,78 %
02.10.2017 02:12 10,8 C 13,3 C 97 % 1021,3 hPa 0,0 l/m 0,0 km/h (0 Bft) O 101 0 min 0,000 mm 0,0 UV-I 0 W/m 10,3 C 10,8 C 0,0 km/h (0 Bft) 93,62 %
02.10.2017 02:14 10,8 C 13,3 C 97 % 1021,3 hPa 0,0 l/m 0,0 km/h (0 Bft) O 101 0 min 0,000 mm 0,0 UV-I 0 W/m 10,3 C 10,8 C 0,0 km/h (0 Bft) 94,00 %
02.10.2017 02:16 10,8 C 13,3 C 97 % 1021,3 hPa 0,0 l/m 0,0 km/h (0 Bft) O 101 0 min 0,000 mm 0,0 UV-I 0 W/m 10,3 C 10,8 C 0,0 km/h (0 Bft) 95,74 %
02.10.2017 02:18 10,8 C 13,3 C 97 % 1021,3 hPa 0,0 l/m 0,0 km/h (0 Bft) O 101 0 min 0,000 mm 0,0 UV-I 0 W/m 10,3 C 10,8 C 0,0 km/h (0 Bft) 92,11 %
02.10.2017 02:20 10,9 C 13,3 C 97 % 1021,3 hPa 0,0 l/m 0,0 km/h (0 Bft) O 101 0 min 0,000 mm 0,0 UV-I 0 W/m 10,4 C 10,9 C 0,0 km/h (0 Bft) 94,00 %
02.10.2017 02:22 10,9 C 13,3 C 97 % 1021,3 hPa 0,0 l/m 0,0 km/h (0 Bft) O 101 0 min 0,000 mm 0,0 UV-I 0 W/m 10,4 C 10,9 C 0,0 km/h (0 Bft) 95,74 %
02.10.2017 02:24 10,9 C 13,3 C 97 % 1021,3 hPa 0,0 l/m 0,0 km/h (0 Bft) O 101 0 min 0,000 mm 0,0 UV-I 0 W/m 10,4 C 10,9 C 0,0 km/h (0 Bft) 96,00 %
02.10.2017 02:26 10,9 C 13,3 C 97 % 1021,4 hPa 0,0 l/m 0,0 km/h (0 Bft) O 101 0 min 0,000 mm 0,0 UV-I 0 W/m 10,4 C 10,9 C 0,0 km/h (0 Bft) 95,74 %
02.10.2017 02:28 10,8 C 13,3 C 97 % 1021,4 hPa 0,0 l/m 0,0 km/h (0 Bft) O 101 0 min 0,000 mm 0,0 UV-I 0 W/m 10,3 C 10,8 C 0,0 km/h (0 Bft) 93,62 %
02.10.2017 02:30 10,9 C 13,3 C 97 % 1021,3 hPa 0,0 l/m 0,0 km/h (0 Bft) O 101 0 min 0,000 mm 0,0 UV-I 0 W/m 10,4 C 10,9 C 0,0 km/h (0 Bft) 93,62 %
02.10.2017 02:32 10,9 C 13,3 C 97 % 1021,3 hPa 0,0 l/m 0,0 km/h (0 Bft) O 101 0 min 0,000 mm 0,0 UV-I 0 W/m 10,4 C 10,9 C 0,0 km/h (0 Bft) 94,34 %
02.10.2017 02:34 10,9 C 13,3 C 97 % 1021,2 hPa 0,0 l/m 0,0 km/h (0 Bft) O 101 0 min 0,000 mm 0,0 UV-I 0 W/m 10,4 C 10,9 C 0,0 km/h (0 Bft) 94,74 %
02.10.2017 02:36 10,9 C 13,3 C 97 % 1021,2 hPa 0,0 l/m 0,0 km/h (0 Bft) O 101 0 min 0,000 mm 0,0 UV-I 0 W/m 10,4 C 10,9 C 0,0 km/h (0 Bft) 95,74 %
02.10.2017 02:38 10,9 C 13,3 C 97 % 1021,2 hPa 0,0 l/m 0,0 km/h (0 Bft) O 101 0 min 0,000 mm 0,0 UV-I 0 W/m 10,4 C 10,9 C 0,0 km/h (0 Bft) 93,62 %
02.10.2017 02:40 10,9 C 13,3 C 97 % 1021,2 hPa 0,0 l/m 0,0 km/h (0 Bft) O 101 0 min 0,000 mm 0,0 UV-I 0 W/m 10,4 C 10,9 C 0,0 km/h (0 Bft) 96,00 %
02.10.2017 02:42 10,9 C 13,3 C 97 % 1021,2 hPa 0,0 l/m 0,0 km/h (0 Bft) O 101 0 min 0,000 mm 0,0 UV-I 0 W/m 10,4 C 10,9 C 0,0 km/h (0 Bft) 95,74 %
02.10.2017 02:44 11,0 C 13,3 C 97 % 1021,2 hPa 0,0 l/m 0,0 km/h (0 Bft) O 101 0 min 0,000 mm 0,0 UV-I 0 W/m 10,5 C 11,0 C 0,0 km/h (0 Bft) 97,44 %
02.10.2017 02:46 11,1 C 13,3 C 97 % 1021,2 hPa 0,0 l/m 0,0 km/h (0 Bft) O 101 0 min 0,000 mm 0,0 UV-I 0 W/m 10,6 C 11,1 C 0,0 km/h (0 Bft) 96,55 %
02.10.2017 02:48 11,1 C 13,3 C 97 % 1021,1 hPa 0,0 l/m 0,0 km/h (0 Bft) O 101 0 min 0,000 mm 0,0 UV-I 0 W/m 10,6 C 11,1 C 0,0 km/h (0 Bft) 100,00 %
02.10.2017 02:50 11,1 C 13,3 C 97 % 1021,1 hPa 0,0 l/m 0,0 km/h (0 Bft) O 101 0 min 0,000 mm 0,0 UV-I 0 W/m 10,6 C 11,1 C 0,0 km/h (0 Bft) 97,87 %
02.10.2017 02:52 11,2 C 13,3 C 98 % 1021,2 hPa 0,0 l/m 0,0 km/h (0 Bft) O 101 0 min 0,000 mm 0,0 UV-I 0 W/m 10,9 C 11,2 C 0,0 km/h (0 Bft) 98,00 %
02.10.2017 02:54 11,2 C 13,3 C 98 % 1021,2 hPa 0,0 l/m 0,0 km/h (0 Bft) O 101 0 min 0,000 mm 0,0 UV-I 0 W/m 10,9 C 11,2 C 0,0 km/h (0 Bft) 98,11 %
02.10.2017 02:56 11,2 C 13,3 C 98 % 1021,2 hPa 0,0 l/m 0,0 km/h (0 Bft) O 101 0 min 0,000 mm 0,0 UV-I 0 W/m 10,9 C 11,2 C 0,0 km/h (0 Bft) 100,00 %
02.10.2017 02:58 11,3 C 13,3 C 98 % 1021,2 hPa 0,0 l/m 0,0 km/h (0 Bft) O 101 0 min 0,000 mm 0,0 UV-I 0 W/m 11,0 C 11,3 C 0,0 km/h (0 Bft) 100,00 %
02.10.2017 03:00 11,3 C 13,3 C 98 % 1021,1 hPa 0,0 l/m 0,0 km/h (0 Bft) O 101 0 min 0,000 mm 0,0 UV-I 0 W/m 11,0 C 11,3 C 0,0 km/h (0 Bft) 100,00 %
02.10.2017 03:02 11,3 C 13,3 C 98 % 1021,2 hPa 0,0 l/m 0,0 km/h (0 Bft) O 101 0 min 0,000 mm 0,0 UV-I 0 W/m 11,0 C 11,3 C 0,0 km/h (0 Bft) 98,11 %
02.10.2017 03:04 11,2 C 13,3 C 97 % 1021,1 hPa 0,0 l/m 0,0 km/h (0 Bft) O 101 0 min 0,000 mm 0,0 UV-I 0 W/m 10,7 C 11,2 C 0,0 km/h (0 Bft) 97,14 %
02.10.2017 03:06 11,2 C 13,3 C 98 % 1021,1 hPa 0,0 l/m 0,0 km/h (0 Bft) O 101 0 min 0,000 mm 0,0 UV-I 0 W/m 10,9 C 11,2 C 0,0 km/h (0 Bft) 100,00 %
02.10.2017 03:08 11,3 C 13,3 C 98 % 1021,0 hPa 0,0 l/m 0,0 km/h (0 Bft) O 101 0 min 0,000 mm 0,0 UV-I 0 W/m 11,0 C 11,3 C 1,6 km/h (1 Bft) 95,12 %
02.10.2017 03:10 11,3 C 13,3 C 98 % 1021,1 hPa 0,0 l/m 0,0 km/h (0 Bft) O 101 0 min 0,000 mm 0,0 UV-I 0 W/m 11,0 C 11,3 C 0,0 km/h (0 Bft) 97,87 %
02.10.2017 03:12 11,3 C 13,3 C 98 % 1021,0 hPa 0,0 l/m 0,0 km/h (0 Bft) O 101 0 min 0,000 mm 0,0 UV-I 0 W/m 11,0 C 11,3 C 0,0 km/h (0 Bft) 100,00 %
02.10.2017 03:14 11,3 C 13,3 C 98 % 1021,1 hPa 0,0 l/m 0,0 km/h (0 Bft) O 101 0 min 0,000 mm 0,0 UV-I 0 W/m 11,0 C 11,3 C 0,0 km/h (0 Bft) 98,11 %
02.10.2017 03:16 11,3 C 13,3 C 98 % 1021,0 hPa 0,0 l/m 0,0 km/h (0 Bft) O 101 0 min 0,000 mm 0,0 UV-I 0 W/m 11,0 C 11,3 C 0,0 km/h (0 Bft) 97,87 %
02.10.2017 03:18 11,3 C 13,3 C 98 % 1021,1 hPa 0,0 l/m 0,0 km/h (0 Bft) O 101 0 min 0,000 mm 0,0 UV-I 0 W/m 11,0 C 11,3 C 0,0 km/h (0 Bft) 96,00 %
02.10.2017 03:20 11,3 C 13,3 C 98 % 1021,0 hPa 0,0 l/m 0,0 km/h (0 Bft) O 101 0 min 0,000 mm 0,0 UV-I 0 W/m 11,0 C 11,3 C 0,0 km/h (0 Bft) 100,00 %
02.10.2017 03:22 11,3 C 13,3 C 98 % 1021,0 hPa 0,0 l/m 0,0 km/h (0 Bft) O 101 0 min 0,000 mm 0,0 UV-I 0 W/m 11,0 C 11,3 C 0,0 km/h (0 Bft) 100,00 %
02.10.2017 03:24 11,3 C 13,3 C 98 % 1021,0 hPa 0,0 l/m 0,0 km/h (0 Bft) O 101 0 min 0,000 mm 0,0 UV-I 0 W/m 11,0 C 11,3 C 0,0 km/h (0 Bft) 100,00 %
02.10.2017 03:26 11,3 C 13,3 C 98 % 1021,0 hPa 0,0 l/m 0,0 km/h (0 Bft) O 101 0 min 0,000 mm 0,0 UV-I 0 W/m 11,0 C 11,3 C 0,0 km/h (0 Bft) 100,00 %
02.10.2017 03:28 11,4 C 13,3 C 97 % 1021,0 hPa 0,0 l/m 0,3 km/h (0 Bft) O 101 0 min 0,000 mm 0,0 UV-I 0 W/m 10,9 C 11,4 C 1,6 km/h (1 Bft) 92,00 %
02.10.2017 03:30 11,4 C 13,3 C 97 % 1020,9 hPa 0,0 l/m 1,5 km/h (1 Bft) O 101 0 min 0,000 mm 0,0 UV-I 0 W/m 10,9 C 11,4 C 3,2 km/h (1 Bft) 97,62 %
02.10.2017 03:32 11,4 C 13,3 C 97 % 1020,8 hPa 0,0 l/m 2,6 km/h (1 Bft) O 101 0 min 0,000 mm 0,0 UV-I 0 W/m 10,9 C 11,4 C 3,2 km/h (1 Bft) 96,23 %
02.10.2017 03:34 11,4 C 13,3 C 97 % 1020,8 hPa 0,0 l/m 2,7 km/h (1 Bft) O 101 0 min 0,000 mm 0,0 UV-I 0 W/m 10,9 C 11,4 C 4,8 km/h (1 Bft) 97,14 %
02.10.2017 03:36 11,3 C 13,3 C 97 % 1020,7 hPa 0,0 l/m 3,4 km/h (1 Bft) O-NO 60 0 min 0,000 mm 0,0 UV-I 0 W/m 10,8 C 11,3 C 4,8 km/h (1 Bft) 100,00 %
02.10.2017 03:38 11,3 C 13,3 C 98 % 1020,8 hPa 0,0 l/m 3,6 km/h (1 Bft) O-NO 60 0 min 0,000 mm 0,0 UV-I 0 W/m 11,0 C 11,3 C 4,8 km/h (1 Bft) 100,00 %
02.10.2017 03:40 11,3 C 13,3 C 98 % 1020,8 hPa 0,0 l/m 4,3 km/h (1 Bft) O-NO 60 0 min 0,000 mm 0,0 UV-I 0 W/m 11,0 C 11,3 C 6,4 km/h (2 Bft) 100,00 %
02.10.2017 03:42 11,3 C 13,3 C 98 % 1020,7 hPa 0,0 l/m 3,7 km/h (1 Bft) O-NO 60 0 min 0,000 mm 0,0 UV-I 0 W/m 11,0 C 11,3 C 4,8 km/h (1 Bft) 100,00 %
02.10.2017 03:44 11,3 C 13,3 C 98 % 1020,7 hPa 0,0 l/m 4,5 km/h (1 Bft) O-NO 60 0 min 0,000 mm 0,0 UV-I 0 W/m 11,0 C 11,3 C 6,4 km/h (2 Bft) 97,87 %
02.10.2017 03:46 11,3 C 13,3 C 98 % 1020,7 hPa 0,0 l/m 3,5 km/h (1 Bft) O-NO 60 0 min 0,000 mm 0,0 UV-I 0 W/m 11,0 C 11,3 C 4,8 km/h (1 Bft) 100,00 %
02.10.2017 03:48 11,3 C 13,3 C 98 % 1020,7 hPa 0,0 l/m 2,6 km/h (1 Bft) O-NO 60 0 min 0,000 mm 0,0 UV-I 0 W/m 11,0 C 11,3 C 4,8 km/h (1 Bft) 100,00 %
02.10.2017 03:50 11,3 C 13,3 C 98 % 1020,7 hPa 0,0 l/m 3,5 km/h (1 Bft) O-NO 60 0 min 0,000 mm 0,0 UV-I 0 W/m 11,0 C 11,3 C 4,8 km/h (1 Bft) 97,56 %
02.10.2017 03:52 11,3 C 13,3 C 98 % 1020,7 hPa 0,0 l/m 2,5 km/h (1 Bft) O-NO 60 0 min 0,000 mm 0,0 UV-I 0 W/m 11,0 C 11,3 C 3,2 km/h (1 Bft) 100,00 %
02.10.2017 03:54 11,3 C 13,3 C 98 % 1020,7 hPa 0,0 l/m 1,9 km/h (1 Bft) O-NO 60 0 min 0,000 mm 0,0 UV-I 0 W/m 11,0 C 11,3 C 3,2 km/h (1 Bft) 100,00 %
02.10.2017 03:56 11,3 C 13,3 C 98 % 1020,7 hPa 0,0 l/m 2,8 km/h (1 Bft) O-NO 60 0 min 0,000 mm 0,0 UV-I 0 W/m 11,0 C 11,3 C 4,8 km/h (1 Bft) 97,87 %
02.10.2017 03:58 11,3 C 13,3 C 98 % 1020,7 hPa 0,0 l/m 3,5 km/h (1 Bft) O-NO 60 0 min 0,000 mm 0,0 UV-I 0 W/m 11,0 C 11,3 C 4,8 km/h (1 Bft) 97,14 %
02.10.2017 04:00 11,3 C 13,3 C 98 % 1020,7 hPa 0,0 l/m 2,6 km/h (1 Bft) O-NO 60 0 min 0,000 mm 0,0 UV-I 0 W/m 11,0 C 11,3 C 4,8 km/h (1 Bft) 100,00 %
02.10.2017 04:02 11,3 C 13,3 C 98 % 1020,7 hPa 0,0 l/m 3,5 km/h (1 Bft) O-NO 60 0 min 0,000 mm 0,0 UV-I 0 W/m 11,0 C 11,3 C 6,4 km/h (2 Bft) 100,00 %
02.10.2017 04:04 11,4 C 13,3 C 98 % 1020,6 hPa 0,0 l/m 5,1 km/h (1 Bft) O-NO 61 0 min 0,000 mm 0,0 UV-I 0 W/m 11,1 C 11,4 C 8,0 km/h (2 Bft) 100,00 %
02.10.2017 04:06 11,3 C 13,3 C 98 % 1020,6 hPa 0,0 l/m 4,9 km/h (1 Bft) O-NO 60 0 min 0,000 mm 0,0 UV-I 0 W/m 11,0 C 11,3 C 8,0 km/h (2 Bft) 100,00 %
02.10.2017 04:08 11,4 C 13,3 C 98 % 1020,6 hPa 0,0 l/m 5,5 km/h (1 Bft) O-NO 67 0 min 0,000 mm 0,0 UV-I 0 W/m 11,1 C 11,4 C 8,0 km/h (2 Bft) 97,62 %
02.10.2017 04:10 11,4 C 13,3 C 98 % 1020,6 hPa 0,0 l/m 3,4 km/h (1 Bft) O-NO 69 0 min 0,000 mm 0,0 UV-I 0 W/m 11,1 C 11,4 C 4,8 km/h (1 Bft) 100,00 %
02.10.2017 04:12 11,4 C 13,3 C 98 % 1020,6 hPa 0,0 l/m 1,7 km/h (1 Bft) O-NO 69 0 min 0,000 mm 0,0 UV-I 0 W/m 11,1 C 11,4 C 4,8 km/h (1 Bft) 97,37 %
02.10.2017 04:14 11,4 C 13,3 C 98 % 1020,6 hPa 0,0 l/m 3,2 km/h (1 Bft) O 87 0 min 0,000 mm 0,0 UV-I 0 W/m 11,1 C 11,4 C 6,4 km/h (2 Bft) 96,23 %
02.10.2017 04:16 11,3 C 13,3 C 98 % 1020,6 hPa 0,0 l/m 4,2 km/h (1 Bft) O-NO 61 0 min 0,000 mm 0,0 UV-I 0 W/m 11,0 C 11,3 C 6,4 km/h (2 Bft) 97,87 %
02.10.2017 04:18 11,4 C 13,3 C 98 % 1020,6 hPa 0,0 l/m 5,1 km/h (1 Bft) NO 48 0 min 0,000 mm 0,0 UV-I 0 W/m 11,1 C 11,4 C 6,4 km/h (2 Bft) 98,11 %
02.10.2017 04:20 11,4 C 13,3 C 98 % 1020,7 hPa 0,0 l/m 3,1 km/h (1 Bft) NO 48 0 min 0,000 mm 0,0 UV-I 0 W/m 11,1 C 11,4 C 4,8 km/h (1 Bft) 98,00 %
02.10.2017 04:22 11,3 C 13,3 C 98 % 1020,7 hPa 0,0 l/m 3,0 km/h (1 Bft) NO 48 0 min 0,000 mm 0,0 UV-I 0 W/m 11,0 C 11,3 C 4,8 km/h (1 Bft) 97,56 %
02.10.2017 04:24 11,3 C 13,3 C 98 % 1020,7 hPa 0,0 l/m 3,9 km/h (1 Bft) NO 48 0 min 0,000 mm 0,0 UV-I 0 W/m 11,0 C 11,3 C 6,4 km/h (2 Bft) 97,87 %
02.10.2017 04:26 11,3 C 13,3 C 98 % 1020,6 hPa 0,0 l/m 4,5 km/h (1 Bft) NO 55 0 min 0,000 mm 0,0 UV-I 0 W/m 11,0 C 11,3 C 8,0 km/h (2 Bft) 97,56 %
02.10.2017 04:28 11,3 C 13,3 C 98 % 1020,7 hPa 0,0 l/m 3,7 km/h (1 Bft) NO 55 0 min 0,000 mm 0,0 UV-I 0 W/m 11,0 C 11,3 C 4,8 km/h (1 Bft) 98,11 %
02.10.2017 04:30 11,3 C 13,3 C 98 % 1020,7 hPa 0,0 l/m 4,2 km/h (1 Bft) O-NO 61 0 min 0,000 mm 0,0 UV-I 0 W/m 11,0 C 11,3 C 6,4 km/h (2 Bft) 96,00 %
02.10.2017 04:32 11,3 C 13,3 C 98 % 1020,7 hPa 0,0 l/m 6,3 km/h (2 Bft) O-NO 57 0 min 0,000 mm 0,0 UV-I 0 W/m 11,0 C 11,3 C 8,0 km/h (2 Bft) 97,37 %
02.10.2017 04:34 11,2 C 13,3 C 98 % 1020,7 hPa 0,0 l/m 4,6 km/h (1 Bft) O-NO 57 0 min 0,000 mm 0,0 UV-I 0 W/m 10,9 C 11,2 C 6,4 km/h (2 Bft) 97,87 %
02.10.2017 04:36 11,2 C 13,3 C 98 % 1020,8 hPa 0,0 l/m 3,8 km/h (1 Bft) O-NO 63 0 min 0,000 mm 0,0 UV-I 0 W/m 10,9 C 11,2 C 6,4 km/h (2 Bft) 97,87 %
02.10.2017 04:38 11,2 C 13,3 C 98 % 1020,8 hPa 0,0 l/m 3,7 km/h (1 Bft) O-NO 63 0 min 0,000 mm 0,0 UV-I 0 W/m 10,9 C 11,2 C 6,4 km/h (2 Bft) 96,00 %
02.10.2017 04:40 11,2 C 13,3 C 98 % 1020,8 hPa 0,0 l/m 2,7 km/h (1 Bft) O-NO 63 0 min 0,000 mm 0,0 UV-I 0 W/m 10,9 C 11,2 C 4,8 km/h (1 Bft) 98,00 %
02.10.2017 04:42 11,2 C 13,3 C 98 % 1020,8 hPa 0,0 l/m 3,0 km/h (1 Bft) O-NO 63 0 min 0,000 mm 0,0 UV-I 0 W/m 10,9 C 11,2 C 4,8 km/h (1 Bft) 95,12 %
02.10.2017 04:44 11,2 C 13,3 C 98 % 1020,8 hPa 0,0 l/m 1,7 km/h (1 Bft) O-NO 63 0 min 0,000 mm 0,0 UV-I 0 W/m 10,9 C 11,2 C 3,2 km/h (1 Bft) 97,87 %
02.10.2017 04:46 11,2 C 13,3 C 98 % 1020,8 hPa 0,0 l/m 1,9 km/h (1 Bft) O-NO 63 0 min 0,000 mm 0,0 UV-I 0 W/m 10,9 C 11,2 C 3,2 km/h (1 Bft) 100,00 %
02.10.2017 04:48 11,2 C 13,3 C 98 % 1020,8 hPa 0,0 l/m 0,5 km/h (0 Bft) O-NO 63 0 min 0,000 mm 0,0 UV-I 0 W/m 10,9 C 11,2 C 1,6 km/h (1 Bft) 100,00 %
02.10.2017 04:50 11,2 C 13,3 C 98 % 1020,8 hPa 0,0 l/m 0,3 km/h (0 Bft) O-NO 63 0 min 0,000 mm 0,0 UV-I 0 W/m 10,9 C 11,2 C 1,6 km/h (1 Bft) 100,00 %
02.10.2017 04:52 11,2 C 13,3 C 98 % 1020,8 hPa 0,0 l/m 0,3 km/h (0 Bft) O-NO 63 0 min 0,000 mm 0,0 UV-I 0 W/m 10,9 C 11,2 C 1,6 km/h (1 Bft) 100,00 %
02.10.2017 04:54 11,2 C 13,3 C 98 % 1020,8 hPa 0,0 l/m 0,0 km/h (0 Bft) O-NO 63 0 min 0,000 mm 0,0 UV-I 0 W/m 10,9 C 11,2 C 0,0 km/h (0 Bft) 100,00 %
02.10.2017 04:56 11,2 C 13,3 C 98 % 1020,8 hPa 0,0 l/m 0,0 km/h (0 Bft) O-NO 63 0 min 0,000 mm 0,0 UV-I 0 W/m 10,9 C 11,2 C 0,0 km/h (0 Bft) 100,00 %
02.10.2017 04:58 11,2 C 13,3 C 98 % 1020,8 hPa 0,0 l/m 0,0 km/h (0 Bft) O-NO 63 0 min 0,000 mm 0,0 UV-I 0 W/m 10,9 C 11,2 C 0,0 km/h (0 Bft) 100,00 %
02.10.2017 05:00 11,2 C 13,3 C 98 % 1020,8 hPa 0,0 l/m 0,0 km/h (0 Bft) O-NO 63 0 min 0,000 mm 0,0 UV-I 0 W/m 10,9 C 11,2 C 0,0 km/h (0 Bft) 100,00 %
02.10.2017 05:02 11,2 C 13,3 C 98 % 1020,7 hPa 0,0 l/m 0,3 km/h (0 Bft) O-NO 63 0 min 0,000 mm 0,0 UV-I 0 W/m 10,9 C 11,2 C 1,6 km/h (1 Bft) 100,00 %
02.10.2017 05:04 11,2 C 13,3 C 98 % 1020,7 hPa 0,0 l/m 2,4 km/h (1 Bft) O-NO 63 0 min 0,000 mm 0,0 UV-I 0 W/m 10,9 C 11,2 C 4,8 km/h (1 Bft) 100,00 %
02.10.2017 05:06 11,2 C 13,3 C 98 % 1020,6 hPa 0,0 l/m 3,9 km/h (1 Bft) O-NO 63 0 min 0,000 mm 0,0 UV-I 0 W/m 10,9 C 11,2 C 4,8 km/h (1 Bft) 95,74 %
02.10.2017 05:08 11,2 C 13,3 C 98 % 1020,6 hPa 0,0 l/m 3,6 km/h (1 Bft) O-NO 63 0 min 0,000 mm 0,0 UV-I 0 W/m 10,9 C 11,2 C 4,8 km/h (1 Bft) 100,00 %
02.10.2017 05:10 11,2 C 13,3 C 98 % 1020,6 hPa 0,0 l/m 1,1 km/h (1 Bft) O-NO 63 0 min 0,000 mm 0,0 UV-I 0 W/m 10,9 C 11,2 C 3,2 km/h (1 Bft) 100,00 %
02.10.2017 05:12 11,2 C 13,3 C 98 % 1020,6 hPa 0,0 l/m 0,0 km/h (0 Bft) O-NO 63 0 min 0,000 mm 0,0 UV-I 0 W/m 10,9 C 11,2 C 0,0 km/h (0 Bft) 100,00 %
02.10.2017 05:14 11,2 C 13,3 C 98 % 1020,6 hPa 0,0 l/m 0,3 km/h (0 Bft) O-NO 63 0 min 0,000 mm 0,0 UV-I 0 W/m 10,9 C 11,2 C 1,6 km/h (1 Bft) 98,00 %
02.10.2017 05:16 11,2 C 13,3 C 98 % 1020,7 hPa 0,0 l/m 0,5 km/h (0 Bft) O-NO 63 0 min 0,000 mm 0,0 UV-I 0 W/m 10,9 C 11,2 C 3,2 km/h (1 Bft) 97,87 %
02.10.2017 05:18 11,2 C 13,3 C 98 % 1020,7 hPa 0,0 l/m 0,1 km/h (0 Bft) O-NO 63 0 min 0,000 mm 0,0 UV-I 0 W/m 10,9 C 11,2 C 1,6 km/h (1 Bft) 100,00 %
02.10.2017 05:20 11,2 C 13,3 C 98 % 1020,6 hPa 0,0 l/m 2,0 km/h (1 Bft) O-NO 63 0 min 0,000 mm 0,0 UV-I 0 W/m 10,9 C 11,2 C 3,2 km/h (1 Bft) 97,87 %
02.10.2017 05:22 11,2 C 13,3 C 98 % 1020,6 hPa 0,0 l/m 2,7 km/h (1 Bft) O-NO 63 0 min 0,000 mm 0,0 UV-I 0 W/m 10,9 C 11,2 C 4,8 km/h (1 Bft) 98,00 %
02.10.2017 05:24 11,2 C 13,3 C 98 % 1020,6 hPa 0,0 l/m 2,8 km/h (1 Bft) O-NO 63 0 min 0,000 mm 0,0 UV-I 0 W/m 10,9 C 11,2 C 4,8 km/h (1 Bft) 100,00 %
02.10.2017 05:26 11,2 C 13,3 C 98 % 1020,6 hPa 0,0 l/m 2,8 km/h (1 Bft) O-NO 63 0 min 0,000 mm 0,0 UV-I 0 W/m 10,9 C 11,2 C 4,8 km/h (1 Bft) 95,83 %
02.10.2017 05:28 11,1 C 13,3 C 98 % 1020,6 hPa 0,0 l/m 1,5 km/h (1 Bft) O-NO 63 0 min 0,000 mm 0,0 UV-I 0 W/m 10,8 C 11,1 C 3,2 km/h (1 Bft) 98,00 %
02.10.2017 05:30 11,2 C 13,3 C 98 % 1020,6 hPa 0,0 l/m 0,8 km/h (0 Bft) O-NO 63 0 min 0,000 mm 0,0 UV-I 0 W/m 10,9 C 11,2 C 3,2 km/h (1 Bft) 97,37 %
02.10.2017 05:32 11,2 C 13,3 C 98 % 1020,7 hPa 0,0 l/m 1,8 km/h (1 Bft) O-NO 63 0 min 0,000 mm 0,0 UV-I 0 W/m 10,9 C 11,2 C 3,2 km/h (1 Bft) 98,00 %
02.10.2017 05:34 11,2 C 13,3 C 98 % 1020,7 hPa 0,0 l/m 0,7 km/h (0 Bft) O-NO 63 0 min 0,000 mm 0,0 UV-I 0 W/m 10,9 C 11,2 C 3,2 km/h (1 Bft) 97,73 %
02.10.2017 05:36 11,2 C 13,3 C 98 % 1020,7 hPa 0,0 l/m 0,9 km/h (0 Bft) O-NO 63 0 min 0,000 mm 0,0 UV-I 0 W/m 10,9 C 11,2 C 3,2 km/h (1 Bft) 98,00 %
02.10.2017 05:38 11,2 C 13,3 C 98 % 1020,7 hPa 0,0 l/m 3,2 km/h (1 Bft) O 88 0 min 0,000 mm 0,0 UV-I 0 W/m 10,9 C 11,2 C 6,4 km/h (2 Bft) 98,11 %
02.10.2017 05:40 11,1 C 13,3 C 98 % 1020,7 hPa 0,0 l/m 2,8 km/h (1 Bft) O 83 0 min 0,000 mm 0,0 UV-I 0 W/m 10,8 C 11,1 C 6,4 km/h (2 Bft) 97,56 %
02.10.2017 05:43 10,9 C 13,3 C 98 % 1020,7 hPa 0,0 l/m 1,8 km/h (1 Bft) O 83 0 min 0,000 mm 0,0 UV-I 0 W/m 10,6 C 10,9 C 3,2 km/h (1 Bft) 97,47 %
02.10.2017 05:44 10,9 C 13,3 C 98 % 1020,7 hPa 0,0 l/m 1,8 km/h (1 Bft) O 83 0 min 0,000 mm 0,0 UV-I 0 W/m 10,6 C 10,9 C 3,2 km/h (1 Bft) 100,00 %
02.10.2017 05:46 10,9 C 13,3 C 98 % 1020,7 hPa 0,0 l/m 2,0 km/h (1 Bft) O 83 0 min 0,000 mm 0,0 UV-I 0 W/m 10,6 C 10,9 C 3,2 km/h (1 Bft) 97,87 %
02.10.2017 05:48 11,1 C 13,3 C 98 % 1020,7 hPa 0,0 l/m 2,1 km/h (1 Bft) O 83 0 min 0,000 mm 0,0 UV-I 0 W/m 10,8 C 11,1 C 3,2 km/h (1 Bft) 96,00 %
02.10.2017 05:50 11,0 C 13,3 C 98 % 1020,8 hPa 0,0 l/m 0,4 km/h (0 Bft) O 83 0 min 0,000 mm 0,0 UV-I 0 W/m 10,7 C 11,0 C 1,6 km/h (1 Bft) 95,45 %
02.10.2017 05:52 11,0 C 13,3 C 98 % 1020,8 hPa 0,0 l/m 0,0 km/h (0 Bft) O 83 0 min 0,000 mm 0,0 UV-I 0 W/m 10,7 C 11,0 C 0,0 km/h (0 Bft) 97,87 %
02.10.2017 05:54 11,0 C 13,3 C 98 % 1020,8 hPa 0,0 l/m 0,0 km/h (0 Bft) O 83 0 min 0,000 mm 0,0 UV-I 0 W/m 10,7 C 11,0 C 1,6 km/h (1 Bft) 98,11 %
02.10.2017 05:56 11,0 C 13,3 C 98 % 1020,8 hPa 0,0 l/m 0,2 km/h (0 Bft) O 83 0 min 0,000 mm 0,0 UV-I 0 W/m 10,7 C 11,0 C 1,6 km/h (1 Bft) 97,37 %
02.10.2017 05:58 11,0 C 13,3 C 98 % 1020,8 hPa 0,0 l/m 0,6 km/h (0 Bft) O 83 0 min 0,000 mm 0,0 UV-I 0 W/m 10,7 C 11,0 C 3,2 km/h (1 Bft) 98,00 %
02.10.2017 06:00 11,0 C 13,3 C 98 % 1020,8 hPa 0,0 l/m 0,5 km/h (0 Bft) O 83 0 min 0,000 mm 0,0 UV-I 0 W/m 10,7 C 11,0 C 1,6 km/h (1 Bft) 95,74 %
02.10.2017 06:02 11,0 C 13,3 C 98 % 1020,8 hPa 0,0 l/m 1,8 km/h (1 Bft) O 83 0 min 0,000 mm 0,0 UV-I 0 W/m 10,7 C 11,0 C 3,2 km/h (1 Bft) 98,11 %
02.10.2017 06:04 11,0 C 13,3 C 98 % 1020,7 hPa 0,0 l/m 1,8 km/h (1 Bft) O 83 0 min 0,000 mm 0,0 UV-I 0 W/m 10,7 C 11,0 C 3,2 km/h (1 Bft) 95,24 %
02.10.2017 06:06 11,0 C 13,3 C 98 % 1020,7 hPa 0,0 l/m 1,4 km/h (1 Bft) O 83 0 min 0,000 mm 0,0 UV-I 0 W/m 10,7 C 11,0 C 3,2 km/h (1 Bft) 98,08 %
02.10.2017 06:08 10,9 C 13,3 C 98 % 1020,8 hPa 0,0 l/m 1,2 km/h (1 Bft) O 83 0 min 0,000 mm 0,0 UV-I 0 W/m 10,6 C 10,9 C 3,2 km/h (1 Bft) 97,62 %
02.10.2017 06:10 10,9 C 13,3 C 98 % 1020,8 hPa 0,0 l/m 1,1 km/h (1 Bft) O 83 0 min 0,000 mm 0,0 UV-I 0 W/m 10,6 C 10,9 C 1,6 km/h (1 Bft) 95,74 %
02.10.2017 06:12 10,9 C 13,3 C 98 % 1020,7 hPa 0,0 l/m 0,8 km/h (0 Bft) O 83 0 min 0,000 mm 0,0 UV-I 0 W/m 10,6 C 10,9 C 1,6 km/h (1 Bft) 94,34 %
02.10.2017 06:14 10,9 C 13,3 C 98 % 1020,7 hPa 0,0 l/m 1,0 km/h (0 Bft) O 83 0 min 0,000 mm 0,0 UV-I 0 W/m 10,6 C 10,9 C 3,2 km/h (1 Bft) 97,37 %
02.10.2017 06:16 10,9 C 13,3 C 98 % 1020,8 hPa 0,0 l/m 1,8 km/h (1 Bft) O 83 0 min 0,000 mm 0,0 UV-I 0 W/m 10,6 C 10,9 C 3,2 km/h (1 Bft) 94,00 %
02.10.2017 06:18 10,9 C 13,3 C 98 % 1020,8 hPa 0,0 l/m 2,2 km/h (1 Bft) O 83 0 min 0,000 mm 0,0 UV-I 0 W/m 10,6 C 10,9 C 3,2 km/h (1 Bft) 94,00 %
02.10.2017 06:20 10,9 C 13,3 C 98 % 1020,8 hPa 0,0 l/m 2,4 km/h (1 Bft) O 83 0 min 0,000 mm 0,0 UV-I 0 W/m 10,6 C 10,9 C 4,8 km/h (1 Bft) 94,74 %
02.10.2017 06:22 10,9 C 13,3 C 98 % 1020,7 hPa 0,0 l/m 4,9 km/h (1 Bft) NO 45 0 min 0,000 mm 0,0 UV-I 0 W/m 10,6 C 10,9 C 8,0 km/h (2 Bft) 96,43 %
02.10.2017 06:24 10,9 C 13,3 C 98 % 1020,7 hPa 0,0 l/m 2,5 km/h (1 Bft) NO 45 0 min 0,000 mm 0,0 UV-I 0 W/m 10,6 C 10,9 C 4,8 km/h (1 Bft) 98,00 %
02.10.2017 06:26 10,8 C 13,3 C 98 % 1020,7 hPa 0,0 l/m 2,3 km/h (1 Bft) NO 45 0 min 0,000 mm 0,0 UV-I 0 W/m 10,5 C 10,8 C 3,2 km/h (1 Bft) 97,87 %
02.10.2017 06:28 10,8 C 13,3 C 98 % 1020,7 hPa 0,0 l/m 2,7 km/h (1 Bft) NO 45 0 min 0,000 mm 0,0 UV-I 0 W/m 10,5 C 10,8 C 3,2 km/h (1 Bft) 97,37 %
02.10.2017 06:30 10,8 C 13,3 C 98 % 1020,7 hPa 0,0 l/m 3,2 km/h (1 Bft) O-SO 107 0 min 0,000 mm 0,0 UV-I 0 W/m 10,5 C 10,8 C 4,8 km/h (1 Bft) 97,87 %
02.10.2017 06:32 10,8 C 13,3 C 98 % 1020,8 hPa 0,0 l/m 0,9 km/h (0 Bft) O-SO 107 0 min 0,000 mm 0,0 UV-I 0 W/m 10,5 C 10,8 C 3,2 km/h (1 Bft) 98,00 %
02.10.2017 06:34 10,8 C 13,3 C 98 % 1020,8 hPa 0,0 l/m 0,0 km/h (0 Bft) O-SO 107 0 min 0,000 mm 0,0 UV-I 0 W/m 10,5 C 10,8 C 0,0 km/h (0 Bft) 97,87 %
02.10.2017 06:36 10,9 C 13,3 C 98 % 1020,8 hPa 0,0 l/m 0,4 km/h (0 Bft) O-SO 107 0 min 0,000 mm 0,0 UV-I 0 W/m 10,6 C 10,9 C 3,2 km/h (1 Bft) 97,87 %
02.10.2017 06:38 10,9 C 13,3 C 98 % 1020,7 hPa 0,0 l/m 2,7 km/h (1 Bft) O-SO 107 0 min 0,000 mm 0,0 UV-I 0 W/m 10,6 C 10,9 C 3,2 km/h (1 Bft) 96,00 %
02.10.2017 06:40 10,9 C 13,3 C 98 % 1020,8 hPa 0,0 l/m 2,8 km/h (1 Bft) O-SO 107 0 min 0,000 mm 0,0 UV-I 0 W/m 10,6 C 10,9 C 4,8 km/h (1 Bft) 97,37 %
02.10.2017 06:42 11,0 C 13,3 C 98 % 1020,8 hPa 0,0 l/m 1,9 km/h (1 Bft) O-SO 107 0 min 0,000 mm 0,0 UV-I 0 W/m 10,7 C 11,0 C 3,2 km/h (1 Bft) 96,23 %
02.10.2017 06:44 11,0 C 13,3 C 98 % 1020,9 hPa 0,0 l/m 0,9 km/h (0 Bft) O-SO 107 0 min 0,000 mm 0,0 UV-I 0 W/m 10,7 C 11,0 C 3,2 km/h (1 Bft) 98,00 %
02.10.2017 06:46 11,0 C 13,3 C 98 % 1020,9 hPa 0,0 l/m 0,2 km/h (0 Bft) O-SO 107 0 min 0,000 mm 0,0 UV-I 0 W/m 10,7 C 11,0 C 1,6 km/h (1 Bft) 100,00 %
02.10.2017 06:48 11,0 C 13,3 C 98 % 1020,8 hPa 0,0 l/m 1,6 km/h (1 Bft) O-SO 107 0 min 0,000 mm 0,0 UV-I 0 W/m 10,7 C 11,0 C 3,2 km/h (1 Bft) 100,00 %
02.10.2017 06:50 11,0 C 13,3 C 98 % 1020,8 hPa 0,0 l/m 1,3 km/h (1 Bft) O-SO 107 0 min 0,000 mm 0,0 UV-I 0 W/m 10,7 C 11,0 C 3,2 km/h (1 Bft) 100,00 %
02.10.2017 06:52 11,0 C 13,3 C 98 % 1020,8 hPa 0,0 l/m 0,0 km/h (0 Bft) O-SO 107 0 min 0,000 mm 0,0 UV-I 0 W/m 10,7 C 11,0 C 0,0 km/h (0 Bft) 100,00 %
02.10.2017 06:54 11,0 C 13,3 C 98 % 1020,8 hPa 0,0 l/m 0,0 km/h (0 Bft) O-SO 107 0 min 0,000 mm 0,0 UV-I 0 W/m 10,7 C 11,0 C 0,0 km/h (0 Bft) 100,00 %
02.10.2017 06:56 10,9 C 13,3 C 98 % 1020,8 hPa 0,0 l/m 1,8 km/h (1 Bft) O-SO 107 0 min 0,000 mm 0,0 UV-I 0 W/m 10,6 C 10,9 C 3,2 km/h (1 Bft) 97,73 %
02.10.2017 06:58 10,9 C 13,3 C 98 % 1020,8 hPa 0,0 l/m 2,7 km/h (1 Bft) O-SO 107 0 min 0,000 mm 0,0 UV-I 0 W/m 10,6 C 10,9 C 4,8 km/h (1 Bft) 100,00 %
02.10.2017 07:00 11,0 C 13,3 C 98 % 1020,8 hPa 0,0 l/m 2,8 km/h (1 Bft) O-SO 107 0 min 0,000 mm 0,0 UV-I 0 W/m 10,7 C 11,0 C 4,8 km/h (1 Bft) 100,00 %
02.10.2017 07:02 11,0 C 13,3 C 98 % 1020,8 hPa 0,0 l/m 0,4 km/h (0 Bft) O-SO 107 0 min 0,000 mm 0,0 UV-I 1 W/m 10,7 C 11,0 C 3,2 km/h (1 Bft) 100,00 %
02.10.2017 07:04 11,0 C 13,3 C 98 % 1020,8 hPa 0,0 l/m 2,1 km/h (1 Bft) O-SO 107 0 min 0,000 mm 0,0 UV-I 5 W/m 10,7 C 11,0 C 3,2 km/h (1 Bft) 100,00 %
02.10.2017 07:06 11,0 C 13,3 C 97 % 1020,8 hPa 0,0 l/m 1,5 km/h (1 Bft) O-SO 107 0 min 0,000 mm 0,0 UV-I 5 W/m 10,5 C 11,0 C 3,2 km/h (1 Bft) 100,00 %
02.10.2017 07:08 11,0 C 13,3 C 97 % 1020,8 hPa 0,0 l/m 0,7 km/h (0 Bft) O-SO 107 0 min 0,000 mm 0,0 UV-I 5 W/m 10,5 C 11,0 C 1,6 km/h (1 Bft) 100,00 %
02.10.2017 07:10 11,1 C 13,3 C 97 % 1020,8 hPa 0,0 l/m 0,0 km/h (0 Bft) O-SO 107 0 min 0,000 mm 0,0 UV-I 5 W/m 10,6 C 11,1 C 0,0 km/h (0 Bft) 100,00 %
02.10.2017 07:12 11,1 C 13,3 C 97 % 1020,8 hPa 0,0 l/m 0,0 km/h (0 Bft) O-SO 107 0 min 0,000 mm 0,0 UV-I 5 W/m 10,6 C 11,1 C 0,0 km/h (0 Bft) 97,87 %
02.10.2017 07:14 11,1 C 13,3 C 97 % 1020,8 hPa 0,0 l/m 0,0 km/h (0 Bft) O-SO 107 0 min 0,000 mm 0,0 UV-I 5 W/m 10,6 C 11,1 C 0,0 km/h (0 Bft) 97,87 %
02.10.2017 07:16 11,0 C 13,3 C 97 % 1020,8 hPa 0,0 l/m 0,0 km/h (0 Bft) O-SO 107 0 min 0,000 mm 0,0 UV-I 7 W/m 10,5 C 11,0 C 0,0 km/h (0 Bft) 100,00 %
02.10.2017 07:18 11,1 C 13,3 C 97 % 1020,8 hPa 0,0 l/m 0,9 km/h (0 Bft) O-SO 107 0 min 0,000 mm 0,0 UV-I 7 W/m 10,6 C 11,1 C 3,2 km/h (1 Bft) 100,00 %
02.10.2017 07:20 11,1 C 13,3 C 97 % 1020,8 hPa 0,0 l/m 2,6 km/h (1 Bft) O-SO 107 0 min 0,000 mm 0,0 UV-I 8 W/m 10,6 C 11,1 C 3,2 km/h (1 Bft) 93,62 %
02.10.2017 07:22 11,0 C 13,3 C 97 % 1020,8 hPa 0,0 l/m 2,3 km/h (1 Bft) O-SO 107 0 min 0,000 mm 0,0 UV-I 9 W/m 10,5 C 11,0 C 3,2 km/h (1 Bft) 100,00 %
02.10.2017 07:24 11,0 C 13,3 C 97 % 1020,8 hPa 0,0 l/m 1,8 km/h (1 Bft) O-SO 107 0 min 0,000 mm 0,0 UV-I 9 W/m 10,5 C 11,0 C 3,2 km/h (1 Bft) 97,87 %
02.10.2017 07:26 11,0 C 13,3 C 97 % 1020,8 hPa 0,0 l/m 0,1 km/h (0 Bft) O-SO 107 0 min 0,000 mm 0,0 UV-I 11 W/m 10,5 C 11,0 C 1,6 km/h (1 Bft) 100,00 %
02.10.2017 07:28 11,1 C 13,3 C 97 % 1020,8 hPa 0,0 l/m 1,0 km/h (0 Bft) O-SO 107 0 min 0,000 mm 0,0 UV-I 11 W/m 10,6 C 11,1 C 1,6 km/h (1 Bft) 100,00 %
02.10.2017 07:30 11,1 C 13,3 C 97 % 1020,8 hPa 0,0 l/m 2,4 km/h (1 Bft) O-SO 107 0 min 0,000 mm 0,0 UV-I 11 W/m 10,6 C 11,1 C 4,8 km/h (1 Bft) 100,00 %
02.10.2017 07:32 11,1 C 13,3 C 97 % 1020,8 hPa 0,0 l/m 3,0 km/h (1 Bft) O-SO 107 0 min 0,000 mm 0,0 UV-I 11 W/m 10,6 C 11,1 C 4,8 km/h (1 Bft) 100,00 %
02.10.2017 07:34 11,1 C 13,3 C 97 % 1020,8 hPa 0,0 l/m 1,2 km/h (1 Bft) O-SO 107 0 min 0,000 mm 0,0 UV-I 11 W/m 10,6 C 11,1 C 3,2 km/h (1 Bft) 100,00 %
02.10.2017 07:36 11,1 C 13,3 C 97 % 1020,9 hPa 0,0 l/m 2,4 km/h (1 Bft) O-SO 107 0 min 0,000 mm 0,0 UV-I 12 W/m 10,6 C 11,1 C 4,8 km/h (1 Bft) 100,00 %
02.10.2017 07:38 11,1 C 13,3 C 97 % 1020,9 hPa 0,0 l/m 3,1 km/h (1 Bft) O-SO 107 0 min 0,000 mm 0,0 UV-I 11 W/m 10,6 C 11,1 C 4,8 km/h (1 Bft) 100,00 %
02.10.2017 07:40 11,1 C 13,3 C 97 % 1020,9 hPa 0,0 l/m 2,2 km/h (1 Bft) O-SO 107 0 min 0,000 mm 0,0 UV-I 11 W/m 10,6 C 11,1 C 4,8 km/h (1 Bft) 100,00 %
02.10.2017 07:42 11,1 C 13,3 C 97 % 1020,9 hPa 0,0 l/m 2,8 km/h (1 Bft) O-SO 107 0 min 0,000 mm 0,0 UV-I 12 W/m 10,6 C 11,1 C 4,8 km/h (1 Bft) 98,04 %
02.10.2017 07:44 11,1 C 13,3 C 97 % 1020,9 hPa 0,0 l/m 3,1 km/h (1 Bft) O-SO 107 0 min 0,000 mm 0,0 UV-I 12 W/m 10,6 C 11,1 C 4,8 km/h (1 Bft) 98,00 %
02.10.2017 07:46 11,1 C 13,3 C 97 % 1020,9 hPa 0,0 l/m 3,1 km/h (1 Bft) O-SO 107 0 min 0,000 mm 0,0 UV-I 14 W/m 10,6 C 11,1 C 4,8 km/h (1 Bft) 100,00 %
02.10.2017 07:48 11,0 C 13,3 C 97 % 1020,9 hPa 0,0 l/m 2,4 km/h (1 Bft) O-SO 107 0 min 0,000 mm 0,0 UV-I 14 W/m 10,5 C 11,0 C 3,2 km/h (1 Bft) 97,87 %
02.10.2017 07:50 11,0 C 13,3 C 97 % 1020,9 hPa 0,0 l/m 1,3 km/h (1 Bft) O-SO 107 0 min 0,000 mm 0,0 UV-I 16 W/m 10,5 C 11,0 C 3,2 km/h (1 Bft) 100,00 %
02.10.2017 07:52 11,0 C 13,3 C 97 % 1021,0 hPa 0,0 l/m 2,5 km/h (1 Bft) O-SO 107 0 min 0,000 mm 0,0 UV-I 18 W/m 10,5 C 11,0 C 3,2 km/h (1 Bft) 100,00 %
02.10.2017 07:54 11,0 C 13,3 C 97 % 1020,9 hPa 0,0 l/m 1,8 km/h (1 Bft) O-SO 107 0 min 0,000 mm 0,0 UV-I 19 W/m 10,5 C 11,0 C 4,8 km/h (1 Bft) 100,00 %
02.10.2017 07:56 11,0 C 13,3 C 97 % 1020,8 hPa 0,0 l/m 3,8 km/h (1 Bft) O-NO 63 0 min 0,000 mm 0,0 UV-I 24 W/m 10,5 C 11,0 C 6,4 km/h (2 Bft) 98,00 %
02.10.2017 07:58 11,0 C 13,3 C 97 % 1020,9 hPa 0,0 l/m 4,7 km/h (1 Bft) NO 55 0 min 0,000 mm 0,0 UV-I 30 W/m 10,5 C 11,0 C 6,4 km/h (2 Bft) 100,00 %
02.10.2017 08:00 11,0 C 13,3 C 97 % 1020,9 hPa 0,0 l/m 5,5 km/h (1 Bft) NO 55 0 min 0,000 mm 0,0 UV-I 33 W/m 10,5 C 11,0 C 8,0 km/h (2 Bft) 100,00 %
02.10.2017 08:02 11,0 C 13,3 C 97 % 1020,9 hPa 0,0 l/m 5,1 km/h (1 Bft) NO 39 0 min 0,000 mm 0,0 UV-I 34 W/m 10,5 C 11,0 C 8,0 km/h (2 Bft) 100,00 %
02.10.2017 08:04 11,1 C 13,3 C 97 % 1020,9 hPa 0,0 l/m 4,9 km/h (1 Bft) NO 39 0 min 0,000 mm 0,0 UV-I 35 W/m 10,6 C 11,1 C 6,4 km/h (2 Bft) 100,00 %
02.10.2017 08:06 11,1 C 13,3 C 97 % 1020,9 hPa 0,0 l/m 3,3 km/h (1 Bft) NO 39 0 min 0,000 mm 0,0 UV-I 35 W/m 10,6 C 11,1 C 4,8 km/h (1 Bft) 100,00 %
02.10.2017 08:08 11,1 C 13,3 C 97 % 1020,8 hPa 0,0 l/m 1,9 km/h (1 Bft) NO 39 0 min 0,000 mm 0,0 UV-I 35 W/m 10,6 C 11,1 C 4,8 km/h (1 Bft) 98,11 %
02.10.2017 08:10 11,1 C 13,3 C 97 % 1020,9 hPa 0,0 l/m 0,9 km/h (0 Bft) NO 39 0 min 0,000 mm 0,0 UV-I 34 W/m 10,6 C 11,1 C 3,2 km/h (1 Bft) 97,56 %
02.10.2017 08:12 11,1 C 13,3 C 97 % 1020,9 hPa 0,0 l/m 1,0 km/h (0 Bft) NO 40 0 min 0,000 mm 0,0 UV-I 32 W/m 10,6 C 11,1 C 3,2 km/h (1 Bft) 98,00 %
02.10.2017 08:14 11,1 C 13,3 C 97 % 1020,9 hPa 0,0 l/m 3,6 km/h (1 Bft) O-NO 59 0 min 0,000 mm 0,0 UV-I 32 W/m 10,6 C 11,1 C 6,4 km/h (2 Bft) 96,23 %
02.10.2017 08:16 11,0 C 13,3 C 97 % 1020,9 hPa 0,0 l/m 4,8 km/h (1 Bft) NO 55 0 min 0,000 mm 0,0 UV-I 38 W/m 10,5 C 11,0 C 6,4 km/h (2 Bft) 97,56 %
02.10.2017 08:18 10,9 C 13,3 C 97 % 1020,9 hPa 0,0 l/m 5,3 km/h (1 Bft) NO 55 0 min 0,000 mm 0,0 UV-I 42 W/m 10,4 C 10,9 C 6,4 km/h (2 Bft) 97,87 %
02.10.2017 08:20 10,9 C 13,3 C 97 % 1021,0 hPa 0,0 l/m 4,8 km/h (1 Bft) NO 55 0 min 0,000 mm 0,0 UV-I 41 W/m 10,4 C 10,9 C 6,4 km/h (2 Bft) 97,37 %
02.10.2017 08:22 10,9 C 13,3 C 97 % 1020,9 hPa 0,0 l/m 4,9 km/h (1 Bft) O-NO 59 0 min 0,000 mm 0,0 UV-I 42 W/m 10,4 C 10,9 C 8,0 km/h (2 Bft) 98,21 %
02.10.2017 08:24 11,0 C 13,3 C 97 % 1020,9 hPa 0,0 l/m 4,4 km/h (1 Bft) NO 49 0 min 0,000 mm 0,0 UV-I 47 W/m 10,5 C 11,0 C 6,4 km/h (2 Bft) 98,00 %
02.10.2017 08:26 10,9 C 13,3 C 97 % 1020,9 hPa 0,0 l/m 5,2 km/h (1 Bft) O-NO 64 0 min 0,000 mm 0,0 UV-I 54 W/m 10,4 C 10,9 C 8,0 km/h (2 Bft) 97,87 %
02.10.2017 08:28 10,9 C 13,3 C 97 % 1020,9 hPa 0,0 l/m 5,4 km/h (1 Bft) O-NO 65 0 min 0,000 mm 0,0 UV-I 54 W/m 10,4 C 10,9 C 8,0 km/h (2 Bft) 97,37 %
02.10.2017 08:30 10,9 C 13,3 C 97 % 1021,0 hPa 0,0 l/m 3,7 km/h (1 Bft) O-NO 61 0 min 0,000 mm 0,0 UV-I 52 W/m 10,4 C 10,9 C 4,8 km/h (1 Bft) 98,11 %
02.10.2017 08:32 10,9 C 13,3 C 97 % 1021,0 hPa 0,0 l/m 3,1 km/h (1 Bft) O-NO 61 0 min 0,000 mm 0,0 UV-I 47 W/m 10,4 C 10,9 C 4,8 km/h (1 Bft) 96,00 %
02.10.2017 08:34 10,9 C 13,3 C 97 % 1021,0 hPa 0,0 l/m 4,2 km/h (1 Bft) O-NO 61 0 min 0,000 mm 0,0 UV-I 46 W/m 10,4 C 10,9 C 6,4 km/h (2 Bft) 97,87 %
02.10.2017 08:36 11,0 C 13,3 C 97 % 1021,0 hPa 0,0 l/m 5,4 km/h (1 Bft) NO 46 0 min 0,000 mm 0,0 UV-I 47 W/m 10,5 C 11,0 C 6,4 km/h (2 Bft) 97,37 %
02.10.2017 08:38 10,9 C 13,3 C 97 % 1021,0 hPa 0,0 l/m 4,0 km/h (1 Bft) NO 46 0 min 0,000 mm 0,0 UV-I 50 W/m 10,4 C 10,9 C 6,4 km/h (2 Bft) 97,87 %
02.10.2017 08:40 10,9 C 13,3 C 97 % 1021,0 hPa 0,0 l/m 4,9 km/h (1 Bft) NO 46 0 min 0,000 mm 0,0 UV-I 50 W/m 10,4 C 10,9 C 6,4 km/h (2 Bft) 97,92 %
02.10.2017 08:42 10,9 C 13,3 C 97 % 1021,0 hPa 0,0 l/m 4,0 km/h (1 Bft) O-NO 73 0 min 0,000 mm 0,0 UV-I 45 W/m 10,4 C 10,9 C 6,4 km/h (2 Bft) 98,00 %
02.10.2017 08:44 10,9 C 13,3 C 97 % 1021,0 hPa 0,0 l/m 6,2 km/h (2 Bft) O-NO 72 0 min 0,000 mm 0,0 UV-I 44 W/m 10,4 C 10,9 C 8,0 km/h (2 Bft) 100,00 %
02.10.2017 08:46 10,8 C 13,3 C 97 % 1021,0 hPa 0,0 l/m 5,0 km/h (1 Bft) O-NO 72 0 min 0,000 mm 0,0 UV-I 44 W/m 10,3 C 10,8 C 6,4 km/h (2 Bft) 97,62 %
02.10.2017 08:48 10,8 C 13,3 C 97 % 1021,0 hPa 0,0 l/m 4,8 km/h (1 Bft) O-NO 57 0 min 0,000 mm 0,0 UV-I 42 W/m 10,3 C 10,8 C 6,4 km/h (2 Bft) 100,00 %
02.10.2017 08:50 10,8 C 13,3 C 97 % 1021,0 hPa 0,0 l/m 4,9 km/h (1 Bft) O-NO 66 0 min 0,000 mm 0,0 UV-I 41 W/m 10,3 C 10,8 C 6,4 km/h (2 Bft) 97,56 %
02.10.2017 08:52 10,8 C 13,3 C 97 % 1021,0 hPa 0,0 l/m 5,1 km/h (1 Bft) O-NO 59 0 min 0,000 mm 0,0 UV-I 43 W/m 10,3 C 10,8 C 6,4 km/h (2 Bft) 100,00 %
02.10.2017 08:54 10,8 C 13,3 C 97 % 1021,0 hPa 0,0 l/m 5,1 km/h (1 Bft) O-NO 69 0 min 0,000 mm 0,0 UV-I 46 W/m 10,3 C 10,8 C 8,0 km/h (2 Bft) 98,00 %
02.10.2017 08:56 10,8 C 13,3 C 97 % 1021,0 hPa 0,0 l/m 5,2 km/h (1 Bft) O-NO 59 0 min 0,000 mm 0,0 UV-I 48 W/m 10,3 C 10,8 C 8,0 km/h (2 Bft) 100,00 %
02.10.2017 08:58 10,8 C 13,3 C 97 % 1021,0 hPa 0,0 l/m 5,6 km/h (1 Bft) O-NO 58 0 min 0,000 mm 0,0 UV-I 52 W/m 10,3 C 10,8 C 8,0 km/h (2 Bft) 100,00 %
02.10.2017 09:00 10,8 C 13,3 C 97 % 1021,1 hPa 0,0 l/m 5,1 km/h (1 Bft) O-NO 57 0 min 0,025 mm 0,0 UV-I 58 W/m 10,3 C 10,8 C 6,4 km/h (2 Bft) 100,00 %
02.10.2017 09:02 10,8 C 13,3 C 97 % 1021,0 hPa 0,0 l/m 5,8 km/h (2 Bft) NO 53 0 min 0,000 mm 0,0 UV-I 68 W/m 10,3 C 10,8 C 8,0 km/h (2 Bft) 92,45 %
02.10.2017 09:04 10,8 C 13,3 C 97 % 1021,0 hPa 0,0 l/m 5,7 km/h (1 Bft) O-NO 61 0 min 0,000 mm 0,0 UV-I 84 W/m 10,3 C 10,8 C 8,0 km/h (2 Bft) 98,11 %
02.10.2017 09:06 10,9 C 13,3 C 97 % 1021,0 hPa 0,0 l/m 4,7 km/h (1 Bft) O-NO 59 0 min 0,000 mm 0,0 UV-I 89 W/m 10,4 C 10,9 C 6,4 km/h (2 Bft) 97,37 %
02.10.2017 09:08 10,9 C 13,3 C 97 % 1021,0 hPa 0,0 l/m 5,2 km/h (1 Bft) O-NO 65 0 min 0,000 mm 0,0 UV-I 84 W/m 10,4 C 10,9 C 8,0 km/h (2 Bft) 96,00 %
02.10.2017 09:10 10,9 C 13,3 C 97 % 1021,0 hPa 0,0 l/m 6,2 km/h (2 Bft) O-NO 69 0 min 0,000 mm 0,0 UV-I 90 W/m 10,4 C 10,9 C 8,0 km/h (2 Bft) 98,00 %
02.10.2017 09:12 10,9 C 13,3 C 97 % 1021,0 hPa 0,0 l/m 4,7 km/h (1 Bft) O-NO 68 0 min 0,000 mm 0,0 UV-I 98 W/m 10,4 C 10,9 C 8,0 km/h (2 Bft) 96,00 %
02.10.2017 09:14 10,9 C 13,3 C 97 % 1021,0 hPa 0,0 l/m 5,2 km/h (1 Bft) O-NO 63 0 min 0,000 mm 0,0 UV-I 92 W/m 10,4 C 10,9 C 8,0 km/h (2 Bft) 97,37 %
02.10.2017 09:16 11,1 C 13,3 C 97 % 1021,0 hPa 0,0 l/m 2,4 km/h (1 Bft) O-NO 63 0 min 0,000 mm 0,0 UV-I 88 W/m 10,6 C 11,1 C 4,8 km/h (1 Bft) 94,55 %
02.10.2017 09:18 11,1 C 13,3 C 97 % 1021,0 hPa 0,0 l/m 4,5 km/h (1 Bft) O-NO 63 0 min 0,000 mm 0,0 UV-I 88 W/m 10,6 C 11,1 C 6,4 km/h (2 Bft) 97,22 %
02.10.2017 09:20 11,1 C 13,3 C 97 % 1021,1 hPa 0,0 l/m 4,4 km/h (1 Bft) O-NO 63 0 min 0,000 mm 0,0 UV-I 83 W/m 10,6 C 11,1 C 6,4 km/h (2 Bft) 98,00 %
02.10.2017 09:22 11,2 C 13,3 C 97 % 1021,1 hPa 0,0 l/m 4,7 km/h (1 Bft) NO 51 0 min 0,000 mm 0,0 UV-I 83 W/m 10,7 C 11,2 C 6,4 km/h (2 Bft) 96,36 %
02.10.2017 09:24 11,2 C 13,3 C 97 % 1021,1 hPa 0,0 l/m 4,1 km/h (1 Bft) NO 40 0 min 0,000 mm 0,0 UV-I 85 W/m 10,7 C 11,2 C 6,4 km/h (2 Bft) 97,22 %
02.10.2017 09:26 11,2 C 13,3 C 97 % 1021,1 hPa 0,0 l/m 4,6 km/h (1 Bft) NO 40 0 min 0,000 mm 0,0 UV-I 78 W/m 10,7 C 11,2 C 6,4 km/h (2 Bft) 98,11 %
02.10.2017 09:28 11,2 C 13,3 C 97 % 1021,1 hPa 0,0 l/m 4,0 km/h (1 Bft) NO 40 0 min 0,000 mm 0,0 UV-I 70 W/m 10,7 C 11,2 C 4,8 km/h (1 Bft) 98,00 %
02.10.2017 09:30 11,2 C 13,3 C 97 % 1021,1 hPa 0,0 l/m 3,6 km/h (1 Bft) NO 51 0 min 0,000 mm 0,0 UV-I 71 W/m 10,7 C 11,2 C 4,8 km/h (1 Bft) 97,87 %
02.10.2017 09:32 11,2 C 13,3 C 97 % 1021,1 hPa 0,0 l/m 4,1 km/h (1 Bft) NO 53 0 min 0,000 mm 0,0 UV-I 79 W/m 10,7 C 11,2 C 6,4 km/h (2 Bft) 93,62 %
02.10.2017 09:34 11,2 C 13,3 C 97 % 1021,1 hPa 0,0 l/m 4,9 km/h (1 Bft) O-NO 67 0 min 0,000 mm 0,0 UV-I 88 W/m 10,7 C 11,2 C 6,4 km/h (2 Bft) 97,87 %
02.10.2017 09:36 11,2 C 13,3 C 97 % 1021,1 hPa 0,0 l/m 4,6 km/h (1 Bft) O-NO 59 0 min 0,000 mm 0,0 UV-I 92 W/m 10,7 C 11,2 C 6,4 km/h (2 Bft) 95,12 %
02.10.2017 09:38 11,2 C 13,3 C 97 % 1021,1 hPa 0,0 l/m 4,7 km/h (1 Bft) O-NO 67 0 min 0,000 mm 0,0 UV-I 102 W/m 10,7 C 11,2 C 8,0 km/h (2 Bft) 98,11 %
02.10.2017 09:40 11,2 C 13,3 C 97 % 1021,1 hPa 0,0 l/m 4,8 km/h (1 Bft) O-NO 67 0 min 0,000 mm 0,2 UV-I 109 W/m 10,7 C 11,2 C 8,0 km/h (2 Bft) 100,00 %
02.10.2017 09:42 11,2 C 13,3 C 97 % 1021,0 hPa 0,0 l/m 6,2 km/h (2 Bft) O-NO 72 0 min 0,000 mm 0,4 UV-I 123 W/m 10,7 C 11,2 C 8,0 km/h (2 Bft) 95,74 %
02.10.2017 09:44 11,2 C 13,3 C 97 % 1021,0 hPa 0,0 l/m 5,9 km/h (2 Bft) NO 52 0 min 0,000 mm 0,5 UV-I 140 W/m 10,7 C 11,2 C 8,0 km/h (2 Bft) 97,56 %
02.10.2017 09:46 11,3 C 13,3 C 97 % 1021,0 hPa 0,0 l/m 5,9 km/h (2 Bft) NO 53 0 min 0,000 mm 0,6 UV-I 154 W/m 10,8 C 11,3 C 6,4 km/h (2 Bft) 96,00 %
02.10.2017 09:48 11,3 C 13,3 C 97 % 1021,1 hPa 0,0 l/m 4,1 km/h (1 Bft) O-NO 61 0 min 0,000 mm 0,5 UV-I 142 W/m 10,8 C 11,3 C 6,4 km/h (2 Bft) 97,73 %
02.10.2017 09:50 11,4 C 13,3 C 97 % 1021,1 hPa 0,0 l/m 4,6 km/h (1 Bft) O-NO 61 0 min 0,000 mm 0,4 UV-I 121 W/m 10,9 C 11,4 C 6,4 km/h (2 Bft) 97,56 %
02.10.2017 09:52 11,4 C 13,3 C 97 % 1021,1 hPa 0,0 l/m 5,6 km/h (1 Bft) O 83 0 min 0,000 mm 0,0 UV-I 98 W/m 10,9 C 11,4 C 6,4 km/h (2 Bft) 96,00 %
02.10.2017 09:54 11,4 C 13,3 C 97 % 1021,1 hPa 0,0 l/m 4,5 km/h (1 Bft) NO 48 0 min 0,000 mm 0,0 UV-I 89 W/m 10,9 C 11,4 C 6,4 km/h (2 Bft) 98,00 %
02.10.2017 09:56 11,4 C 13,3 C 96 % 1021,1 hPa 0,0 l/m 5,2 km/h (1 Bft) NO 56 0 min 0,000 mm 0,0 UV-I 87 W/m 10,8 C 11,4 C 6,4 km/h (2 Bft) 97,56 %
02.10.2017 09:58 11,4 C 13,3 C 96 % 1021,2 hPa 0,0 l/m 5,0 km/h (1 Bft) O-NO 67 0 min 0,000 mm 0,0 UV-I 80 W/m 10,8 C 11,4 C 9,7 km/h (2 Bft) 98,11 %
02.10.2017 10:00 11,4 C 13,3 C 96 % 1021,1 hPa 0,0 l/m 6,4 km/h (2 Bft) N-NO 24 0 min 0,051 mm 0,0 UV-I 75 W/m 10,8 C 11,4 C 9,7 km/h (2 Bft) 92,11 %
02.10.2017 10:02 11,4 C 13,3 C 96 % 1021,1 hPa 0,0 l/m 5,2 km/h (1 Bft) NO 53 0 min 0,000 mm 0,0 UV-I 72 W/m 10,8 C 11,4 C 8,0 km/h (2 Bft) 96,43 %
02.10.2017 10:04 11,3 C 13,3 C 96 % 1021,1 hPa 0,0 l/m 3,4 km/h (1 Bft) NO 46 0 min 0,000 mm 0,0 UV-I 70 W/m 10,7 C 11,3 C 4,8 km/h (1 Bft) 97,87 %
02.10.2017 10:06 11,3 C 13,3 C 96 % 1021,1 hPa 0,0 l/m 2,6 km/h (1 Bft) NO 46 0 min 0,000 mm 0,0 UV-I 69 W/m 10,7 C 11,3 C 4,8 km/h (1 Bft) 96,00 %
02.10.2017 10:08 11,2 C 13,3 C 96 % 1021,1 hPa 0,0 l/m 6,0 km/h (2 Bft) NO 46 0 min 0,000 mm 0,0 UV-I 67 W/m 10,6 C 11,2 C 8,0 km/h (2 Bft) 100,00 %
02.10.2017 10:10 11,2 C 13,3 C 96 % 1021,2 hPa 0,0 l/m 5,0 km/h (1 Bft) O-NO 74 0 min 0,000 mm 0,0 UV-I 67 W/m 10,6 C 11,2 C 8,0 km/h (2 Bft) 98,11 %
02.10.2017 10:12 11,1 C 13,3 C 96 % 1021,2 hPa 0,0 l/m 4,8 km/h (1 Bft) O-NO 70 0 min 0,000 mm 0,0 UV-I 67 W/m 10,5 C 11,1 C 6,4 km/h (2 Bft) 97,87 %
02.10.2017 10:14 11,2 C 13,3 C 96 % 1021,2 hPa 0,0 l/m 3,6 km/h (1 Bft) O-NO 63 0 min 0,000 mm 0,0 UV-I 69 W/m 10,6 C 11,2 C 4,8 km/h (1 Bft) 94,00 %
02.10.2017 10:16 11,2 C 13,3 C 96 % 1021,2 hPa 0,0 l/m 5,5 km/h (1 Bft) O-NO 69 0 min 0,000 mm 0,0 UV-I 70 W/m 10,6 C 11,2 C 8,0 km/h (2 Bft) 100,00 %
02.10.2017 10:18 11,1 C 13,3 C 96 % 1021,2 hPa 0,0 l/m 5,6 km/h (1 Bft) O-NO 63 0 min 0,000 mm 0,0 UV-I 74 W/m 10,5 C 11,1 C 8,0 km/h (2 Bft) 97,56 %
02.10.2017 10:20 11,1 C 13,3 C 96 % 1021,2 hPa 0,0 l/m 5,8 km/h (2 Bft) O 80 0 min 0,000 mm 0,0 UV-I 80 W/m 10,5 C 11,1 C 8,0 km/h (2 Bft) 96,43 %
02.10.2017 10:22 11,1 C 13,3 C 96 % 1021,2 hPa 0,0 l/m 4,9 km/h (1 Bft) O-NO 65 0 min 0,000 mm 0,0 UV-I 82 W/m 10,5 C 11,1 C 8,0 km/h (2 Bft) 98,00 %
02.10.2017 10:24 11,1 C 13,3 C 96 % 1021,2 hPa 0,0 l/m 4,3 km/h (1 Bft) NO 55 0 min 0,000 mm 0,0 UV-I 87 W/m 10,5 C 11,1 C 6,4 km/h (2 Bft) 97,37 %
02.10.2017 10:26 11,1 C 13,3 C 96 % 1021,2 hPa 0,0 l/m 5,1 km/h (1 Bft) O-NO 62 0 min 0,000 mm 0,0 UV-I 89 W/m 10,5 C 11,1 C 8,0 km/h (2 Bft) 98,00 %
02.10.2017 10:28 11,1 C 13,3 C 96 % 1021,2 hPa 0,0 l/m 6,8 km/h (2 Bft) O-NO 67 0 min 0,000 mm 0,0 UV-I 89 W/m 10,5 C 10,8 C 8,0 km/h (2 Bft) 98,11 %
02.10.2017 10:30 11,1 C 13,3 C 96 % 1021,2 hPa 0,0 l/m 5,7 km/h (1 Bft) NO 55 0 min 0,000 mm 0,0 UV-I 95 W/m 10,5 C 11,1 C 9,7 km/h (2 Bft) 97,73 %
02.10.2017 10:32 11,1 C 13,3 C 96 % 1021,2 hPa 0,0 l/m 5,8 km/h (2 Bft) NO 53 0 min 0,000 mm 0,0 UV-I 93 W/m 10,5 C 11,1 C 8,0 km/h (2 Bft) 96,00 %
02.10.2017 10:34 11,2 C 13,3 C 96 % 1021,2 hPa 0,0 l/m 6,9 km/h (2 Bft) O-NO 69 0 min 0,000 mm 0,0 UV-I 92 W/m 10,6 C 10,9 C 9,7 km/h (2 Bft) 95,45 %
02.10.2017 10:36 11,1 C 13,3 C 96 % 1021,2 hPa 0,0 l/m 5,9 km/h (2 Bft) O-NO 58 0 min 0,000 mm 0,0 UV-I 94 W/m 10,5 C 11,1 C 8,0 km/h (2 Bft) 98,00 %
02.10.2017 10:38 11,1 C 13,3 C 96 % 1021,2 hPa 0,0 l/m 5,4 km/h (1 Bft) O-NO 57 0 min 0,000 mm 0,4 UV-I 101 W/m 10,5 C 11,1 C 6,4 km/h (2 Bft) 97,14 %
02.10.2017 10:40 11,2 C 13,3 C 96 % 1021,2 hPa 0,0 l/m 6,0 km/h (2 Bft) O-NO 59 0 min 0,000 mm 0,5 UV-I 110 W/m 10,6 C 11,2 C 9,7 km/h (2 Bft) 98,00 %
02.10.2017 10:42 11,2 C 13,3 C 96 % 1021,2 hPa 0,0 l/m 5,3 km/h (1 Bft) O-NO 78 0 min 0,000 mm 0,5 UV-I 113 W/m 10,6 C 11,2 C 8,0 km/h (2 Bft) 100,00 %
02.10.2017 10:44 11,2 C 13,3 C 96 % 1021,2 hPa 0,0 l/m 6,1 km/h (2 Bft) NO 45 0 min 0,000 mm 0,5 UV-I 115 W/m 10,6 C 11,2 C 8,0 km/h (2 Bft) 100,00 %
02.10.2017 10:46 11,2 C 13,3 C 96 % 1021,2 hPa 0,0 l/m 5,7 km/h (1 Bft) O-NO 63 0 min 0,000 mm 0,6 UV-I 121 W/m 10,6 C 11,2 C 8,0 km/h (2 Bft) 100,00 %
02.10.2017 10:48 11,2 C 13,3 C 96 % 1021,2 hPa 0,0 l/m 7,4 km/h (2 Bft) O-NO 69 0 min 0,000 mm 0,6 UV-I 124 W/m 10,6 C 10,5 C 9,7 km/h (2 Bft) 100,00 %
02.10.2017 10:50 11,2 C 13,3 C 95 % 1021,2 hPa 0,0 l/m 8,0 km/h (2 Bft) O-NO 57 0 min 0,000 mm 0,7 UV-I 139 W/m 10,4 C 10,1 C 9,7 km/h (2 Bft) 97,87 %
02.10.2017 10:52 11,2 C 13,3 C 96 % 1021,3 hPa 0,0 l/m 7,4 km/h (2 Bft) NO 50 0 min 0,000 mm 0,7 UV-I 151 W/m 10,6 C 10,5 C 9,7 km/h (2 Bft) 100,00 %
02.10.2017 10:54 11,3 C 13,3 C 96 % 1021,2 hPa 0,0 l/m 6,0 km/h (2 Bft) O-NO 74 0 min 0,000 mm 0,8 UV-I 162 W/m 10,7 C 11,3 C 11,3 km/h (2 Bft) 100,00 %
02.10.2017 10:56 11,2 C 13,3 C 95 % 1021,2 hPa 0,0 l/m 8,9 km/h (2 Bft) O-NO 66 0 min 0,000 mm 0,8 UV-I 175 W/m 10,4 C 9,6 C 14,5 km/h (3 Bft) 100,00 %
02.10.2017 10:58 11,2 C 13,3 C 95 % 1021,2 hPa 0,0 l/m 9,0 km/h (2 Bft) O-NO 60 0 min 0,000 mm 0,9 UV-I 188 W/m 10,4 C 9,5 C 14,5 km/h (3 Bft) 100,00 %
02.10.2017 11:00 11,2 C 13,3 C 95 % 1021,2 hPa 0,0 l/m 7,5 km/h (2 Bft) O-NO 63 0 min 0,051 mm 0,9 UV-I 185 W/m 10,4 C 10,4 C 9,7 km/h (2 Bft) 100,00 %
02.10.2017 11:02 11,3 C 13,3 C 95 % 1021,2 hPa 0,0 l/m 8,2 km/h (2 Bft) O-NO 57 0 min 0,000 mm 0,9 UV-I 176 W/m 10,5 C 10,1 C 11,3 km/h (2 Bft) 97,37 %
02.10.2017 11:04 11,3 C 13,3 C 95 % 1021,2 hPa 0,0 l/m 6,7 km/h (2 Bft) O-NO 61 0 min 0,000 mm 0,9 UV-I 183 W/m 10,5 C 11,1 C 8,0 km/h (2 Bft) 100,00 %
02.10.2017 11:06 11,3 C 13,3 C 95 % 1021,1 hPa 0,0 l/m 6,4 km/h (2 Bft) O-NO 63 0 min 0,000 mm 0,9 UV-I 187 W/m 10,5 C 11,3 C 8,0 km/h (2 Bft) 97,37 %
02.10.2017 11:08 11,4 C 13,3 C 95 % 1021,1 hPa 0,0 l/m 5,7 km/h (1 Bft) NO 51 0 min 0,000 mm 0,9 UV-I 186 W/m 10,6 C 11,4 C 8,0 km/h (2 Bft) 100,00 %
02.10.2017 11:10 11,4 C 13,3 C 95 % 1021,1 hPa 0,0 l/m 5,3 km/h (1 Bft) NO 54 0 min 0,000 mm 0,9 UV-I 187 W/m 10,6 C 11,4 C 6,4 km/h (2 Bft) 100,00 %
02.10.2017 11:12 11,5 C 13,3 C 95 % 1021,1 hPa 0,0 l/m 5,5 km/h (1 Bft) NO 43 0 min 0,000 mm 1,0 UV-I 196 W/m 10,7 C 11,5 C 8,0 km/h (2 Bft) 100,00 %
02.10.2017 11:14 11,6 C 13,3 C 95 % 1021,1 hPa 0,0 l/m 5,1 km/h (1 Bft) NO 37 0 min 0,000 mm 1,0 UV-I 212 W/m 10,8 C 11,6 C 8,0 km/h (2 Bft) 100,00 %
02.10.2017 11:16 11,7 C 13,3 C 95 % 1021,1 hPa 0,0 l/m 5,8 km/h (2 Bft) NO 49 0 min 0,000 mm 1,2 UV-I 234 W/m 10,9 C 11,7 C 8,0 km/h (2 Bft) 100,00 %
02.10.2017 11:18 11,7 C 13,3 C 95 % 1021,1 hPa 0,0 l/m 4,8 km/h (1 Bft) NO 36 0 min 0,000 mm 1,3 UV-I 249 W/m 10,9 C 11,7 C 6,4 km/h (2 Bft) 98,00 %
02.10.2017 11:20 11,9 C 13,3 C 95 % 1021,1 hPa 0,0 l/m 2,9 km/h (1 Bft) NO 34 0 min 0,000 mm 1,3 UV-I 244 W/m 11,1 C 11,9 C 6,4 km/h (2 Bft) 100,00 %
02.10.2017 11:22 12,1 C 13,3 C 95 % 1021,1 hPa 0,0 l/m 3,1 km/h (1 Bft) NO 41 0 min 0,000 mm 1,2 UV-I 239 W/m 11,3 C 12,1 C 6,4 km/h (2 Bft) 100,00 %
02.10.2017 11:24 12,1 C 13,3 C 94 % 1021,1 hPa 0,0 l/m 4,4 km/h (1 Bft) N-NO 18 0 min 0,000 mm 1,2 UV-I 236 W/m 11,2 C 12,1 C 8,0 km/h (2 Bft) 97,44 %
02.10.2017 11:26 12,1 C 13,3 C 94 % 1021,2 hPa 0,0 l/m 1,9 km/h (1 Bft) N-NO 24 0 min 0,000 mm 1,2 UV-I 236 W/m 11,2 C 12,1 C 4,8 km/h (1 Bft) 100,00 %
02.10.2017 11:28 12,1 C 13,3 C 93 % 1021,1 hPa 0,0 l/m 3,9 km/h (1 Bft) N-NO 26 0 min 0,000 mm 1,2 UV-I 235 W/m 11,0 C 12,1 C 6,4 km/h (2 Bft) 100,00 %
02.10.2017 11:30 12,2 C 13,3 C 93 % 1021,2 hPa 0,0 l/m 4,1 km/h (1 Bft) NO 53 0 min 0,000 mm 1,3 UV-I 244 W/m 11,1 C 12,2 C 6,4 km/h (2 Bft) 100,00 %
02.10.2017 11:32 12,2 C 13,3 C 93 % 1021,2 hPa 0,0 l/m 3,1 km/h (1 Bft) NO 48 0 min 0,000 mm 1,4 UV-I 267 W/m 11,1 C 12,2 C 4,8 km/h (1 Bft) 100,00 %
02.10.2017 11:34 12,3 C 13,3 C 93 % 1021,1 hPa 0,0 l/m 1,2 km/h (1 Bft) N 360 0 min 0,000 mm 1,5 UV-I 283 W/m 11,2 C 12,3 C 3,2 km/h (1 Bft) 100,00 %
02.10.2017 11:36 12,4 C 13,3 C 93 % 1021,1 hPa 0,0 l/m 2,8 km/h (1 Bft) N-NO 28 0 min 0,000 mm 1,5 UV-I 290 W/m 11,3 C 12,4 C 8,0 km/h (2 Bft) 100,00 %
02.10.2017 11:38 12,5 C 13,3 C 93 % 1021,0 hPa 0,0 l/m 4,1 km/h (1 Bft) N-NO 22 0 min 0,000 mm 1,6 UV-I 306 W/m 11,4 C 12,5 C 9,7 km/h (2 Bft) 98,00 %
02.10.2017 11:40 12,6 C 13,3 C 92 % 1021,0 hPa 0,0 l/m 4,9 km/h (1 Bft) N-NO 17 0 min 0,000 mm 1,6 UV-I 316 W/m 11,3 C 12,6 C 6,4 km/h (2 Bft) 100,00 %
02.10.2017 11:42 12,6 C 13,3 C 93 % 1021,0 hPa 0,0 l/m 5,5 km/h (1 Bft) NO 55 0 min 0,000 mm 1,6 UV-I 316 W/m 11,5 C 12,6 C 8,0 km/h (2 Bft) 100,00 %
02.10.2017 11:44 12,7 C 13,3 C 92 % 1021,0 hPa 0,0 l/m 6,5 km/h (2 Bft) O-NO 67 2 min 0,000 mm 1,7 UV-I 325 W/m 11,4 C 12,7 C 8,0 km/h (2 Bft) 97,56 %
02.10.2017 11:46 12,7 C 13,3 C 92 % 1021,0 hPa 0,0 l/m 6,2 km/h (2 Bft) NO 52 2 min 0,000 mm 1,8 UV-I 330 W/m 11,4 C 12,7 C 8,0 km/h (2 Bft) 100,00 %
02.10.2017 11:48 12,7 C 13,3 C 91 % 1021,0 hPa 0,0 l/m 3,8 km/h (1 Bft) NO 43 2 min 0,000 mm 1,8 UV-I 335 W/m 11,3 C 12,7 C 6,4 km/h (2 Bft) 100,00 %
02.10.2017 11:50 12,8 C 13,3 C 91 % 1021,0 hPa 0,0 l/m 6,2 km/h (2 Bft) N-NO 13 2 min 0,000 mm 1,8 UV-I 344 W/m 11,4 C 12,8 C 9,7 km/h (2 Bft) 97,37 %
02.10.2017 11:52 12,8 C 13,3 C 91 % 1021,0 hPa 0,0 l/m 2,1 km/h (1 Bft) N 11 2 min 0,000 mm 1,8 UV-I 346 W/m 11,4 C 12,8 C 4,8 km/h (1 Bft) 100,00 %
02.10.2017 11:54 12,9 C 13,3 C 91 % 1020,9 hPa 0,0 l/m 3,4 km/h (1 Bft) O-NO 62 2 min 0,000 mm 1,9 UV-I 377 W/m 11,5 C 12,9 C 8,0 km/h (2 Bft) 100,00 %
02.10.2017 11:56 13,0 C 13,3 C 91 % 1020,9 hPa 0,0 l/m 4,8 km/h (1 Bft) NO 46 2 min 0,000 mm 2,0 UV-I 394 W/m 11,6 C 13,0 C 8,0 km/h (2 Bft) 100,00 %
02.10.2017 11:58 13,1 C 13,3 C 91 % 1021,0 hPa 0,0 l/m 4,5 km/h (1 Bft) N-NO 24 2 min 0,000 mm 2,0 UV-I 370 W/m 11,7 C 13,1 C 6,4 km/h (2 Bft) 100,00 %
02.10.2017 12:00 13,2 C 13,3 C 90 % 1020,9 hPa 0,0 l/m 4,1 km/h (1 Bft) N-NO 27 2 min 0,127 mm 2,0 UV-I 376 W/m 11,6 C 13,2 C 6,4 km/h (2 Bft) 100,00 %
02.10.2017 12:03 13,3 C 13,3 C 91 % 1020,9 hPa 0,0 l/m 1,6 km/h (1 Bft) N 5 3 min 0,000 mm 2,1 UV-I 385 W/m 11,9 C 13,3 C 3,2 km/h (1 Bft) 100,00 %
02.10.2017 12:04 13,4 C 13,3 C 90 % 1020,9 hPa 0,0 l/m 2,6 km/h (1 Bft) N 9 1 min 0,000 mm 2,2 UV-I 416 W/m 11,8 C 13,4 C 4,8 km/h (1 Bft) 100,00 %
02.10.2017 12:06 13,4 C 13,3 C 89 % 1020,8 hPa 0,0 l/m 1,7 km/h (1 Bft) N 360 2 min 0,000 mm 2,2 UV-I 416 W/m 11,6 C 13,4 C 3,2 km/h (1 Bft) 97,92 %
02.10.2017 12:08 13,4 C 13,3 C 89 % 1020,8 hPa 0,0 l/m 2,4 km/h (1 Bft) NO 53 2 min 0,000 mm 2,1 UV-I 411 W/m 11,6 C 13,4 C 4,8 km/h (1 Bft) 97,73 %
02.10.2017 12:10 13,4 C 13,3 C 89 % 1020,9 hPa 0,0 l/m 8,0 km/h (2 Bft) N-NO 21 2 min 0,000 mm 2,1 UV-I 391 W/m 11,6 C 12,4 C 12,9 km/h (3 Bft) 97,73 %
02.10.2017 12:12 13,4 C 13,3 C 89 % 1020,8 hPa 0,0 l/m 6,3 km/h (2 Bft) NO 49 2 min 0,000 mm 2,1 UV-I 380 W/m 11,6 C 13,4 C 9,7 km/h (2 Bft) 98,11 %
02.10.2017 12:14 13,5 C 13,3 C 87 % 1020,8 hPa 0,0 l/m 4,0 km/h (1 Bft) NO 55 2 min 0,000 mm 2,1 UV-I 374 W/m 11,4 C 13,5 C 6,4 km/h (2 Bft) 98,00 %
02.10.2017 12:16 13,7 C 13,3 C 89 % 1020,8 hPa 0,0 l/m 4,0 km/h (1 Bft) NO 50 2 min 0,000 mm 2,1 UV-I 383 W/m 11,9 C 13,7 C 8,0 km/h (2 Bft) 97,56 %
02.10.2017 12:18 13,7 C 13,3 C 88 % 1020,8 hPa 0,0 l/m 2,2 km/h (1 Bft) NO 38 2 min 0,000 mm 2,2 UV-I 412 W/m 11,7 C 13,7 C 4,8 km/h (1 Bft) 97,87 %
02.10.2017 12:20 13,9 C 13,3 C 88 % 1020,8 hPa 0,0 l/m 3,5 km/h (1 Bft) NO 46 2 min 0,000 mm 2,2 UV-I 399 W/m 11,9 C 13,9 C 8,0 km/h (2 Bft) 96,00 %
02.10.2017 12:22 13,9 C 13,3 C 87 % 1020,7 hPa 0,0 l/m 2,2 km/h (1 Bft) N-NO 15 2 min 0,000 mm 2,2 UV-I 404 W/m 11,8 C 13,9 C 6,4 km/h (2 Bft) 97,73 %
02.10.2017 12:24 13,9 C 13,3 C 87 % 1020,7 hPa 0,0 l/m 5,9 km/h (2 Bft) N-NO 32 2 min 0,000 mm 2,2 UV-I 394 W/m 11,8 C 13,9 C 11,3 km/h (2 Bft) 98,00 %
02.10.2017 12:26 13,9 C 13,3 C 86 % 1020,8 hPa 0,0 l/m 5,4 km/h (1 Bft) N-NO 24 2 min 0,000 mm 2,1 UV-I 386 W/m 11,6 C 13,9 C 8,0 km/h (2 Bft) 98,00 %
02.10.2017 12:28 13,9 C 13,3 C 87 % 1020,7 hPa 0,0 l/m 4,5 km/h (1 Bft) N-NO 28 2 min 0,000 mm 2,0 UV-I 376 W/m 11,8 C 13,9 C 6,4 km/h (2 Bft) 97,37 %
02.10.2017 12:30 13,8 C 13,3 C 86 % 1020,7 hPa 0,0 l/m 5,2 km/h (1 Bft) NO 34 2 min 0,000 mm 2,0 UV-I 355 W/m 11,5 C 13,8 C 9,7 km/h (2 Bft) 98,21 %
02.10.2017 12:32 13,8 C 13,3 C 87 % 1020,7 hPa 0,0 l/m 4,0 km/h (1 Bft) N-NO 18 2 min 0,000 mm 2,0 UV-I 386 W/m 11,7 C 13,8 C 6,4 km/h (2 Bft) 97,37 %
02.10.2017 12:34 13,9 C 13,3 C 86 % 1020,7 hPa 0,0 l/m 2,7 km/h (1 Bft) N-NW 347 2 min 0,000 mm 2,0 UV-I 405 W/m 11,6 C 13,9 C 6,4 km/h (2 Bft) 98,00 %
02.10.2017 12:36 13,8 C 13,3 C 86 % 1020,7 hPa 0,0 l/m 1,4 km/h (1 Bft) N-NW 327 0 min 0,000 mm 1,9 UV-I 279 W/m 11,5 C 13,8 C 3,2 km/h (1 Bft) 95,45 %
02.10.2017 12:38 13,8 C 13,3 C 86 % 1020,7 hPa 0,0 l/m 2,4 km/h (1 Bft) N-NO 28 0 min 0,000 mm 2,0 UV-I 250 W/m 11,5 C 13,8 C 4,8 km/h (1 Bft) 100,00 %
02.10.2017 12:40 13,8 C 13,3 C 85 % 1020,6 hPa 0,0 l/m 4,3 km/h (1 Bft) NO 43 0 min 0,000 mm 2,0 UV-I 223 W/m 11,3 C 13,8 C 6,4 km/h (2 Bft) 100,00 %
02.10.2017 12:42 13,8 C 13,3 C 85 % 1020,6 hPa 0,0 l/m 1,2 km/h (1 Bft) NO 43 0 min 0,000 mm 2,0 UV-I 234 W/m 11,3 C 13,8 C 3,2 km/h (1 Bft) 97,56 %
02.10.2017 12:44 13,8 C 13,3 C 86 % 1020,6 hPa 0,0 l/m 1,8 km/h (1 Bft) NO 47 0 min 0,000 mm 2,0 UV-I 231 W/m 11,5 C 13,8 C 8,0 km/h (2 Bft) 100,00 %
02.10.2017 12:46 13,9 C 13,3 C 86 % 1020,6 hPa 0,0 l/m 5,4 km/h (1 Bft) NO 52 0 min 0,000 mm 2,1 UV-I 235 W/m 11,6 C 13,9 C 6,4 km/h (2 Bft) 100,00 %
02.10.2017 12:48 13,8 C 13,3 C 85 % 1020,6 hPa 0,0 l/m 5,0 km/h (1 Bft) NO 46 0 min 0,000 mm 2,0 UV-I 219 W/m 11,3 C 13,8 C 6,4 km/h (2 Bft) 100,00 %
02.10.2017 12:50 13,8 C 13,3 C 85 % 1020,6 hPa 0,0 l/m 2,2 km/h (1 Bft) NO 46 0 min 0,000 mm 2,0 UV-I 216 W/m 11,3 C 13,8 C 4,8 km/h (1 Bft) 100,00 %
02.10.2017 12:52 13,8 C 13,3 C 84 % 1020,6 hPa 0,0 l/m 3,4 km/h (1 Bft) O 84 0 min 0,000 mm 2,4 UV-I 218 W/m 11,1 C 13,8 C 6,4 km/h (2 Bft) 100,00 %
02.10.2017 12:54 13,8 C 13,3 C 84 % 1020,6 hPa 0,0 l/m 1,8 km/h (1 Bft) O 84 2 min 0,000 mm 2,4 UV-I 375 W/m 11,1 C 13,8 C 3,2 km/h (1 Bft) 100,00 %
02.10.2017 12:56 13,9 C 13,3 C 85 % 1020,5 hPa 0,0 l/m 1,4 km/h (1 Bft) N-NO 23 2 min 0,000 mm 2,7 UV-I 565 W/m 11,4 C 13,9 C 4,8 km/h (1 Bft) 100,00 %
02.10.2017 12:58 14,2 C 13,3 C 87 % 1020,4 hPa 0,0 l/m 6,2 km/h (2 Bft) NO 40 2 min 0,000 mm 2,6 UV-I 582 W/m 12,1 C 14,2 C 8,0 km/h (2 Bft) 100,00 %
02.10.2017 13:00 14,5 C 13,3 C 86 % 1020,4 hPa 0,0 l/m 2,3 km/h (1 Bft) NO 44 2 min 0,203 mm 2,9 UV-I 639 W/m 12,2 C 14,5 C 6,4 km/h (2 Bft) 100,00 %
02.10.2017 13:02 14,7 C 13,3 C 84 % 1020,4 hPa 0,0 l/m 4,8 km/h (1 Bft) NO 38 2 min 0,000 mm 2,6 UV-I 645 W/m 12,0 C 14,7 C 6,4 km/h (2 Bft) 100,00 %
02.10.2017 13:04 14,6 C 13,3 C 83 % 1020,4 hPa 0,0 l/m 3,3 km/h (1 Bft) NO 38 2 min 0,000 mm 2,3 UV-I 592 W/m 11,7 C 14,6 C 6,4 km/h (2 Bft) 100,00 %
02.10.2017 13:06 14,6 C 13,3 C 83 % 1020,4 hPa 0,0 l/m 4,2 km/h (1 Bft) NO 36 2 min 0,000 mm 2,4 UV-I 554 W/m 11,7 C 14,6 C 8,0 km/h (2 Bft) 100,00 %
02.10.2017 13:08 14,7 C 13,3 C 84 % 1020,3 hPa 0,0 l/m 2,4 km/h (1 Bft) N-NO 21 2 min 0,000 mm 2,9 UV-I 606 W/m 12,0 C 14,7 C 4,8 km/h (1 Bft) 100,00 %
02.10.2017 13:10 14,7 C 13,3 C 83 % 1020,3 hPa 0,0 l/m 3,0 km/h (1 Bft) N-NO 19 2 min 0,000 mm 2,8 UV-I 591 W/m 11,8 C 14,7 C 6,4 km/h (2 Bft) 100,00 %
02.10.2017 13:12 14,7 C 13,3 C 81 % 1020,3 hPa 0,0 l/m 1,3 km/h (1 Bft) N-NO 19 2 min 0,000 mm 2,6 UV-I 522 W/m 11,5 C 14,7 C 3,2 km/h (1 Bft) 97,73 %
02.10.2017 13:14 14,7 C 13,3 C 84 % 1020,1 hPa 0,0 l/m 2,5 km/h (1 Bft) NO 39 2 min 0,000 mm 2,7 UV-I 466 W/m 12,0 C 14,7 C 6,4 km/h (2 Bft) 100,00 %
02.10.2017 13:16 14,7 C 13,3 C 82 % 1020,1 hPa 0,0 l/m 2,9 km/h (1 Bft) NO 38 2 min 0,000 mm 2,5 UV-I 470 W/m 11,7 C 14,7 C 4,8 km/h (1 Bft) 100,00 %
02.10.2017 13:18 14,6 C 13,3 C 82 % 1020,0 hPa 0,0 l/m 3,4 km/h (1 Bft) NO 38 0 min 0,000 mm 2,5 UV-I 310 W/m 11,6 C 14,6 C 4,8 km/h (1 Bft) 97,87 %
02.10.2017 13:20 14,6 C 13,3 C 83 % 1020,0 hPa 0,0 l/m 2,6 km/h (1 Bft) NO 38 2 min 0,000 mm 2,6 UV-I 473 W/m 11,7 C 14,6 C 4,8 km/h (1 Bft) 100,00 %
02.10.2017 13:22 14,6 C 13,3 C 82 % 1020,0 hPa 0,0 l/m 1,0 km/h (0 Bft) NO 38 2 min 0,000 mm 2,5 UV-I 469 W/m 11,6 C 14,6 C 3,2 km/h (1 Bft) 100,00 %
02.10.2017 13:24 14,8 C 13,3 C 83 % 1020,0 hPa 0,0 l/m 0,0 km/h (0 Bft) NO 38 2 min 0,000 mm 2,9 UV-I 539 W/m 11,9 C 14,8 C 0,0 km/h (0 Bft) 100,00 %
02.10.2017 13:26 14,9 C 13,3 C 83 % 1019,9 hPa 0,0 l/m 4,0 km/h (1 Bft) N-NO 19 2 min 0,000 mm 3,0 UV-I 577 W/m 12,0 C 14,9 C 6,4 km/h (2 Bft) 98,00 %
02.10.2017 13:28 15,2 C 13,3 C 85 % 1019,9 hPa 0,0 l/m 3,4 km/h (1 Bft) N-NO 29 2 min 0,000 mm 3,1 UV-I 636 W/m 12,7 C 15,2 C 6,4 km/h (2 Bft) 100,00 %
02.10.2017 13:30 15,4 C 13,3 C 82 % 1019,9 hPa 0,0 l/m 5,2 km/h (1 Bft) NO 36 2 min 0,000 mm 3,0 UV-I 648 W/m 12,3 C 15,4 C 8,0 km/h (2 Bft) 100,00 %
02.10.2017 13:32 15,3 C 13,3 C 80 % 1019,9 hPa 0,0 l/m 2,6 km/h (1 Bft) NO 34 2 min 0,000 mm 2,5 UV-I 642 W/m 11,9 C 15,3 C 4,8 km/h (1 Bft) 100,00 %
02.10.2017 13:34 15,2 C 13,3 C 81 % 1019,8 hPa 0,0 l/m 1,5 km/h (1 Bft) NO 34 0 min 0,000 mm 2,5 UV-I 239 W/m 12,0 C 15,2 C 3,2 km/h (1 Bft) 100,00 %
02.10.2017 13:36 15,2 C 13,3 C 81 % 1019,9 hPa 0,0 l/m 2,2 km/h (1 Bft) NO 34 0 min 0,000 mm 2,5 UV-I 202 W/m 12,0 C 15,2 C 4,8 km/h (1 Bft) 100,00 %
02.10.2017 13:38 15,1 C 13,3 C 81 % 1019,8 hPa 0,0 l/m 3,2 km/h (1 Bft) N-NO 23 0 min 0,000 mm 2,4 UV-I 267 W/m 11,9 C 15,1 C 6,4 km/h (2 Bft) 98,11 %
02.10.2017 13:40 15,1 C 13,3 C 82 % 1019,8 hPa 0,0 l/m 5,0 km/h (1 Bft) NO 48 2 min 0,000 mm 2,8 UV-I 474 W/m 12,0 C 15,1 C 6,4 km/h (2 Bft) 100,00 %
02.10.2017 13:42 15,3 C 13,3 C 83 % 1019,8 hPa 0,0 l/m 4,8 km/h (1 Bft) N-NO 32 2 min 0,000 mm 2,7 UV-I 546 W/m 12,4 C 15,3 C 6,4 km/h (2 Bft) 100,00 %
02.10.2017 13:44 15,4 C 13,3 C 82 % 1019,7 hPa 0,0 l/m 7,1 km/h (2 Bft) O-NO 71 2 min 0,000 mm 2,9 UV-I 526 W/m 12,3 C 15,0 C 9,7 km/h (2 Bft) 97,73 %
02.10.2017 13:46 15,4 C 13,3 C 79 % 1019,7 hPa 0,0 l/m 3,5 km/h (1 Bft) O-NO 70 2 min 0,000 mm 2,9 UV-I 634 W/m 11,8 C 15,4 C 8,0 km/h (2 Bft) 100,00 %
02.10.2017 13:48 15,4 C 13,3 C 80 % 1019,7 hPa 0,0 l/m 6,5 km/h (2 Bft) N 5 2 min 0,000 mm 2,8 UV-I 561 W/m 12,0 C 15,4 C 11,3 km/h (2 Bft) 98,21 %
02.10.2017 13:50 15,6 C 13,3 C 81 % 1019,7 hPa 0,0 l/m 3,0 km/h (1 Bft) N-NO 26 2 min 0,000 mm 2,7 UV-I 536 W/m 12,3 C 15,6 C 6,4 km/h (2 Bft) 100,00 %
02.10.2017 13:52 15,7 C 13,3 C 81 % 1019,6 hPa 0,0 l/m 5,4 km/h (1 Bft) N-NO 20 2 min 0,000 mm 2,5 UV-I 509 W/m 12,4 C 15,7 C 9,7 km/h (2 Bft) 100,00 %
02.10.2017 13:54 15,6 C 13,3 C 80 % 1019,6 hPa 0,0 l/m 3,9 km/h (1 Bft) N 349 2 min 0,000 mm 2,8 UV-I 480 W/m 12,2 C 15,6 C 11,3 km/h (2 Bft) 98,11 %
02.10.2017 13:56 15,7 C 13,3 C 80 % 1019,6 hPa 0,0 l/m 6,2 km/h (2 Bft) N 5 2 min 0,000 mm 2,8 UV-I 565 W/m 12,3 C 15,7 C 9,7 km/h (2 Bft) 97,37 %
02.10.2017 13:58 15,8 C 13,3 C 82 % 1019,6 hPa 0,0 l/m 6,0 km/h (2 Bft) N-NO 19 2 min 0,000 mm 2,8 UV-I 594 W/m 12,7 C 15,8 C 11,3 km/h (2 Bft) 98,11 %
02.10.2017 14:00 15,9 C 13,3 C 82 % 1019,6 hPa 0,0 l/m 4,0 km/h (1 Bft) N-NO 30 2 min 0,280 mm 2,8 UV-I 588 W/m 12,8 C 15,9 C 6,4 km/h (2 Bft) 97,62 %
02.10.2017 14:02 15,9 C 13,3 C 78 % 1019,5 hPa 0,0 l/m 3,3 km/h (1 Bft) N-NO 27 2 min 0,000 mm 2,8 UV-I 574 W/m 12,1 C 15,9 C 6,4 km/h (2 Bft) 96,15 %
02.10.2017 14:04 15,8 C 13,3 C 78 % 1019,5 hPa 0,0 l/m 4,0 km/h (1 Bft) N-NW 336 2 min 0,000 mm 2,8 UV-I 554 W/m 12,0 C 15,8 C 6,4 km/h (2 Bft) 96,08 %
02.10.2017 14:06 15,8 C 13,3 C 79 % 1019,5 hPa 0,0 l/m 4,2 km/h (1 Bft) NO 56 2 min 0,000 mm 2,8 UV-I 585 W/m 12,2 C 15,8 C 9,7 km/h (2 Bft) 94,29 %
02.10.2017 14:08 15,9 C 13,3 C 80 % 1019,4 hPa 0,0 l/m 5,8 km/h (2 Bft) O-NO 76 2 min 0,000 mm 2,8 UV-I 589 W/m 12,5 C 15,9 C 8,0 km/h (2 Bft) 98,21 %
02.10.2017 14:10 16,0 C 13,3 C 78 % 1019,4 hPa 0,0 l/m 5,2 km/h (1 Bft) NO 34 2 min 0,000 mm 2,7 UV-I 589 W/m 12,2 C 16,0 C 8,0 km/h (2 Bft) 97,14 %
02.10.2017 14:12 16,1 C 13,3 C 78 % 1019,4 hPa 0,0 l/m 3,3 km/h (1 Bft) NO 36 2 min 0,000 mm 2,7 UV-I 589 W/m 12,3 C 16,1 C 8,0 km/h (2 Bft) 98,21 %
02.10.2017 14:14 16,1 C 13,3 C 79 % 1019,4 hPa 0,0 l/m 0,7 km/h (0 Bft) NO 38 2 min 0,000 mm 2,7 UV-I 585 W/m 12,5 C 16,1 C 4,8 km/h (1 Bft) 97,87 %
02.10.2017 14:16 16,2 C 13,3 C 79 % 1019,3 hPa 0,0 l/m 6,5 km/h (2 Bft) NO 38 2 min 0,000 mm 2,7 UV-I 581 W/m 12,6 C 16,2 C 11,3 km/h (2 Bft) 93,62 %
02.10.2017 14:18 16,3 C 13,3 C 78 % 1019,3 hPa 0,0 l/m 6,9 km/h (2 Bft) NO 49 2 min 0,000 mm 2,7 UV-I 576 W/m 12,5 C 16,0 C 12,9 km/h (3 Bft) 96,00 %
02.10.2017 14:20 16,4 C 13,3 C 78 % 1019,3 hPa 0,0 l/m 4,4 km/h (1 Bft) N-NO 20 2 min 0,000 mm 2,6 UV-I 575 W/m 12,6 C 16,4 C 11,3 km/h (2 Bft) 100,00 %
02.10.2017 14:22 16,3 C 13,3 C 77 % 1019,2 hPa 0,0 l/m 6,1 km/h (2 Bft) NO 47 2 min 0,000 mm 2,6 UV-I 571 W/m 12,3 C 16,3 C 14,5 km/h (3 Bft) 95,74 %
02.10.2017 14:24 16,4 C 13,3 C 78 % 1019,1 hPa 0,0 l/m 4,4 km/h (1 Bft) O-NO 70 2 min 0,000 mm 2,6 UV-I 565 W/m 12,6 C 16,4 C 8,0 km/h (2 Bft) 98,00 %
02.10.2017 14:26 16,4 C 13,3 C 78 % 1019,1 hPa 0,0 l/m 5,9 km/h (2 Bft) O 79 2 min 0,000 mm 2,6 UV-I 563 W/m 12,6 C 16,4 C 8,0 km/h (2 Bft) 100,00 %
02.10.2017 14:28 16,6 C 13,3 C 77 % 1019,1 hPa 0,0 l/m 6,4 km/h (2 Bft) O-NO 63 2 min 0,000 mm 2,5 UV-I 556 W/m 12,5 C 16,6 C 12,9 km/h (3 Bft) 98,00 %
02.10.2017 14:30 16,6 C 13,3 C 77 % 1019,1 hPa 0,0 l/m 2,8 km/h (1 Bft) O-NO 71 2 min 0,000 mm 2,5 UV-I 557 W/m 12,5 C 16,6 C 8,0 km/h (2 Bft) 100,00 %
02.10.2017 14:32 16,7 C 13,3 C 75 % 1019,0 hPa 0,0 l/m 6,4 km/h (2 Bft) O 87 2 min 0,000 mm 2,5 UV-I 548 W/m 12,2 C 16,7 C 9,7 km/h (2 Bft) 97,56 %
02.10.2017 14:34 16,6 C 13,3 C 75 % 1019,0 hPa 0,0 l/m 4,0 km/h (1 Bft) NO 44 2 min 0,000 mm 2,5 UV-I 556 W/m 12,1 C 16,6 C 8,0 km/h (2 Bft) 100,00 %
02.10.2017 14:36 16,6 C 13,3 C 76 % 1019,0 hPa 0,0 l/m 1,0 km/h (0 Bft) NO 42 2 min 0,000 mm 2,5 UV-I 551 W/m 12,3 C 16,6 C 3,2 km/h (1 Bft) 100,00 %
02.10.2017 14:38 16,8 C 13,3 C 76 % 1018,9 hPa 0,0 l/m 4,1 km/h (1 Bft) O-NO 59 2 min 0,000 mm 2,5 UV-I 561 W/m 12,5 C 16,8 C 8,0 km/h (2 Bft) 98,00 %
02.10.2017 14:40 16,8 C 13,3 C 74 % 1018,9 hPa 0,0 l/m 4,2 km/h (1 Bft) N-NO 16 2 min 0,000 mm 2,5 UV-I 559 W/m 12,1 C 16,8 C 11,3 km/h (2 Bft) 100,00 %
02.10.2017 14:42 16,9 C 13,3 C 75 % 1019,0 hPa 0,0 l/m 3,9 km/h (1 Bft) O-NO 69 2 min 0,000 mm 2,4 UV-I 528 W/m 12,4 C 16,9 C 9,7 km/h (2 Bft) 100,00 %
02.10.2017 14:44 16,9 C 13,3 C 77 % 1018,9 hPa 0,0 l/m 1,8 km/h (1 Bft) N-NO 31 2 min 0,000 mm 2,3 UV-I 518 W/m 12,8 C 16,9 C 4,8 km/h (1 Bft) 100,00 %
02.10.2017 14:46 16,9 C 13,3 C 77 % 1018,9 hPa 0,0 l/m 6,6 km/h (2 Bft) NO 50 2 min 0,000 mm 2,2 UV-I 506 W/m 12,8 C 16,8 C 9,7 km/h (2 Bft) 100,00 %
02.10.2017 14:48 17,0 C 13,3 C 75 % 1018,9 hPa 0,0 l/m 7,0 km/h (2 Bft) NO 35 2 min 0,000 mm 2,1 UV-I 456 W/m 12,5 C 16,7 C 11,3 km/h (2 Bft) 97,56 %
02.10.2017 14:50 16,9 C 13,3 C 76 % 1018,9 hPa 0,0 l/m 3,4 km/h (1 Bft) O 92 2 min 0,000 mm 2,2 UV-I 492 W/m 12,6 C 16,9 C 6,4 km/h (2 Bft) 100,00 %
02.10.2017 14:52 16,9 C 13,3 C 75 % 1018,8 hPa 0,0 l/m 6,4 km/h (2 Bft) O-NO 72 2 min 0,000 mm 2,2 UV-I 522 W/m 12,4 C 16,9 C 9,7 km/h (2 Bft) 97,87 %
02.10.2017 14:54 16,8 C 13,3 C 75 % 1018,7 hPa 0,0 l/m 5,0 km/h (1 Bft) NO 56 2 min 0,000 mm 2,2 UV-I 503 W/m 12,3 C 16,8 C 6,4 km/h (2 Bft) 100,00 %
02.10.2017 14:56 16,8 C 13,3 C 76 % 1018,7 hPa 0,0 l/m 5,4 km/h (1 Bft) O-NO 69 2 min 0,000 mm 2,2 UV-I 518 W/m 12,5 C 16,8 C 8,0 km/h (2 Bft) 100,00 %
02.10.2017 14:58 16,9 C 13,3 C 75 % 1018,7 hPa 0,0 l/m 4,6 km/h (1 Bft) O 89 2 min 0,000 mm 2,1 UV-I 512 W/m 12,4 C 16,9 C 9,7 km/h (2 Bft) 100,00 %
02.10.2017 15:00 16,9 C 13,3 C 74 % 1018,6 hPa 0,0 l/m 5,1 km/h (1 Bft) O 83 2 min 0,000 mm 2,1 UV-I 495 W/m 12,2 C 16,9 C 8,0 km/h (2 Bft) 100,00 %
02.10.2017 15:02 16,9 C 13,3 C 73 % 1018,6 hPa 0,0 l/m 3,7 km/h (1 Bft) O 84 2 min 0,304 mm 2,0 UV-I 478 W/m 12,0 C 16,9 C 6,4 km/h (2 Bft) 100,00 %
02.10.2017 15:04 16,9 C 13,3 C 73 % 1018,6 hPa 0,0 l/m 3,3 km/h (1 Bft) O 101 2 min 0,000 mm 2,0 UV-I 477 W/m 12,0 C 16,9 C 4,8 km/h (1 Bft) 100,00 %
02.10.2017 15:06 17,0 C 13,3 C 74 % 1018,6 hPa 0,0 l/m 1,8 km/h (1 Bft) O 101 2 min 0,000 mm 2,0 UV-I 496 W/m 12,3 C 17,0 C 3,2 km/h (1 Bft) 98,00 %
02.10.2017 15:08 17,2 C 13,3 C 77 % 1018,5 hPa 0,0 l/m 1,0 km/h (0 Bft) N-NO 12 2 min 0,000 mm 2,0 UV-I 506 W/m 13,1 C 17,2 C 4,8 km/h (1 Bft) 100,00 %
02.10.2017 15:10 17,3 C 13,3 C 76 % 1018,5 hPa 0,0 l/m 5,9 km/h (2 Bft) O 84 2 min 0,000 mm 2,0 UV-I 492 W/m 13,0 C 17,3 C 8,0 km/h (2 Bft) 95,12 %
02.10.2017 15:12 17,4 C 13,3 C 73 % 1018,5 hPa 0,0 l/m 9,2 km/h (2 Bft) O-NO 68 2 min 0,000 mm 2,0 UV-I 497 W/m 12,5 C 16,1 C 14,5 km/h (3 Bft) 96,00 %
02.10.2017 15:14 17,4 C 13,3 C 72 % 1018,5 hPa 0,0 l/m 5,9 km/h (2 Bft) NO 53 2 min 0,000 mm 1,9 UV-I 475 W/m 12,3 C 17,4 C 8,0 km/h (2 Bft) 97,87 %
02.10.2017 15:16 17,4 C 13,3 C 73 % 1018,5 hPa 0,0 l/m 3,5 km/h (1 Bft) O-NO 62 2 min 0,000 mm 1,9 UV-I 465 W/m 12,5 C 17,4 C 8,0 km/h (2 Bft) 97,44 %
02.10.2017 15:18 17,3 C 13,3 C 73 % 1018,4 hPa 0,0 l/m 3,9 km/h (1 Bft) O-NO 65 2 min 0,000 mm 1,8 UV-I 410 W/m 12,4 C 17,3 C 6,4 km/h (2 Bft) 98,11 %
02.10.2017 15:20 17,4 C 13,3 C 74 % 1018,4 hPa 0,0 l/m 5,1 km/h (1 Bft) O-NO 59 2 min 0,000 mm 1,7 UV-I 410 W/m 12,7 C 17,4 C 8,0 km/h (2 Bft) 98,18 %
02.10.2017 15:22 17,4 C 13,3 C 73 % 1018,3 hPa 0,0 l/m 5,2 km/h (1 Bft) O-NO 61 2 min 0,000 mm 1,7 UV-I 420 W/m 12,5 C 17,4 C 6,4 km/h (2 Bft) 97,44 %
02.10.2017 15:24 17,4 C 13,3 C 73 % 1018,4 hPa 0,0 l/m 7,3 km/h (2 Bft) O-NO 68 2 min 0,000 mm 1,6 UV-I 399 W/m 12,5 C 17,0 C 12,9 km/h (3 Bft) 95,45 %
02.10.2017 15:26 17,4 C 13,3 C 72 % 1018,3 hPa 0,0 l/m 4,2 km/h (1 Bft) NO 38 2 min 0,000 mm 1,6 UV-I 366 W/m 12,3 C 17,4 C 8,0 km/h (2 Bft) 98,11 %
02.10.2017 15:28 17,3 C 13,3 C 73 % 1018,2 hPa 0,0 l/m 4,0 km/h (1 Bft) NO 53 2 min 0,000 mm 1,6 UV-I 376 W/m 12,4 C 17,3 C 6,4 km/h (2 Bft) 96,00 %
02.10.2017 15:30 17,3 C 13,3 C 75 % 1018,2 hPa 0,0 l/m 3,9 km/h (1 Bft) NO 34 2 min 0,000 mm 1,6 UV-I 400 W/m 12,8 C 17,3 C 6,4 km/h (2 Bft) 96,00 %
02.10.2017 15:32 17,3 C 13,3 C 74 % 1018,2 hPa 0,0 l/m 4,1 km/h (1 Bft) N-NO 26 2 min 0,000 mm 1,6 UV-I 421 W/m 12,6 C 17,3 C 6,4 km/h (2 Bft) 100,00 %
02.10.2017 15:34 17,3 C 13,3 C 74 % 1018,2 hPa 0,0 l/m 4,4 km/h (1 Bft) NO 38 2 min 0,000 mm 1,4 UV-I 386 W/m 12,6 C 17,3 C 8,0 km/h (2 Bft) 97,37 %
02.10.2017 15:36 17,3 C 13,3 C 74 % 1018,1 hPa 0,0 l/m 5,3 km/h (1 Bft) O-NO 71 2 min 0,000 mm 1,4 UV-I 347 W/m 12,6 C 17,3 C 8,0 km/h (2 Bft) 96,23 %
02.10.2017 15:38 17,3 C 13,3 C 73 % 1018,1 hPa 0,0 l/m 4,9 km/h (1 Bft) NO 44 2 min 0,000 mm 1,3 UV-I 329 W/m 12,4 C 17,3 C 9,7 km/h (2 Bft) 96,00 %
02.10.2017 15:40 17,4 C 13,3 C 73 % 1018,0 hPa 0,0 l/m 6,2 km/h (2 Bft) O-NO 63 2 min 0,000 mm 1,3 UV-I 328 W/m 12,5 C 17,4 C 9,7 km/h (2 Bft) 97,73 %
02.10.2017 15:42 17,4 C 13,3 C 73 % 1018,0 hPa 0,0 l/m 3,6 km/h (1 Bft) O 79 2 min 0,000 mm 1,3 UV-I 322 W/m 12,5 C 17,4 C 6,4 km/h (2 Bft) 98,00 %
02.10.2017 15:44 17,4 C 13,3 C 74 % 1018,0 hPa 0,0 l/m 6,1 km/h (2 Bft) O-NO 63 2 min 0,000 mm 1,2 UV-I 284 W/m 12,7 C 17,4 C 9,7 km/h (2 Bft) 98,00 %
02.10.2017 15:46 17,3 C 13,3 C 73 % 1017,9 hPa 0,0 l/m 7,1 km/h (2 Bft) NO 49 0 min 0,000 mm 1,1 UV-I 230 W/m 12,4 C 17,0 C 9,7 km/h (2 Bft) 95,12 %
02.10.2017 15:48 17,3 C 13,3 C 73 % 1018,0 hPa 0,0 l/m 6,1 km/h (2 Bft) O-NO 62 0 min 0,000 mm 1,1 UV-I 194 W/m 12,4 C 17,3 C 8,0 km/h (2 Bft) 94,64 %
02.10.2017 15:50 17,2 C 13,3 C 74 % 1017,9 hPa 0,0 l/m 6,4 km/h (2 Bft) N-NO 26 0 min 0,000 mm 1,1 UV-I 203 W/m 12,5 C 17,2 C 9,7 km/h (2 Bft) 94,74 %
02.10.2017 15:52 17,1 C 13,3 C 74 % 1018,0 hPa 0,0 l/m 3,6 km/h (1 Bft) NO 49 2 min 0,000 mm 1,1 UV-I 246 W/m 12,4 C 17,1 C 6,4 km/h (2 Bft) 96,00 %
02.10.2017 15:54 17,0 C 13,3 C 76 % 1017,9 hPa 0,0 l/m 4,8 km/h (1 Bft) N-NO 27 2 min 0,000 mm 1,1 UV-I 284 W/m 12,7 C 17,0 C 11,3 km/h (2 Bft) 96,30 %
02.10.2017 15:56 17,0 C 13,3 C 75 % 1017,9 hPa 0,0 l/m 5,9 km/h (2 Bft) NO 46 2 min 0,000 mm 1,1 UV-I 316 W/m 12,5 C 17,0 C 8,0 km/h (2 Bft) 94,03 %
02.10.2017 15:58 17,1 C 13,3 C 75 % 1017,8 hPa 0,0 l/m 5,5 km/h (1 Bft) O-NO 73 2 min 0,000 mm 1,1 UV-I 347 W/m 12,6 C 17,1 C 8,0 km/h (2 Bft) 96,00 %
02.10.2017 16:00 17,2 C 13,3 C 76 % 1017,8 hPa 0,0 l/m 5,5 km/h (1 Bft) NO 39 2 min 0,000 mm 1,1 UV-I 315 W/m 12,9 C 17,2 C 9,7 km/h (2 Bft) 93,33 %
02.10.2017 16:02 17,3 C 13,3 C 74 % 1017,7 hPa 0,0 l/m 5,6 km/h (1 Bft) O-NO 58 2 min 0,229 mm 1,1 UV-I 320 W/m 12,6 C 17,3 C 8,0 km/h (2 Bft) 94,00 %
02.10.2017 16:04 17,4 C 13,3 C 74 % 1017,8 hPa 0,0 l/m 4,6 km/h (1 Bft) O-NO 67 2 min 0,000 mm 1,1 UV-I 324 W/m 12,7 C 17,4 C 6,4 km/h (2 Bft) 97,37 %
02.10.2017 16:06 17,4 C 13,3 C 74 % 1017,7 hPa 0,0 l/m 3,7 km/h (1 Bft) O-NO 70 2 min 0,000 mm 1,0 UV-I 275 W/m 12,7 C 17,4 C 8,0 km/h (2 Bft) 92,86 %
02.10.2017 16:08 17,4 C 13,3 C 74 % 1017,7 hPa 0,0 l/m 5,7 km/h (1 Bft) NO 56 2 min 0,000 mm 1,0 UV-I 261 W/m 12,7 C 17,4 C 12,9 km/h (3 Bft) 91,43 %
02.10.2017 16:10 17,3 C 13,3 C 73 % 1017,7 hPa 0,0 l/m 6,3 km/h (2 Bft) O-SO 110 2 min 0,000 mm 0,9 UV-I 233 W/m 12,4 C 17,3 C 9,7 km/h (2 Bft) 96,61 %
02.10.2017 16:12 17,3 C 13,3 C 75 % 1017,6 hPa 0,0 l/m 5,8 km/h (2 Bft) O-NO 68 2 min 0,000 mm 0,9 UV-I 237 W/m 12,8 C 17,3 C 8,0 km/h (2 Bft) 94,74 %
02.10.2017 16:14 17,2 C 13,3 C 73 % 1017,7 hPa 0,0 l/m 4,2 km/h (1 Bft) O-NO 69 2 min 0,000 mm 0,9 UV-I 245 W/m 12,3 C 17,2 C 8,0 km/h (2 Bft) 95,74 %
02.10.2017 16:16 17,2 C 13,3 C 74 % 1017,7 hPa 0,0 l/m 4,6 km/h (1 Bft) NO 46 2 min 0,000 mm 0,8 UV-I 232 W/m 12,5 C 17,2 C 6,4 km/h (2 Bft) 94,29 %
02.10.2017 16:18 17,2 C 13,3 C 74 % 1017,7 hPa 0,0 l/m 4,2 km/h (1 Bft) NO 51 2 min 0,000 mm 0,8 UV-I 222 W/m 12,5 C 17,2 C 6,4 km/h (2 Bft) 95,38 %
02.10.2017 16:20 17,1 C 13,3 C 73 % 1017,7 hPa 0,0 l/m 3,8 km/h (1 Bft) NO 34 2 min 0,000 mm 0,8 UV-I 254 W/m 12,2 C 17,1 C 8,0 km/h (2 Bft) 98,00 %
02.10.2017 16:22 17,1 C 13,3 C 74 % 1017,6 hPa 0,0 l/m 5,1 km/h (1 Bft) O-NO 62 2 min 0,000 mm 0,8 UV-I 279 W/m 12,4 C 17,1 C 8,0 km/h (2 Bft) 95,12 %
02.10.2017 16:24 17,2 C 13,3 C 75 % 1017,6 hPa 0,0 l/m 5,1 km/h (1 Bft) O-NO 57 2 min 0,000 mm 0,8 UV-I 299 W/m 12,7 C 17,2 C 6,4 km/h (2 Bft) 97,37 %
02.10.2017 16:26 17,2 C 13,3 C 75 % 1017,6 hPa 0,0 l/m 4,8 km/h (1 Bft) N-NO 32 2 min 0,000 mm 0,8 UV-I 298 W/m 12,7 C 17,2 C 6,4 km/h (2 Bft) 98,00 %
02.10.2017 16:28 17,3 C 13,3 C 75 % 1017,6 hPa 0,0 l/m 4,1 km/h (1 Bft) O-SO 105 2 min 0,000 mm 0,8 UV-I 300 W/m 12,8 C 17,3 C 4,8 km/h (1 Bft) 95,92 %
02.10.2017 16:30 17,3 C 13,3 C 74 % 1017,6 hPa 0,0 l/m 2,7 km/h (1 Bft) O 96 2 min 0,000 mm 0,8 UV-I 295 W/m 12,6 C 17,3 C 4,8 km/h (1 Bft) 98,11 %
02.10.2017 16:32 17,4 C 13,3 C 73 % 1017,6 hPa 0,0 l/m 7,0 km/h (2 Bft) O-SO 104 2 min 0,000 mm 0,8 UV-I 278 W/m 12,5 C 17,1 C 11,3 km/h (2 Bft) 97,56 %
02.10.2017 16:34 17,4 C 13,3 C 73 % 1017,6 hPa 0,0 l/m 4,9 km/h (1 Bft) O-NO 66 2 min 0,000 mm 0,7 UV-I 277 W/m 12,5 C 17,4 C 8,0 km/h (2 Bft) 98,00 %
02.10.2017 16:36 17,3 C 13,3 C 73 % 1017,6 hPa 0,0 l/m 2,1 km/h (1 Bft) O-NO 66 2 min 0,000 mm 0,7 UV-I 271 W/m 12,4 C 17,3 C 3,2 km/h (1 Bft) 98,00 %
02.10.2017 16:38 17,3 C 13,3 C 74 % 1017,6 hPa 0,0 l/m 5,6 km/h (1 Bft) NO 53 2 min 0,000 mm 0,6 UV-I 227 W/m 12,6 C 17,3 C 8,0 km/h (2 Bft) 97,44 %
02.10.2017 16:40 17,3 C 13,3 C 74 % 1017,6 hPa 0,0 l/m 4,6 km/h (1 Bft) O 96 2 min 0,000 mm 0,6 UV-I 232 W/m 12,6 C 17,3 C 6,4 km/h (2 Bft) 97,87 %
02.10.2017 16:42 17,2 C 13,3 C 73 % 1017,6 hPa 0,0 l/m 5,9 km/h (2 Bft) O-NO 60 2 min 0,000 mm 0,6 UV-I 230 W/m 12,3 C 17,2 C 9,7 km/h (2 Bft) 96,08 %
02.10.2017 16:44 17,2 C 13,3 C 73 % 1017,6 hPa 0,0 l/m 7,1 km/h (2 Bft) O-NO 60 2 min 0,000 mm 0,6 UV-I 224 W/m 12,3 C 16,9 C 9,7 km/h (2 Bft) 98,11 %
02.10.2017 16:46 17,2 C 13,3 C 73 % 1017,6 hPa 0,0 l/m 6,1 km/h (2 Bft) O-NO 73 2 min 0,000 mm 0,6 UV-I 240 W/m 12,3 C 17,2 C 8,0 km/h (2 Bft) 92,11 %
02.10.2017 16:48 17,2 C 13,3 C 73 % 1017,6 hPa 0,0 l/m 5,2 km/h (1 Bft) O 86 2 min 0,000 mm 0,6 UV-I 253 W/m 12,3 C 17,2 C 6,4 km/h (2 Bft) 98,00 %
02.10.2017 16:50 17,2 C 13,3 C 74 % 1017,6 hPa 0,0 l/m 5,8 km/h (2 Bft) O 80 2 min 0,000 mm 0,6 UV-I 257 W/m 12,5 C 17,2 C 9,7 km/h (2 Bft) 98,11 %
02.10.2017 16:52 17,2 C 13,3 C 75 % 1017,5 hPa 0,0 l/m 5,3 km/h (1 Bft) NO 53 2 min 0,000 mm 0,5 UV-I 258 W/m 12,7 C 17,2 C 9,7 km/h (2 Bft) 97,56 %
02.10.2017 16:54 17,2 C 13,3 C 74 % 1017,5 hPa 0,0 l/m 5,0 km/h (1 Bft) NO 44 2 min 0,000 mm 0,5 UV-I 246 W/m 12,5 C 17,2 C 8,0 km/h (2 Bft) 97,37 %
02.10.2017 16:56 17,3 C 13,3 C 74 % 1017,5 hPa 0,0 l/m 7,0 km/h (2 Bft) O 85 2 min 0,000 mm 0,5 UV-I 226 W/m 12,6 C 17,0 C 11,3 km/h (2 Bft) 98,11 %
02.10.2017 16:58 17,3 C 13,3 C 74 % 1017,5 hPa 0,0 l/m 6,1 km/h (2 Bft) NO 38 2 min 0,000 mm 0,3 UV-I 203 W/m 12,6 C 17,3 C 11,3 km/h (2 Bft) 96,43 %
02.10.2017 17:00 17,2 C 13,3 C 74 % 1017,5 hPa 0,0 l/m 5,1 km/h (1 Bft) O-NO 64 0 min 0,152 mm 0,0 UV-I 143 W/m 12,5 C 17,2 C 8,0 km/h (2 Bft) 100,00 %
02.10.2017 17:02 17,2 C 13,3 C 74 % 1017,5 hPa 0,0 l/m 6,0 km/h (2 Bft) O-NO 57 0 min 0,000 mm 0,0 UV-I 117 W/m 12,5 C 17,2 C 8,0 km/h (2 Bft) 93,62 %
02.10.2017 17:04 17,1 C 13,3 C 74 % 1017,5 hPa 0,0 l/m 7,2 km/h (2 Bft) O-NO 73 0 min 0,000 mm 0,0 UV-I 113 W/m 12,4 C 16,7 C 9,7 km/h (2 Bft) 100,00 %
02.10.2017 17:06 17,0 C 13,3 C 75 % 1017,5 hPa 0,0 l/m 7,4 km/h (2 Bft) O-NO 73 0 min 0,000 mm 0,0 UV-I 114 W/m 12,5 C 16,5 C 9,7 km/h (2 Bft) 97,56 %
02.10.2017 17:08 17,0 C 13,3 C 75 % 1017,5 hPa 0,0 l/m 4,2 km/h (1 Bft) NO 46 0 min 0,000 mm 0,0 UV-I 120 W/m 12,5 C 17,0 C 8,0 km/h (2 Bft) 100,00 %
02.10.2017 17:10 16,9 C 13,3 C 77 % 1017,5 hPa 0,0 l/m 4,8 km/h (1 Bft) O 84 0 min 0,000 mm 0,0 UV-I 118 W/m 12,8 C 16,9 C 6,4 km/h (2 Bft) 100,00 %
02.10.2017 17:12 16,8 C 13,3 C 76 % 1017,5 hPa 0,0 l/m 6,5 km/h (2 Bft) O 97 0 min 0,000 mm 0,0 UV-I 114 W/m 12,5 C 16,8 C 11,3 km/h (2 Bft) 100,00 %
02.10.2017 17:14 16,7 C 13,3 C 76 % 1017,5 hPa 0,0 l/m 6,2 km/h (2 Bft) O-NO 78 0 min 0,000 mm 0,0 UV-I 114 W/m 12,4 C 16,7 C 8,0 km/h (2 Bft) 100,00 %
02.10.2017 17:16 16,7 C 13,3 C 77 % 1017,4 hPa 0,0 l/m 5,9 km/h (2 Bft) O-NO 75 0 min 0,000 mm 0,0 UV-I 113 W/m 12,6 C 16,7 C 8,0 km/h (2 Bft) 98,08 %
02.10.2017 17:18 16,6 C 13,3 C 77 % 1017,4 hPa 0,0 l/m 4,6 km/h (1 Bft) O-NO 70 2 min 0,000 mm 0,0 UV-I 143 W/m 12,5 C 16,6 C 8,0 km/h (2 Bft) 100,00 %
02.10.2017 17:20 16,6 C 13,3 C 78 % 1017,4 hPa 0,0 l/m 4,4 km/h (1 Bft) O-NO 61 2 min 0,000 mm 0,0 UV-I 135 W/m 12,7 C 16,6 C 8,0 km/h (2 Bft) 100,00 %
02.10.2017 17:22 16,5 C 13,3 C 78 % 1017,4 hPa 0,0 l/m 4,4 km/h (1 Bft) O-NO 67 0 min 0,000 mm 0,0 UV-I 93 W/m 12,6 C 16,5 C 8,0 km/h (2 Bft) 100,00 %
02.10.2017 17:24 16,5 C 13,3 C 78 % 1017,4 hPa 0,0 l/m 3,9 km/h (1 Bft) O-NO 71 0 min 0,000 mm 0,0 UV-I 87 W/m 12,6 C 16,5 C 4,8 km/h (1 Bft) 100,00 %
02.10.2017 17:26 16,4 C 13,3 C 77 % 1017,4 hPa 0,0 l/m 3,9 km/h (1 Bft) O-NO 70 0 min 0,000 mm 0,0 UV-I 84 W/m 12,4 C 16,4 C 6,4 km/h (2 Bft) 100,00 %
02.10.2017 17:28 16,4 C 13,3 C 78 % 1017,5 hPa 0,0 l/m 4,9 km/h (1 Bft) O 82 0 min 0,000 mm 0,0 UV-I 83 W/m 12,6 C 16,4 C 8,0 km/h (2 Bft) 96,00 %
02.10.2017 17:30 16,3 C 13,3 C 78 % 1017,5 hPa 0,0 l/m 5,4 km/h (1 Bft) O-NO 65 0 min 0,000 mm 0,0 UV-I 81 W/m 12,5 C 16,3 C 8,0 km/h (2 Bft) 100,00 %
02.10.2017 17:32 16,3 C 13,3 C 78 % 1017,5 hPa 0,0 l/m 4,5 km/h (1 Bft) O-NO 73 0 min 0,000 mm 0,0 UV-I 78 W/m 12,5 C 16,3 C 6,4 km/h (2 Bft) 100,00 %
02.10.2017 17:34 16,2 C 13,3 C 78 % 1017,5 hPa 0,0 l/m 5,1 km/h (1 Bft) NO 55 0 min 0,000 mm 0,0 UV-I 75 W/m 12,4 C 16,2 C 6,4 km/h (2 Bft) 98,21 %
02.10.2017 17:36 16,2 C 13,3 C 78 % 1017,5 hPa 0,0 l/m 2,8 km/h (1 Bft) NO 55 0 min 0,000 mm 0,0 UV-I 69 W/m 12,4 C 16,2 C 4,8 km/h (1 Bft) 100,00 %
02.10.2017 17:38 16,2 C 13,3 C 78 % 1017,5 hPa 0,0 l/m 2,5 km/h (1 Bft) NO 55 0 min 0,000 mm 0,0 UV-I 65 W/m 12,4 C 16,2 C 4,8 km/h (1 Bft) 100,00 %
02.10.2017 17:40 16,2 C 13,3 C 78 % 1017,5 hPa 0,0 l/m 4,1 km/h (1 Bft) O-NO 63 0 min 0,000 mm 0,0 UV-I 61 W/m 12,4 C 16,2 C 6,4 km/h (2 Bft) 97,87 %
02.10.2017 17:42 16,1 C 13,3 C 78 % 1017,4 hPa 0,0 l/m 5,3 km/h (1 Bft) O-NO 65 0 min 0,000 mm 0,0 UV-I 58 W/m 12,3 C 16,1 C 8,0 km/h (2 Bft) 100,00 %
02.10.2017 17:44 16,1 C 13,3 C 79 % 1017,5 hPa 0,0 l/m 5,4 km/h (1 Bft) O 84 0 min 0,000 mm 0,0 UV-I 56 W/m 12,5 C 16,1 C 8,0 km/h (2 Bft) 100,00 %
02.10.2017 17:46 16,0 C 13,3 C 79 % 1017,5 hPa 0,0 l/m 6,5 km/h (2 Bft) O-NO 77 0 min 0,000 mm 0,0 UV-I 54 W/m 12,4 C 16,0 C 8,0 km/h (2 Bft) 100,00 %
02.10.2017 17:48 15,9 C 13,3 C 80 % 1017,5 hPa 0,0 l/m 6,3 km/h (2 Bft) O-NO 77 0 min 0,000 mm 0,0 UV-I 54 W/m 12,5 C 15,9 C 9,7 km/h (2 Bft) 94,00 %
02.10.2017 17:50 15,8 C 13,3 C 80 % 1017,4 hPa 0,0 l/m 5,4 km/h (1 Bft) O 92 0 min 0,000 mm 0,0 UV-I 53 W/m 12,4 C 15,8 C 9,7 km/h (2 Bft) 94,74 %
02.10.2017 17:52 15,7 C 13,3 C 80 % 1017,4 hPa 0,0 l/m 4,4 km/h (1 Bft) O-NO 73 0 min 0,000 mm 0,0 UV-I 51 W/m 12,3 C 15,7 C 6,4 km/h (2 Bft) 100,00 %
02.10.2017 17:54 15,6 C 13,3 C 81 % 1017,4 hPa 0,0 l/m 4,0 km/h (1 Bft) O-NO 76 0 min 0,000 mm 0,0 UV-I 51 W/m 12,3 C 15,6 C 4,8 km/h (1 Bft) 96,36 %
02.10.2017 17:56 15,5 C 13,3 C 81 % 1017,4 hPa 0,0 l/m 3,8 km/h (1 Bft) O 84 0 min 0,000 mm 0,0 UV-I 48 W/m 12,3 C 15,5 C 6,4 km/h (2 Bft) 95,74 %
02.10.2017 17:58 15,5 C 13,3 C 81 % 1017,4 hPa 0,0 l/m 4,7 km/h (1 Bft) O 90 0 min 0,000 mm 0,0 UV-I 46 W/m 12,3 C 15,5 C 6,4 km/h (2 Bft) 95,74 %
02.10.2017 18:00 15,4 C 13,3 C 81 % 1017,3 hPa 0,0 l/m 3,4 km/h (1 Bft) O 88 0 min 0,051 mm 0,0 UV-I 44 W/m 12,2 C 15,4 C 4,8 km/h (1 Bft) 97,87 %
02.10.2017 18:02 15,4 C 13,3 C 81 % 1017,3 hPa 0,0 l/m 3,7 km/h (1 Bft) O-NO 76 0 min 0,000 mm 0,0 UV-I 40 W/m 12,2 C 15,4 C 6,4 km/h (2 Bft) 97,87 %
02.10.2017 18:04 15,3 C 13,3 C 82 % 1017,4 hPa 0,0 l/m 2,6 km/h (1 Bft) O-NO 76 0 min 0,000 mm 0,0 UV-I 38 W/m 12,2 C 15,3 C 4,8 km/h (1 Bft) 94,34 %
02.10.2017 18:06 15,3 C 13,3 C 82 % 1017,3 hPa 0,0 l/m 3,4 km/h (1 Bft) O-NO 76 0 min 0,000 mm 0,0 UV-I 35 W/m 12,2 C 15,3 C 4,8 km/h (1 Bft) 100,00 %
02.10.2017 18:08 15,2 C 13,3 C 82 % 1017,3 hPa 0,0 l/m 3,5 km/h (1 Bft) O-NO 76 0 min 0,000 mm 0,0 UV-I 32 W/m 12,1 C 15,2 C 6,4 km/h (2 Bft) 96,00 %
02.10.2017 18:10 15,2 C 13,3 C 82 % 1017,3 hPa 0,0 l/m 5,0 km/h (1 Bft) O-NO 77 0 min 0,000 mm 0,0 UV-I 29 W/m 12,1 C 15,2 C 6,4 km/h (2 Bft) 96,00 %
02.10.2017 18:12 15,1 C 13,3 C 82 % 1017,3 hPa 0,0 l/m 4,9 km/h (1 Bft) O 96 0 min 0,000 mm 0,0 UV-I 26 W/m 12,0 C 15,1 C 6,4 km/h (2 Bft) 97,87 %
02.10.2017 18:14 15,1 C 13,3 C 82 % 1017,3 hPa 0,0 l/m 5,1 km/h (1 Bft) O-NO 78 0 min 0,000 mm 0,0 UV-I 24 W/m 12,0 C 15,1 C 8,0 km/h (2 Bft) 98,00 %
02.10.2017 18:16 15,1 C 13,3 C 82 % 1017,3 hPa 0,0 l/m 5,2 km/h (1 Bft) O-NO 78 0 min 0,000 mm 0,0 UV-I 21 W/m 12,0 C 15,1 C 8,0 km/h (2 Bft) 97,37 %
02.10.2017 18:18 15,1 C 13,3 C 82 % 1017,3 hPa 0,0 l/m 5,5 km/h (1 Bft) O-NO 67 0 min 0,000 mm 0,0 UV-I 19 W/m 12,0 C 15,1 C 8,0 km/h (2 Bft) 98,11 %
02.10.2017 18:20 15,1 C 13,3 C 82 % 1017,3 hPa 0,0 l/m 4,6 km/h (1 Bft) O 86 0 min 0,000 mm 0,0 UV-I 18 W/m 12,0 C 15,1 C 6,4 km/h (2 Bft) 97,73 %
02.10.2017 18:22 15,1 C 13,3 C 82 % 1017,4 hPa 0,0 l/m 4,1 km/h (1 Bft) O-NO 71 0 min 0,000 mm 0,0 UV-I 16 W/m 12,0 C 15,1 C 6,4 km/h (2 Bft) 98,00 %
02.10.2017 18:24 15,1 C 13,3 C 82 % 1017,3 hPa 0,0 l/m 4,3 km/h (1 Bft) O-NO 71 0 min 0,000 mm 0,0 UV-I 15 W/m 12,0 C 15,1 C 6,4 km/h (2 Bft) 100,00 %
02.10.2017 18:26 15,0 C 13,3 C 82 % 1017,4 hPa 0,0 l/m 4,3 km/h (1 Bft) O-NO 71 0 min 0,000 mm 0,0 UV-I 14 W/m 12,0 C 15,0 C 6,4 km/h (2 Bft) 100,00 %
02.10.2017 18:28 15,0 C 13,3 C 83 % 1017,4 hPa 0,0 l/m 4,4 km/h (1 Bft) O-NO 71 0 min 0,000 mm 0,0 UV-I 12 W/m 12,1 C 15,0 C 6,4 km/h (2 Bft) 100,00 %
02.10.2017 18:30 14,9 C 13,3 C 83 % 1017,4 hPa 0,0 l/m 3,5 km/h (1 Bft) O-NO 73 2 min 0,000 mm 0,0 UV-I 12 W/m 12,0 C 14,9 C 6,4 km/h (2 Bft) 100,00 %
02.10.2017 18:33 14,9 C 13,3 C 83 % 1017,4 hPa 0,0 l/m 2,7 km/h (1 Bft) O-NO 73 0 min 0,000 mm 0,0 UV-I 10 W/m 12,0 C 14,9 C 4,8 km/h (1 Bft) 98,65 %
02.10.2017 18:34 14,9 C 13,3 C 83 % 1017,4 hPa 0,0 l/m 2,6 km/h (1 Bft) O-NO 73 0 min 0,000 mm 0,0 UV-I 9 W/m 12,0 C 14,9 C 4,8 km/h (1 Bft) 100,00 %
02.10.2017 18:36 14,8 C 13,3 C 83 % 1017,4 hPa 0,0 l/m 3,0 km/h (1 Bft) O-NO 73 0 min 0,000 mm 0,0 UV-I 9 W/m 11,9 C 14,8 C 4,8 km/h (1 Bft) 100,00 %
02.10.2017 18:38 14,8 C 13,3 C 83 % 1017,3 hPa 0,0 l/m 2,6 km/h (1 Bft) O-NO 73 0 min 0,000 mm 0,0 UV-I 7 W/m 11,9 C 14,8 C 3,2 km/h (1 Bft) 100,00 %
02.10.2017 18:40 14,7 C 13,3 C 83 % 1017,3 hPa 0,0 l/m 4,0 km/h (1 Bft) O-NO 73 0 min 0,000 mm 0,0 UV-I 7 W/m 11,8 C 14,7 C 6,4 km/h (2 Bft) 98,00 %
02.10.2017 18:42 14,7 C 13,3 C 84 % 1017,3 hPa 0,0 l/m 4,3 km/h (1 Bft) O-SO 103 0 min 0,000 mm 0,0 UV-I 6 W/m 12,0 C 14,7 C 8,0 km/h (2 Bft) 100,00 %
02.10.2017 18:44 14,6 C 13,3 C 84 % 1017,3 hPa 0,0 l/m 3,3 km/h (1 Bft) O 97 0 min 0,000 mm 0,0 UV-I 5 W/m 11,9 C 14,6 C 4,8 km/h (1 Bft) 100,00 %
02.10.2017 18:46 14,6 C 13,3 C 84 % 1017,3 hPa 0,0 l/m 3,1 km/h (1 Bft) O 79 0 min 0,000 mm 0,0 UV-I 5 W/m 11,9 C 14,6 C 6,4 km/h (2 Bft) 100,00 %
02.10.2017 18:49 14,7 C 13,3 C 84 % 1017,3 hPa 0,0 l/m 3,4 km/h (1 Bft) O 80 0 min 0,000 mm 0,0 UV-I 5 W/m 12,0 C 14,7 C 6,4 km/h (2 Bft) 100,00 %
02.10.2017 18:50 14,7 C 13,3 C 84 % 1017,3 hPa 0,0 l/m 4,3 km/h (1 Bft) O 80 0 min 0,000 mm 0,0 UV-I 5 W/m 12,0 C 14,7 C 4,8 km/h (1 Bft) 100,00 %
02.10.2017 18:52 14,6 C 13,3 C 84 % 1017,2 hPa 0,0 l/m 4,0 km/h (1 Bft) O 79 0 min 0,000 mm 0,0 UV-I 4 W/m 11,9 C 14,6 C 6,4 km/h (2 Bft) 100,00 %
02.10.2017 18:54 14,4 C 13,3 C 84 % 1017,3 hPa 0,0 l/m 5,1 km/h (1 Bft) O-NO 75 0 min 0,000 mm 0,0 UV-I 0 W/m 11,7 C 14,4 C 8,0 km/h (2 Bft) 100,00 %
02.10.2017 18:56 14,3 C 13,3 C 85 % 1017,2 hPa 0,0 l/m 5,1 km/h (1 Bft) O-SO 113 0 min 0,000 mm 0,0 UV-I 0 W/m 11,8 C 14,3 C 9,7 km/h (2 Bft) 100,00 %
02.10.2017 18:58 14,3 C 13,3 C 85 % 1017,2 hPa 0,0 l/m 4,1 km/h (1 Bft) O-NO 73 0 min 0,000 mm 0,0 UV-I 0 W/m 11,8 C 14,3 C 9,7 km/h (2 Bft) 100,00 %
02.10.2017 19:00 14,3 C 13,3 C 85 % 1017,2 hPa 0,0 l/m 2,5 km/h (1 Bft) O-NO 69 0 min 0,000 mm 0,0 UV-I 0 W/m 11,8 C 14,3 C 6,4 km/h (2 Bft) 100,00 %
02.10.2017 19:02 14,4 C 13,3 C 85 % 1017,2 hPa 0,0 l/m 4,3 km/h (1 Bft) O-NO 69 0 min 0,026 mm 0,0 UV-I 0 W/m 11,9 C 14,4 C 6,4 km/h (2 Bft) 100,00 %
02.10.2017 19:04 14,4 C 13,3 C 85 % 1017,2 hPa 0,0 l/m 3,7 km/h (1 Bft) O-NO 69 0 min 0,000 mm 0,0 UV-I 0 W/m 11,9 C 14,4 C 6,4 km/h (2 Bft) 100,00 %
02.10.2017 19:06 14,5 C 13,3 C 84 % 1017,2 hPa 0,0 l/m 3,8 km/h (1 Bft) O-NO 69 0 min 0,000 mm 0,0 UV-I 0 W/m 11,8 C 14,5 C 6,4 km/h (2 Bft) 98,11 %
02.10.2017 19:08 14,4 C 13,3 C 84 % 1017,2 hPa 0,0 l/m 6,0 km/h (2 Bft) O-NO 69 0 min 0,000 mm 0,0 UV-I 0 W/m 11,7 C 14,4 C 8,0 km/h (2 Bft) 100,00 %
02.10.2017 19:10 14,4 C 13,3 C 85 % 1017,2 hPa 0,0 l/m 5,7 km/h (1 Bft) O 81 0 min 0,000 mm 0,0 UV-I 0 W/m 11,9 C 14,4 C 8,0 km/h (2 Bft) 100,00 %
02.10.2017 19:12 14,5 C 13,3 C 85 % 1017,2 hPa 0,0 l/m 4,4 km/h (1 Bft) O-NO 76 0 min 0,000 mm 0,0 UV-I 0 W/m 12,0 C 14,5 C 6,4 km/h (2 Bft) 100,00 %
02.10.2017 19:14 14,5 C 13,3 C 84 % 1017,2 hPa 0,0 l/m 2,2 km/h (1 Bft) O-NO 76 0 min 0,000 mm 0,0 UV-I 0 W/m 11,8 C 14,5 C 4,8 km/h (1 Bft) 100,00 %
02.10.2017 19:16 14,4 C 13,3 C 85 % 1017,2 hPa 0,0 l/m 3,4 km/h (1 Bft) O-NO 76 0 min 0,000 mm 0,0 UV-I 0 W/m 11,9 C 14,4 C 4,8 km/h (1 Bft) 100,00 %
02.10.2017 19:18 14,2 C 13,3 C 85 % 1017,1 hPa 0,0 l/m 1,1 km/h (1 Bft) O-NO 76 0 min 0,000 mm 0,0 UV-I 0 W/m 11,7 C 14,2 C 3,2 km/h (1 Bft) 100,00 %
02.10.2017 19:20 13,9 C 13,3 C 86 % 1017,2 hPa 0,0 l/m 0,2 km/h (0 Bft) O-NO 76 0 min 0,000 mm 0,0 UV-I 0 W/m 11,6 C 13,9 C 1,6 km/h (1 Bft) 100,00 %
02.10.2017 19:22 13,7 C 13,3 C 87 % 1017,2 hPa 0,0 l/m 1,2 km/h (1 Bft) O-NO 76 0 min 0,000 mm 0,0 UV-I 0 W/m 11,6 C 13,7 C 3,2 km/h (1 Bft) 100,00 %
02.10.2017 19:24 13,7 C 13,3 C 88 % 1017,2 hPa 0,0 l/m 2,3 km/h (1 Bft) O-NO 76 0 min 0,000 mm 0,0 UV-I 0 W/m 11,7 C 13,7 C 3,2 km/h (1 Bft) 100,00 %
02.10.2017 19:26 13,7 C 13,3 C 88 % 1017,2 hPa 0,0 l/m 3,1 km/h (1 Bft) O-NO 76 0 min 0,000 mm 0,0 UV-I 0 W/m 11,7 C 13,7 C 4,8 km/h (1 Bft) 98,00 %
02.10.2017 19:28 13,8 C 13,3 C 87 % 1017,2 hPa 0,0 l/m 1,7 km/h (1 Bft) O-NO 76 0 min 0,000 mm 0,0 UV-I 0 W/m 11,7 C 13,8 C 3,2 km/h (1 Bft) 100,00 %
02.10.2017 19:30 13,7 C 13,3 C 87 % 1017,2 hPa 0,0 l/m 0,8 km/h (0 Bft) O-NO 76 0 min 0,000 mm 0,0 UV-I 0 W/m 11,6 C 13,7 C 3,2 km/h (1 Bft) 100,00 %
02.10.2017 19:32 13,7 C 13,3 C 88 % 1017,3 hPa 0,0 l/m 0,4 km/h (0 Bft) O-NO 76 0 min 0,000 mm 0,0 UV-I 0 W/m 11,7 C 13,7 C 1,6 km/h (1 Bft) 97,56 %
02.10.2017 19:34 13,7 C 13,3 C 88 % 1017,3 hPa 0,0 l/m 0,0 km/h (0 Bft) O-NO 76 0 min 0,000 mm 0,0 UV-I 0 W/m 11,7 C 13,7 C 0,0 km/h (0 Bft) 100,00 %
02.10.2017 19:36 13,7 C 13,3 C 88 % 1017,3 hPa 0,0 l/m 0,3 km/h (0 Bft) O-NO 76 0 min 0,000 mm 0,0 UV-I 0 W/m 11,7 C 13,7 C 1,6 km/h (1 Bft) 100,00 %
02.10.2017 19:38 13,7 C 13,3 C 88 % 1017,3 hPa 0,0 l/m 1,7 km/h (1 Bft) O-NO 76 0 min 0,000 mm 0,0 UV-I 0 W/m 11,7 C 13,7 C 3,2 km/h (1 Bft) 98,00 %
02.10.2017 19:40 13,6 C 13,3 C 88 % 1017,3 hPa 0,0 l/m 0,2 km/h (0 Bft) O-NO 76 0 min 0,000 mm 0,0 UV-I 0 W/m 11,6 C 13,6 C 1,6 km/h (1 Bft) 100,00 %
02.10.2017 19:42 13,4 C 13,3 C 89 % 1017,3 hPa 0,0 l/m 0,0 km/h (0 Bft) O-NO 76 0 min 0,000 mm 0,0 UV-I 0 W/m 11,6 C 13,4 C 0,0 km/h (0 Bft) 100,00 %
02.10.2017 19:44 13,4 C 13,3 C 89 % 1017,3 hPa 0,0 l/m 0,0 km/h (0 Bft) O-NO 76 0 min 0,000 mm 0,0 UV-I 0 W/m 11,6 C 13,4 C 0,0 km/h (0 Bft) 100,00 %
02.10.2017 19:46 13,4 C 13,3 C 89 % 1017,3 hPa 0,0 l/m 0,1 km/h (0 Bft) O-NO 76 0 min 0,000 mm 0,0 UV-I 0 W/m 11,6 C 13,4 C 1,6 km/h (1 Bft) 100,00 %
02.10.2017 19:48 13,6 C 13,3 C 89 % 1017,3 hPa 0,0 l/m 0,0 km/h (0 Bft) O-NO 76 0 min 0,000 mm 0,0 UV-I 0 W/m 11,8 C 13,6 C 0,0 km/h (0 Bft) 98,00 %
02.10.2017 19:50 13,7 C 13,3 C 89 % 1017,3 hPa 0,0 l/m 1,4 km/h (1 Bft) O-NO 76 0 min 0,000 mm 0,0 UV-I 0 W/m 11,9 C 13,7 C 3,2 km/h (1 Bft) 97,87 %
02.10.2017 19:52 13,7 C 13,3 C 89 % 1017,3 hPa 0,0 l/m 0,1 km/h (0 Bft) O-NO 76 0 min 0,000 mm 0,0 UV-I 0 W/m 11,9 C 13,7 C 1,6 km/h (1 Bft) 97,87 %
02.10.2017 19:54 13,7 C 13,3 C 88 % 1017,3 hPa 0,0 l/m 1,3 km/h (1 Bft) O-NO 76 0 min 0,000 mm 0,0 UV-I 0 W/m 11,7 C 13,7 C 3,2 km/h (1 Bft) 98,00 %
02.10.2017 19:56 13,6 C 13,3 C 89 % 1017,4 hPa 0,0 l/m 0,0 km/h (0 Bft) O-NO 76 0 min 0,000 mm 0,0 UV-I 0 W/m 11,8 C 13,6 C 1,6 km/h (1 Bft) 97,62 %
02.10.2017 19:58 13,6 C 13,3 C 89 % 1017,4 hPa 0,0 l/m 1,2 km/h (1 Bft) O-NO 76 0 min 0,000 mm 0,0 UV-I 0 W/m 11,8 C 13,6 C 3,2 km/h (1 Bft) 98,11 %
02.10.2017 20:00 13,7 C 13,3 C 89 % 1017,4 hPa 0,0 l/m 0,6 km/h (0 Bft) O-NO 76 0 min 0,000 mm 0,0 UV-I 0 W/m 11,9 C 13,7 C 1,6 km/h (1 Bft) 95,12 %
02.10.2017 20:02 13,7 C 13,3 C 89 % 1017,4 hPa 0,0 l/m 1,6 km/h (1 Bft) O-NO 76 0 min 0,000 mm 0,0 UV-I 0 W/m 11,9 C 13,7 C 3,2 km/h (1 Bft) 93,62 %
02.10.2017 20:04 13,8 C 13,3 C 88 % 1017,4 hPa 0,0 l/m 2,5 km/h (1 Bft) O-NO 76 0 min 0,000 mm 0,0 UV-I 0 W/m 11,8 C 13,8 C 4,8 km/h (1 Bft) 96,00 %
02.10.2017 20:06 13,7 C 13,3 C 89 % 1017,4 hPa 0,0 l/m 1,7 km/h (1 Bft) O-NO 76 0 min 0,000 mm 0,0 UV-I 0 W/m 11,9 C 13,7 C 4,8 km/h (1 Bft) 93,62 %
02.10.2017 20:08 13,7 C 13,3 C 89 % 1017,5 hPa 0,0 l/m 3,5 km/h (1 Bft) W-NW 297 0 min 0,000 mm 0,0 UV-I 0 W/m 11,9 C 13,7 C 6,4 km/h (2 Bft) 94,74 %
02.10.2017 20:10 13,6 C 13,3 C 89 % 1017,5 hPa 0,0 l/m 5,7 km/h (1 Bft) W-NW 300 0 min 0,000 mm 0,0 UV-I 0 W/m 11,8 C 13,6 C 9,7 km/h (2 Bft) 96,23 %
02.10.2017 20:13 13,6 C 13,3 C 89 % 1017,6 hPa 0,0 l/m 2,3 km/h (1 Bft) W-NW 300 0 min 0,000 mm 0,0 UV-I 0 W/m 11,8 C 13,6 C 4,8 km/h (1 Bft) 91,78 %
02.10.2017 20:14 13,6 C 13,3 C 89 % 1017,6 hPa 0,0 l/m 4,8 km/h (1 Bft) W 278 0 min 0,000 mm 0,0 UV-I 0 W/m 11,8 C 13,6 C 6,4 km/h (2 Bft) 100,00 %
02.10.2017 20:16 13,6 C 13,3 C 89 % 1017,7 hPa 0,0 l/m 3,3 km/h (1 Bft) W 265 0 min 0,000 mm 0,0 UV-I 0 W/m 11,8 C 13,6 C 9,7 km/h (2 Bft) 94,92 %
02.10.2017 20:18 13,6 C 13,3 C 89 % 1017,6 hPa 0,0 l/m 0,1 km/h (0 Bft) W 265 0 min 0,000 mm 0,0 UV-I 0 W/m 11,8 C 13,6 C 1,6 km/h (1 Bft) 95,74 %
02.10.2017 20:20 13,7 C 13,3 C 89 % 1017,7 hPa 0,0 l/m 0,7 km/h (0 Bft) W 265 0 min 0,000 mm 0,0 UV-I 0 W/m 11,9 C 13,7 C 3,2 km/h (1 Bft) 95,74 %
02.10.2017 20:23 13,8 C 13,3 C 89 % 1017,6 hPa 0,0 l/m 0,0 km/h (0 Bft) W 265 0 min 0,000 mm 0,0 UV-I 0 W/m 12,0 C 13,8 C 1,6 km/h (1 Bft) 95,38 %
02.10.2017 20:24 13,8 C 13,3 C 89 % 1017,6 hPa 0,0 l/m 1,1 km/h (1 Bft) W 265 0 min 0,000 mm 0,0 UV-I 0 W/m 12,0 C 13,8 C 1,6 km/h (1 Bft) 96,15 %
02.10.2017 20:26 13,8 C 13,3 C 89 % 1017,7 hPa 0,0 l/m 0,1 km/h (0 Bft) W 265 0 min 0,000 mm 0,0 UV-I 0 W/m 12,0 C 13,8 C 1,6 km/h (1 Bft) 96,00 %
02.10.2017 20:28 13,8 C 13,3 C 89 % 1017,7 hPa 0,0 l/m 0,0 km/h (0 Bft) W 265 0 min 0,000 mm 0,0 UV-I 0 W/m 12,0 C 13,8 C 0,0 km/h (0 Bft) 94,74 %
02.10.2017 20:30 13,8 C 13,3 C 89 % 1017,7 hPa 0,0 l/m 0,0 km/h (0 Bft) W 265 0 min 0,000 mm 0,0 UV-I 0 W/m 12,0 C 13,8 C 0,0 km/h (0 Bft) 95,56 %
02.10.2017 20:32 13,8 C 13,3 C 89 % 1017,7 hPa 0,0 l/m 1,2 km/h (1 Bft) W 265 0 min 0,000 mm 0,0 UV-I 0 W/m 12,0 C 13,8 C 3,2 km/h (1 Bft) 97,87 %
02.10.2017 20:34 13,8 C 13,3 C 89 % 1017,7 hPa 0,0 l/m 1,9 km/h (1 Bft) W 265 0 min 0,000 mm 0,0 UV-I 0 W/m 12,0 C 13,8 C 3,2 km/h (1 Bft) 96,23 %
02.10.2017 20:36 13,8 C 13,3 C 89 % 1017,7 hPa 0,0 l/m 1,2 km/h (1 Bft) W 265 0 min 0,000 mm 0,0 UV-I 0 W/m 12,0 C 13,8 C 3,2 km/h (1 Bft) 97,87 %
02.10.2017 20:38 13,8 C 13,3 C 89 % 1017,8 hPa 0,0 l/m 0,0 km/h (0 Bft) W 265 0 min 0,000 mm 0,0 UV-I 0 W/m 12,0 C 13,8 C 0,0 km/h (0 Bft) 98,00 %
02.10.2017 20:40 13,8 C 13,3 C 89 % 1017,8 hPa 0,0 l/m 0,7 km/h (0 Bft) W 265 0 min 0,000 mm 0,0 UV-I 0 W/m 12,0 C 13,8 C 3,2 km/h (1 Bft) 97,87 %
02.10.2017 20:42 13,8 C 13,3 C 89 % 1017,8 hPa 0,0 l/m 1,5 km/h (1 Bft) W 265 0 min 0,000 mm 0,0 UV-I 0 W/m 12,0 C 13,8 C 3,2 km/h (1 Bft) 97,56 %
02.10.2017 20:44 13,8 C 13,3 C 90 % 1017,8 hPa 0,0 l/m 0,9 km/h (0 Bft) W 265 0 min 0,000 mm 0,0 UV-I 0 W/m 12,2 C 13,8 C 1,6 km/h (1 Bft) 98,11 %
02.10.2017 20:46 13,7 C 13,3 C 90 % 1017,7 hPa 0,0 l/m 0,0 km/h (0 Bft) W 265 0 min 0,000 mm 0,0 UV-I 0 W/m 12,1 C 13,7 C 0,0 km/h (0 Bft) 97,37 %
02.10.2017 20:48 13,7 C 13,3 C 90 % 1017,8 hPa 0,0 l/m 0,0 km/h (0 Bft) W 265 0 min 0,000 mm 0,0 UV-I 0 W/m 12,1 C 13,7 C 0,0 km/h (0 Bft) 96,00 %
02.10.2017 20:50 13,7 C 13,3 C 91 % 1017,8 hPa 0,0 l/m 0,0 km/h (0 Bft) W 265 0 min 0,000 mm 0,0 UV-I 0 W/m 12,3 C 13,7 C 0,0 km/h (0 Bft) 97,87 %
02.10.2017 20:52 13,6 C 13,3 C 90 % 1017,8 hPa 0,0 l/m 0,0 km/h (0 Bft) W 265 0 min 0,000 mm 0,0 UV-I 0 W/m 12,0 C 13,6 C 0,0 km/h (0 Bft) 98,11 %
02.10.2017 20:54 13,6 C 13,3 C 90 % 1017,7 hPa 0,0 l/m 0,0 km/h (0 Bft) W 265 0 min 0,000 mm 0,0 UV-I 0 W/m 12,0 C 13,6 C 0,0 km/h (0 Bft) 95,74 %
02.10.2017 20:56 13,6 C 13,3 C 90 % 1017,8 hPa 0,0 l/m 0,8 km/h (0 Bft) W 265 0 min 0,000 mm 0,0 UV-I 0 W/m 12,0 C 13,6 C 3,2 km/h (1 Bft) 100,00 %
02.10.2017 20:58 13,6 C 13,3 C 90 % 1017,8 hPa 0,0 l/m 0,3 km/h (0 Bft) W 265 0 min 0,000 mm 0,0 UV-I 0 W/m 12,0 C 13,6 C 3,2 km/h (1 Bft) 96,00 %
02.10.2017 21:00 13,6 C 13,3 C 90 % 1017,7 hPa 0,0 l/m 0,0 km/h (0 Bft) W 265 0 min 0,000 mm 0,0 UV-I 0 W/m 12,0 C 13,6 C 0,0 km/h (0 Bft) 94,74 %
02.10.2017 21:02 13,6 C 13,3 C 90 % 1017,8 hPa 0,0 l/m 0,0 km/h (0 Bft) W 265 0 min 0,000 mm 0,0 UV-I 0 W/m 12,0 C 13,6 C 0,0 km/h (0 Bft) 98,00 %
02.10.2017 21:04 13,7 C 13,3 C 90 % 1017,8 hPa 0,0 l/m 0,0 km/h (0 Bft) W 265 0 min 0,000 mm 0,0 UV-I 0 W/m 12,1 C 13,7 C 0,0 km/h (0 Bft) 97,87 %
02.10.2017 21:06 13,6 C 13,3 C 90 % 1017,7 hPa 0,0 l/m 0,0 km/h (0 Bft) W 265 0 min 0,000 mm 0,0 UV-I 0 W/m 12,0 C 13,6 C 0,0 km/h (0 Bft) 97,87 %
02.10.2017 21:08 13,5 C 13,3 C 91 % 1017,7 hPa 0,0 l/m 0,0 km/h (0 Bft) W 265 0 min 0,000 mm 0,0 UV-I 0 W/m 12,1 C 13,5 C 0,0 km/h (0 Bft) 95,74 %
02.10.2017 21:10 13,4 C 13,3 C 91 % 1017,8 hPa 0,0 l/m 0,0 km/h (0 Bft) W 265 0 min 0,000 mm 0,0 UV-I 0 W/m 12,0 C 13,4 C 0,0 km/h (0 Bft) 100,00 %
02.10.2017 21:12 13,4 C 13,3 C 91 % 1017,7 hPa 0,0 l/m 0,0 km/h (0 Bft) W 265 0 min 0,000 mm 0,0 UV-I 0 W/m 12,0 C 13,4 C 0,0 km/h (0 Bft) 100,00 %
02.10.2017 21:14 13,4 C 13,3 C 92 % 1017,7 hPa 0,0 l/m 0,0 km/h (0 Bft) W 265 0 min 0,000 mm 0,0 UV-I 0 W/m 12,1 C 13,4 C 0,0 km/h (0 Bft) 100,00 %
02.10.2017 21:16 13,4 C 13,3 C 92 % 1017,7 hPa 0,0 l/m 0,0 km/h (0 Bft) W 265 0 min 0,000 mm 0,0 UV-I 0 W/m 12,1 C 13,4 C 0,0 km/h (0 Bft) 100,00 %
02.10.2017 21:18 13,4 C 13,3 C 92 % 1017,7 hPa 0,0 l/m 1,2 km/h (1 Bft) W 265 0 min 0,000 mm 0,0 UV-I 0 W/m 12,1 C 13,4 C 3,2 km/h (1 Bft) 100,00 %
02.10.2017 21:20 13,4 C 13,3 C 92 % 1017,7 hPa 0,0 l/m 0,5 km/h (0 Bft) W 265 0 min 0,000 mm 0,0 UV-I 0 W/m 12,1 C 13,4 C 3,2 km/h (1 Bft) 100,00 %
02.10.2017 21:22 13,4 C 13,3 C 92 % 1017,7 hPa 0,0 l/m 0,0 km/h (0 Bft) W 265 0 min 0,000 mm 0,0 UV-I 0 W/m 12,1 C 13,4 C 0,0 km/h (0 Bft) 100,00 %
02.10.2017 21:24 13,3 C 13,3 C 92 % 1017,7 hPa 0,0 l/m 0,0 km/h (0 Bft) W 265 0 min 0,000 mm 0,0 UV-I 0 W/m 12,0 C 13,3 C 0,0 km/h (0 Bft) 100,00 %
02.10.2017 21:26 13,3 C 13,3 C 92 % 1017,7 hPa 0,0 l/m 0,0 km/h (0 Bft) W 265 0 min 0,000 mm 0,0 UV-I 0 W/m 12,0 C 13,3 C 0,0 km/h (0 Bft) 100,00 %
02.10.2017 21:28 13,4 C 13,3 C 93 % 1017,7 hPa 0,0 l/m 0,0 km/h (0 Bft) W 265 0 min 0,000 mm 0,0 UV-I 0 W/m 12,3 C 13,4 C 0,0 km/h (0 Bft) 100,00 %
02.10.2017 21:30 13,3 C 13,3 C 93 % 1017,8 hPa 0,0 l/m 0,0 km/h (0 Bft) W 265 0 min 0,000 mm 0,0 UV-I 0 W/m 12,2 C 13,3 C 0,0 km/h (0 Bft) 97,87 %
02.10.2017 21:34 13,4 C 13,3 C 93 % 1017,8 hPa 0,0 l/m 1,0 km/h (0 Bft) W 265 0 min 0,000 mm 0,0 UV-I 0 W/m 12,3 C 13,4 C 3,2 km/h (1 Bft) 98,95 %
02.10.2017 21:36 13,4 C 13,3 C 93 % 1017,8 hPa 0,0 l/m 0,6 km/h (0 Bft) W 265 0 min 0,000 mm 0,0 UV-I 0 W/m 12,3 C 13,4 C 1,6 km/h (1 Bft) 100,00 %
02.10.2017 21:38 13,5 C 13,3 C 92 % 1017,8 hPa 0,0 l/m 2,7 km/h (1 Bft) W 265 0 min 0,000 mm 0,0 UV-I 0 W/m 12,2 C 13,5 C 4,8 km/h (1 Bft) 100,00 %
02.10.2017 21:40 13,5 C 13,3 C 92 % 1017,8 hPa 0,0 l/m 0,2 km/h (0 Bft) W 265 0 min 0,000 mm 0,0 UV-I 0 W/m 12,2 C 13,5 C 1,6 km/h (1 Bft) 98,00 %
02.10.2017 21:42 13,4 C 13,3 C 92 % 1017,7 hPa 0,0 l/m 0,4 km/h (0 Bft) W 265 0 min 0,000 mm 0,0 UV-I 0 W/m 12,1 C 13,4 C 1,6 km/h (1 Bft) 98,00 %
02.10.2017 21:44 13,5 C 13,3 C 92 % 1017,7 hPa 0,0 l/m 0,1 km/h (0 Bft) W 265 0 min 0,000 mm 0,0 UV-I 0 W/m 12,2 C 13,5 C 1,6 km/h (1 Bft) 98,00 %
02.10.2017 21:46 13,5 C 13,3 C 92 % 1017,6 hPa 0,0 l/m 0,0 km/h (0 Bft) W 265 0 min 0,000 mm 0,0 UV-I 0 W/m 12,2 C 13,5 C 0,0 km/h (0 Bft) 100,00 %
02.10.2017 21:48 13,5 C 13,3 C 93 % 1017,6 hPa 0,0 l/m 0,2 km/h (0 Bft) W 265 0 min 0,000 mm 0,0 UV-I 0 W/m 12,4 C 13,5 C 1,6 km/h (1 Bft) 100,00 %
02.10.2017 21:50 13,4 C 13,3 C 93 % 1017,7 hPa 0,0 l/m 0,5 km/h (0 Bft) W-SW 255 0 min 0,000 mm 0,0 UV-I 0 W/m 12,3 C 13,4 C 1,6 km/h (1 Bft) 97,87 %
02.10.2017 21:52 13,4 C 13,3 C 93 % 1017,5 hPa 0,0 l/m 3,2 km/h (1 Bft) S-SW 195 0 min 0,000 mm 0,0 UV-I 0 W/m 12,3 C 13,4 C 4,8 km/h (1 Bft) 100,00 %
02.10.2017 21:54 13,4 C 13,3 C 93 % 1017,5 hPa 0,0 l/m 4,0 km/h (1 Bft) S-SW 192 0 min 0,000 mm 0,0 UV-I 0 W/m 12,3 C 13,4 C 4,8 km/h (1 Bft) 96,00 %
02.10.2017 21:56 13,4 C 13,3 C 93 % 1017,5 hPa 0,0 l/m 2,7 km/h (1 Bft) S-SW 192 0 min 0,000 mm 0,0 UV-I 0 W/m 12,3 C 13,4 C 4,8 km/h (1 Bft) 95,12 %
02.10.2017 21:58 13,3 C 13,3 C 93 % 1017,4 hPa 0,0 l/m 4,8 km/h (1 Bft) SO 145 0 min 0,000 mm 0,0 UV-I 0 W/m 12,2 C 13,3 C 8,0 km/h (2 Bft) 97,87 %
02.10.2017 22:00 13,3 C 13,3 C 93 % 1017,4 hPa 0,0 l/m 2,6 km/h (1 Bft) SO 145 0 min 0,000 mm 0,0 UV-I 0 W/m 12,2 C 13,3 C 4,8 km/h (1 Bft) 96,00 %
02.10.2017 22:02 13,3 C 13,3 C 93 % 1017,3 hPa 0,0 l/m 3,4 km/h (1 Bft) SO 142 0 min 0,000 mm 0,0 UV-I 0 W/m 12,2 C 13,3 C 6,4 km/h (2 Bft) 97,87 %
02.10.2017 22:04 13,2 C 13,3 C 93 % 1017,3 hPa 0,0 l/m 2,3 km/h (1 Bft) SO 144 0 min 0,000 mm 0,0 UV-I 0 W/m 12,1 C 13,2 C 4,8 km/h (1 Bft) 98,00 %
02.10.2017 22:06 13,2 C 13,3 C 94 % 1017,4 hPa 0,0 l/m 1,9 km/h (1 Bft) S 173 0 min 0,000 mm 0,0 UV-I 0 W/m 12,3 C 13,2 C 4,8 km/h (1 Bft) 93,62 %
02.10.2017 22:08 13,3 C 13,3 C 94 % 1017,5 hPa 0,0 l/m 2,6 km/h (1 Bft) S 173 0 min 0,000 mm 0,0 UV-I 0 W/m 12,4 C 13,3 C 4,8 km/h (1 Bft) 97,73 %
02.10.2017 22:10 13,3 C 13,3 C 94 % 1017,4 hPa 0,0 l/m 1,7 km/h (1 Bft) S 172 0 min 0,000 mm 0,0 UV-I 0 W/m 12,4 C 13,3 C 3,2 km/h (1 Bft) 95,74 %
02.10.2017 22:12 13,3 C 13,3 C 94 % 1017,4 hPa 0,0 l/m 1,3 km/h (1 Bft) S 172 0 min 0,000 mm 0,0 UV-I 0 W/m 12,4 C 13,3 C 3,2 km/h (1 Bft) 97,87 %
02.10.2017 22:14 13,3 C 13,3 C 94 % 1017,4 hPa 0,0 l/m 0,9 km/h (0 Bft) SW 228 0 min 0,000 mm 0,0 UV-I 0 W/m 12,4 C 13,3 C 4,8 km/h (1 Bft) 97,87 %
02.10.2017 22:16 13,3 C 13,3 C 94 % 1017,4 hPa 0,0 l/m 3,3 km/h (1 Bft) NW 311 0 min 0,000 mm 0,0 UV-I 0 W/m 12,4 C 13,3 C 4,8 km/h (1 Bft) 97,87 %
02.10.2017 22:18 13,3 C 13,3 C 94 % 1017,4 hPa 0,0 l/m 1,2 km/h (1 Bft) NW 311 0 min 0,000 mm 0,0 UV-I 0 W/m 12,4 C 13,3 C 3,2 km/h (1 Bft) 97,92 %
02.10.2017 22:20 13,3 C 13,3 C 94 % 1017,3 hPa 0,0 l/m 0,0 km/h (0 Bft) NW 311 0 min 0,000 mm 0,0 UV-I 0 W/m 12,4 C 13,3 C 0,0 km/h (0 Bft) 97,56 %
02.10.2017 22:22 13,3 C 13,3 C 94 % 1017,3 hPa 0,0 l/m 0,2 km/h (0 Bft) NW 311 0 min 0,000 mm 0,0 UV-I 0 W/m 12,4 C 13,3 C 1,6 km/h (1 Bft) 97,92 %
02.10.2017 22:24 13,3 C 13,3 C 94 % 1017,3 hPa 0,0 l/m 0,0 km/h (0 Bft) NW 311 0 min 0,000 mm 0,0 UV-I 0 W/m 12,4 C 13,3 C 0,0 km/h (0 Bft) 97,87 %
02.10.2017 22:26 13,3 C 13,3 C 94 % 1017,3 hPa 0,0 l/m 0,6 km/h (0 Bft) NW 311 0 min 0,000 mm 0,0 UV-I 0 W/m 12,4 C 13,3 C 3,2 km/h (1 Bft) 97,73 %
02.10.2017 22:28 13,3 C 13,3 C 94 % 1017,3 hPa 0,0 l/m 0,9 km/h (0 Bft) NW 311 0 min 0,000 mm 0,0 UV-I 0 W/m 12,4 C 13,3 C 3,2 km/h (1 Bft) 100,00 %
02.10.2017 22:30 13,3 C 13,3 C 94 % 1017,2 hPa 0,0 l/m 0,1 km/h (0 Bft) NW 311 0 min 0,000 mm 0,0 UV-I 0 W/m 12,4 C 13,3 C 1,6 km/h (1 Bft) 97,87 %
02.10.2017 22:32 13,3 C 13,3 C 94 % 1017,2 hPa 0,0 l/m 0,0 km/h (0 Bft) NW 311 0 min 0,000 mm 0,0 UV-I 0 W/m 12,4 C 13,3 C 1,6 km/h (1 Bft) 96,00 %
02.10.2017 22:34 13,3 C 13,3 C 94 % 1017,1 hPa 0,0 l/m 1,0 km/h (0 Bft) NW 311 0 min 0,000 mm 0,0 UV-I 0 W/m 12,4 C 13,3 C 3,2 km/h (1 Bft) 97,87 %
02.10.2017 22:36 13,3 C 13,3 C 94 % 1017,1 hPa 0,0 l/m 0,0 km/h (0 Bft) NW 311 0 min 0,000 mm 0,0 UV-I 0 W/m 12,4 C 13,3 C 0,0 km/h (0 Bft) 97,87 %
02.10.2017 22:38 13,3 C 13,3 C 94 % 1017,2 hPa 0,0 l/m 0,0 km/h (0 Bft) NW 311 0 min 0,000 mm 0,0 UV-I 0 W/m 12,4 C 13,3 C 0,0 km/h (0 Bft) 97,37 %
02.10.2017 22:40 13,3 C 13,3 C 94 % 1017,1 hPa 0,0 l/m 0,0 km/h (0 Bft) NW 311 0 min 0,000 mm 0,0 UV-I 0 W/m 12,4 C 13,3 C 0,0 km/h (0 Bft) 100,00 %
02.10.2017 22:42 13,3 C 13,3 C 94 % 1017,1 hPa 0,0 l/m 0,0 km/h (0 Bft) NW 311 0 min 0,000 mm 0,0 UV-I 0 W/m 12,4 C 13,3 C 0,0 km/h (0 Bft) 100,00 %
02.10.2017 22:44 13,3 C 13,3 C 94 % 1017,1 hPa 0,0 l/m 0,0 km/h (0 Bft) NW 311 0 min 0,000 mm 0,0 UV-I 0 W/m 12,4 C 13,3 C 0,0 km/h (0 Bft) 97,56 %
02.10.2017 22:46 13,4 C 13,3 C 95 % 1017,1 hPa 0,0 l/m 0,0 km/h (0 Bft) NW 311 0 min 0,000 mm 0,0 UV-I 0 W/m 12,6 C 13,4 C 0,0 km/h (0 Bft) 100,00 %
02.10.2017 22:48 13,3 C 13,3 C 94 % 1017,1 hPa 0,0 l/m 0,0 km/h (0 Bft) NW 311 0 min 0,000 mm 0,0 UV-I 0 W/m 12,4 C 13,3 C 1,6 km/h (1 Bft) 98,11 %
02.10.2017 22:50 13,3 C 13,3 C 94 % 1017,2 hPa 0,0 l/m 1,2 km/h (1 Bft) NW 311 0 min 0,000 mm 0,0 UV-I 0 W/m 12,4 C 13,3 C 1,6 km/h (1 Bft) 100,00 %
02.10.2017 22:52 13,3 C 13,3 C 94 % 1017,1 hPa 0,0 l/m 0,3 km/h (0 Bft) NW 311 0 min 0,000 mm 0,0 UV-I 0 W/m 12,4 C 13,3 C 1,6 km/h (1 Bft) 100,00 %
02.10.2017 22:54 13,3 C 13,3 C 94 % 1017,0 hPa 0,0 l/m 0,7 km/h (0 Bft) NW 311 0 min 0,000 mm 0,0 UV-I 0 W/m 12,4 C 13,3 C 3,2 km/h (1 Bft) 98,00 %
02.10.2017 22:56 13,3 C 13,3 C 94 % 1017,0 hPa 0,0 l/m 1,7 km/h (1 Bft) NW 310 0 min 0,000 mm 0,0 UV-I 0 W/m 12,4 C 13,3 C 3,2 km/h (1 Bft) 100,00 %
02.10.2017 22:58 13,3 C 13,3 C 94 % 1017,0 hPa 0,0 l/m 1,7 km/h (1 Bft) NW 310 0 min 0,000 mm 0,0 UV-I 0 W/m 12,4 C 13,3 C 3,2 km/h (1 Bft) 100,00 %
02.10.2017 23:00 13,3 C 13,3 C 94 % 1016,9 hPa 0,0 l/m 0,4 km/h (0 Bft) NW 310 0 min 0,000 mm 0,0 UV-I 0 W/m 12,4 C 13,3 C 1,6 km/h (1 Bft) 94,74 %
02.10.2017 23:02 13,3 C 13,3 C 94 % 1016,8 hPa 0,0 l/m 2,7 km/h (1 Bft) S 177 0 min 0,000 mm 0,0 UV-I 0 W/m 12,4 C 13,3 C 4,8 km/h (1 Bft) 100,00 %
02.10.2017 23:04 13,3 C 13,3 C 94 % 1016,8 hPa 0,0 l/m 1,0 km/h (0 Bft) S 176 0 min 0,000 mm 0,0 UV-I 0 W/m 12,4 C 13,3 C 3,2 km/h (1 Bft) 100,00 %
02.10.2017 23:06 13,3 C 13,3 C 94 % 1016,6 hPa 0,0 l/m 4,7 km/h (1 Bft) O-SO 108 0 min 0,000 mm 0,0 UV-I 0 W/m 12,4 C 13,3 C 6,4 km/h (2 Bft) 100,00 %
02.10.2017 23:08 13,3 C 13,3 C 95 % 1016,6 hPa 0,0 l/m 6,2 km/h (2 Bft) O-SO 107 0 min 0,000 mm 0,0 UV-I 0 W/m 12,5 C 13,3 C 9,7 km/h (2 Bft) 100,00 %
02.10.2017 23:10 13,2 C 13,3 C 95 % 1016,5 hPa 0,0 l/m 4,6 km/h (1 Bft) O-SO 111 0 min 0,000 mm 0,0 UV-I 0 W/m 12,4 C 13,2 C 6,4 km/h (2 Bft) 100,00 %
02.10.2017 23:12 13,2 C 13,3 C 95 % 1016,6 hPa 0,0 l/m 0,9 km/h (0 Bft) O-SO 111 0 min 0,000 mm 0,0 UV-I 0 W/m 12,4 C 13,2 C 3,2 km/h (1 Bft) 98,11 %
02.10.2017 23:14 13,3 C 13,3 C 95 % 1016,5 hPa 0,0 l/m 0,0 km/h (0 Bft) O-SO 111 0 min 0,000 mm 0,0 UV-I 0 W/m 12,5 C 13,3 C 1,6 km/h (1 Bft) 100,00 %
02.10.2017 23:16 13,3 C 13,3 C 95 % 1016,6 hPa 0,0 l/m 0,0 km/h (0 Bft) O-SO 111 0 min 0,000 mm 0,0 UV-I 0 W/m 12,5 C 13,3 C 0,0 km/h (0 Bft) 97,37 %
02.10.2017 23:18 13,3 C 13,3 C 95 % 1016,7 hPa 0,0 l/m 0,0 km/h (0 Bft) O-SO 111 0 min 0,000 mm 0,0 UV-I 0 W/m 12,5 C 13,3 C 0,0 km/h (0 Bft) 100,00 %
02.10.2017 23:20 13,3 C 13,3 C 95 % 1016,7 hPa 0,0 l/m 0,6 km/h (0 Bft) O-SO 111 0 min 0,000 mm 0,0 UV-I 0 W/m 12,5 C 13,3 C 1,6 km/h (1 Bft) 100,00 %
02.10.2017 23:22 13,3 C 13,3 C 95 % 1016,7 hPa 0,0 l/m 0,0 km/h (0 Bft) O-SO 111 0 min 0,000 mm 0,0 UV-I 0 W/m 12,5 C 13,3 C 0,0 km/h (0 Bft) 100,00 %
02.10.2017 23:24 13,3 C 13,3 C 95 % 1016,7 hPa 0,0 l/m 0,0 km/h (0 Bft) O-SO 111 0 min 0,000 mm 0,0 UV-I 0 W/m 12,5 C 13,3 C 1,6 km/h (1 Bft) 100,00 %
02.10.2017 23:26 13,4 C 13,3 C 95 % 1016,5 hPa 0,0 l/m 2,6 km/h (1 Bft) O-SO 111 0 min 0,000 mm 0,0 UV-I 0 W/m 12,6 C 13,4 C 4,8 km/h (1 Bft) 100,00 %
02.10.2017 23:28 13,4 C 13,3 C 95 % 1016,5 hPa 0,0 l/m 4,9 km/h (1 Bft) O-SO 112 0 min 0,000 mm 0,0 UV-I 0 W/m 12,6 C 13,4 C 6,4 km/h (2 Bft) 100,00 %
02.10.2017 23:30 13,3 C 13,3 C 95 % 1016,5 hPa 0,0 l/m 3,0 km/h (1 Bft) O-SO 112 0 min 0,000 mm 0,0 UV-I 0 W/m 12,5 C 13,3 C 4,8 km/h (1 Bft) 100,00 %
02.10.2017 23:32 13,3 C 13,3 C 95 % 1016,5 hPa 0,0 l/m 2,2 km/h (1 Bft) O-SO 112 0 min 0,000 mm 0,0 UV-I 0 W/m 12,5 C 13,3 C 4,8 km/h (1 Bft) 100,00 %
02.10.2017 23:34 13,3 C 13,3 C 95 % 1016,5 hPa 0,0 l/m 1,0 km/h (0 Bft) O-SO 117 0 min 0,000 mm 0,0 UV-I 0 W/m 12,5 C 13,3 C 3,2 km/h (1 Bft) 100,00 %
02.10.2017 23:36 13,3 C 13,3 C 95 % 1016,5 hPa 0,0 l/m 2,3 km/h (1 Bft) O-SO 111 0 min 0,000 mm 0,0 UV-I 0 W/m 12,5 C 13,3 C 4,8 km/h (1 Bft) 100,00 %
02.10.2017 23:38 13,3 C 13,3 C 95 % 1016,5 hPa 0,0 l/m 0,1 km/h (0 Bft) O-SO 111 0 min 0,000 mm 0,0 UV-I 0 W/m 12,5 C 13,3 C 1,6 km/h (1 Bft) 98,11 %
02.10.2017 23:40 13,3 C 13,3 C 95 % 1016,5 hPa 0,0 l/m 0,1 km/h (0 Bft) O-SO 111 0 min 0,000 mm 0,0 UV-I 0 W/m 12,5 C 13,3 C 1,6 km/h (1 Bft) 100,00 %
02.10.2017 23:42 13,3 C 13,3 C 95 % 1016,5 hPa 0,0 l/m 1,4 km/h (1 Bft) O-SO 111 0 min 0,000 mm 0,0 UV-I 0 W/m 12,5 C 13,3 C 3,2 km/h (1 Bft) 100,00 %
02.10.2017 23:44 13,3 C 13,3 C 95 % 1016,4 hPa 0,0 l/m 1,5 km/h (1 Bft) O-SO 119 0 min 0,000 mm 0,0 UV-I 0 W/m 12,5 C 13,3 C 3,2 km/h (1 Bft) 98,21 %
02.10.2017 23:46 13,3 C 13,3 C 95 % 1016,4 hPa 0,0 l/m 2,9 km/h (1 Bft) O-SO 119 0 min 0,000 mm 0,0 UV-I 0 W/m 12,5 C 13,3 C 4,8 km/h (1 Bft) 100,00 %
02.10.2017 23:48 13,4 C 13,3 C 95 % 1016,3 hPa 0,0 l/m 2,9 km/h (1 Bft) O-SO 106 0 min 0,000 mm 0,0 UV-I 0 W/m 12,6 C 13,4 C 4,8 km/h (1 Bft) 95,74 %
02.10.2017 23:50 13,4 C 13,3 C 95 % 1016,1 hPa 0,0 l/m 3,5 km/h (1 Bft) O-SO 105 0 min 0,000 mm 0,0 UV-I 0 W/m 12,6 C 13,4 C 6,4 km/h (2 Bft) 97,87 %
02.10.2017 23:52 13,4 C 13,3 C 95 % 1016,1 hPa 0,0 l/m 2,9 km/h (1 Bft) O-SO 104 0 min 0,000 mm 0,0 UV-I 0 W/m 12,6 C 13,4 C 4,8 km/h (1 Bft) 95,45 %
02.10.2017 23:54 13,4 C 13,3 C 94 % 1016,1 hPa 0,0 l/m 2,9 km/h (1 Bft) O 84 0 min 0,000 mm 0,0 UV-I 0 W/m 12,5 C 13,4 C 4,8 km/h (1 Bft) 96,00 %
02.10.2017 23:56 13,4 C 13,3 C 94 % 1015,9 hPa 0,0 l/m 5,0 km/h (1 Bft) O 82 0 min 0,000 mm 0,0 UV-I 0 W/m 12,5 C 13,4 C 8,0 km/h (2 Bft) 94,74 %
02.10.2017 23:58 13,5 C 13,3 C 95 % 1016,0 hPa 0,0 l/m 1,5 km/h (1 Bft) O 82 0 min 0,000 mm 0,0 UV-I 0 W/m 12,7 C 13,5 C 4,8 km/h (1 Bft) 96,00 %
_ Min-Zeit 01:46 00:00 15:14 23:56 - 00:42 - - - - - - 01:46 10:58 00:42 16:08
Minimum _ 10,3 C 13,3 C 72 % 1015,9 hPa - 0,0 km/h (0 Bft) - - - - - - 9,7 C 9,5 C 0,0 km/h (0 Bft) 91,43 %
_ Max-Zeit 15:12 00:00 02:52 00:00 00:00 15:12 - - 12:03 15:02 13:28 13:30 15:08 15:14 10:56 00:02
Maximum _ 17,4 C 13,3 C 98 % 1021,9 hPa 0,0 l/m 9,2 km/h
O-NO (2 Bft)
- - 3 min 0,304 mm 3,1 UV-I 648 W/m 13,1 C 17,4 C 14,5 km/h
O-NO (3 Bft)
100,00 %
Durchschnitt _ 13,1 C 13,3 C 90 % 1019,5 hPa #0,0 l/m 2,9 km/h (1 Bft) O-NO - #4:50 h #1,499 mm 1,7 UV-I 226 W/m 11,5 C 13,0 C 4,9 km/h (1 Bft) 98,15 %